[[{"header":{"parameterUnit":"m.s-1","parameterCategory":1,"la1":31.0,"la2":29.5877,"lo1":-88.7671,"lo2":-86.6584,"dy":0.0162,"dx":0.0185,"nx":115,"ny":88,"refTime":"2023-10-14T18:00:00:Z","depth":0,"parameterNumber":2,"parameterNumberName":"U-component_of_WINDS"},"data":[0.0,0.0,0.0,0.0,0.0,0.0,0.0,0.0,0.0,0.0,0.0,0.0,0.0,0.0,0.0,0.0,0.0,0.0,0.0,0.0,0.0,0.0,0.0,0.0,0.0,0.0,0.0,0.0,0.0,0.0,0.0,0.0,0.0,0.0,0.0,0.0,0.0,0.0,0.0,0.0,0.0,0.0,0.0,0.0,0.0,0.0,0.0,0.0,0.0,0.0,0.0,0.0,0.0,0.0,0.0,0.0,0.0,0.0,0.0,0.0,0.0,0.0,0.0,0.0,0.0,0.0,0.0,0.0,0.0,0.0,0.0,0.0,0.0,0.0,0.0,0.0,0.0,0.0,0.0,0.0,0.0,0.0,0.0,0.0,0.0,0.0,0.0,0.0,0.0,0.0,0.0,0.0,0.0,0.0,0.0,0.0,0.0,0.0,0.0,0.0,0.0,0.0,0.0,0.0,0.0,0.0,0.0,0.0,0.0,0.0,0.0,0.0,0.0,0.0,0.0,0.0,0.0,0.0,0.0,0.0,0.0,0.0,0.0,0.0,0.0,0.0,0.0,0.0,0.0,0.0,0.0,0.0,0.0,0.0,0.0,0.0,0.0,0.0,0.0,0.0,0.0,0.0,0.0,0.0,0.0,0.0,0.0,0.0,0.0,0.0,0.0,0.0,0.0,0.0,0.0,0.0,0.0,0.0,0.0,0.0,0.0,0.0,0.0,0.0,0.0,0.0,0.0,0.0,0.0,0.0,0.0,0.0,0.0,0.0,0.0,0.0,0.0,0.0,0.0,0.0,0.0,0.0,0.0,0.0,0.0,0.0,0.0,0.0,0.0,0.0,0.0,0.0,0.0,0.0,0.0,0.0,0.0,0.0,0.0,0.0,0.0,0.0,0.0,0.0,0.0,0.0,0.0,0.0,0.0,0.0,0.0,0.0,0.0,0.0,0.0,0.0,0.0,0.0,0.0,0.0,0.0,0.0,0.0,0.0,0.0,0.0,0.0,0.0,0.0,0.0,0.0,0.0,0.0,0.0,0.0,0.0,0.0,0.0,0.0,0.0,0.0,0.0,0.0,0.0,0.0,0.0,0.0,0.0,0.0,0.0,0.0,0.0,0.0,0.0,0.0,0.0,0.0,0.0,0.0,0.0,0.0,0.0,0.0,0.0,0.0,0.0,0.0,0.0,0.0,0.0,0.0,0.0,0.0,0.0,0.0,0.0,0.0,0.0,0.0,0.0,0.0,0.0,0.0,0.0,0.0,0.0,0.0,0.0,0.0,0.0,0.0,0.0,0.0,0.0,0.0,0.0,0.0,0.0,0.0,0.0,0.0,0.0,0.0,0.0,0.0,0.0,0.0,0.0,0.0,0.0,0.0,0.0,0.0,0.0,0.0,0.0,0.0,0.0,0.0,0.0,0.0,0.0,0.0,0.0,0.0,0.0,0.0,0.0,0.0,0.0,0.0,0.0,0.0,0.0,0.0,0.0,0.0,0.0,0.0,0.0,0.0,0.0,0.0,0.0,0.0,0.0,0.0,0.0,0.0,0.0,0.0,0.0,0.0,0.0,0.0,0.0,0.0,0.0,0.0,0.0,0.0,0.0,0.0,0.0,0.0,0.0,0.0,0.0,0.0,0.0,0.0,0.0,0.0,0.0,0.0,0.0,0.0,0.0,0.0,0.0,0.0,0.0,0.0,0.0,0.0,0.0,0.0,0.0,0.0,0.0,0.0,0.0,0.0,0.0,0.0,0.0,0.0,0.0,0.0,0.0,0.0,0.0,0.0,0.0,0.0,0.0,0.0,0.0,0.0,0.0,0.0,0.0,0.0,0.0,0.0,0.0,0.0,0.0,0.0,0.0,0.0,0.0,0.0,0.0,0.0,0.0,0.0,0.0,0.0,0.0,0.0,0.0,0.0,0.0,0.0,0.0,0.0,0.0,0.0,0.0,0.0,0.0,0.0,0.0,0.0,0.0,0.0,0.0,0.0,0.0,0.0,0.0,0.0,0.0,0.0,0.0,0.0,0.0,0.0,0.0,0.0,0.0,0.0,0.0,0.0,0.0,0.0,0.0,0.0,0.0,0.0,0.0,0.0,0.0,0.0,0.0,0.0,0.0,0.0,0.0,0.0,0.0,0.0,0.0,0.0,0.0,0.0,0.0,0.0,0.0,0.0,0.0,0.0,0.0,0.0,0.0,0.0,0.0,0.0,0.0,0.0,0.0,0.0,0.0,0.0,0.0,0.0,0.0,0.0,0.0,0.0,0.0,0.0,0.0,0.0,0.0,0.0,0.0,0.0,0.0,0.0,0.0,0.0,0.0,0.0,0.0,0.0,0.0,0.0,0.0,0.0,0.0,0.0,0.0,0.0,0.0,0.0,0.0,0.0,0.0,0.0,0.0,0.0,0.0,0.0,0.0,0.0,0.0,0.0,0.0,0.0,0.0,0.0,0.0,0.0,0.0,0.0,0.0,0.0,0.0,0.0,0.0,0.0,0.0,0.0,0.0,0.0,0.0,0.0,0.0,0.0,0.0,0.0,0.0,0.0,0.0,0.0,0.0,0.0,0.0,0.0,0.0,0.0,0.0,0.0,0.0,0.0,0.0,0.0,0.0,0.0,0.0,0.0,0.0,0.0,0.0,0.0,0.0,0.0,0.0,0.0,0.0,0.0,0.0,0.0,0.0,0.0,0.0,0.0,0.0,0.0,0.0,0.0,0.0,0.0,0.0,0.0,0.0,0.0,0.0,0.0,0.0,0.0,0.0,0.0,0.0,0.0,0.0,0.0,0.0,0.0,0.0,0.0,0.0,0.0,0.0,0.0,0.0,0.0,0.0,0.0,0.0,0.0,0.0,0.0,0.0,0.0,0.0,0.0,0.0,0.0,0.0,0.0,0.0,0.0,0.0,0.0,0.0,0.0,0.0,0.0,0.0,0.0,0.0,0.0,0.0,0.0,0.0,0.0,0.0,0.0,0.0,0.0,0.0,0.0,0.0,0.0,0.0,0.0,0.0,0.0,0.0,0.0,0.0,0.0,0.0,0.0,0.0,0.0,0.0,0.0,0.0,0.0,0.0,0.0,0.0,0.0,0.0,0.0,0.0,0.0,0.0,0.0,0.0,0.0,0.0,0.0,0.0,0.0,0.0,0.0,0.0,0.0,0.0,0.0,0.0,0.0,0.0,0.0,0.0,0.0,0.0,0.0,0.0,0.0,0.0,0.0,0.0,0.0,0.0,0.0,0.0,0.0,0.0,0.0,0.0,0.0,0.0,0.0,0.0,0.0,0.0,0.0,0.0,0.0,0.0,0.0,0.0,0.0,0.0,0.0,0.0,0.0,0.0,0.0,0.0,0.0,0.0,0.0,0.0,0.0,0.0,0.0,0.0,0.0,0.0,0.0,0.0,0.0,0.0,0.0,0.0,0.0,0.0,0.0,0.0,0.0,0.0,0.0,0.0,0.0,0.0,0.0,0.0,0.0,0.0,0.0,0.0,0.0,0.0,0.0,0.0,0.0,0.0,0.0,0.0,0.0,0.0,0.0,0.0,0.0,0.0,0.0,0.0,0.0,0.0,0.0,0.0,0.0,0.0,0.0,0.0,0.0,0.0,0.0,0.0,0.0,0.0,0.0,0.0,0.0,0.0,0.0,0.0,0.0,0.0,0.0,0.0,0.0,0.0,0.0,0.0,0.0,0.0,0.0,0.0,0.0,0.0,0.0,0.0,0.0,0.0,0.0,0.0,0.0,0.0,0.0,0.0,0.0,0.0,0.0,0.0,0.0,0.0,0.0,0.0,0.0,0.0,0.0,0.0,0.0,0.0,0.0,0.0,0.0,0.0,0.0,0.0,0.0,0.0,0.0,0.0,0.0,0.0,0.0,0.0,0.0,0.0,0.0,0.0,0.0,0.0,0.0,0.0,0.0,0.0,0.0,0.0,0.0,0.0,0.0,0.0,0.0,0.0,0.0,0.0,0.0,0.0,0.0,0.0,0.0,0.0,0.0,0.0,0.0,0.0,0.0,0.0,0.0,0.0,0.0,0.0,0.0,0.0,0.0,0.0,0.0,0.0,0.0,0.0,0.0,0.0,0.0,0.0,0.0,0.0,0.0,0.0,0.0,0.0,0.0,0.0,0.0,0.0,0.0,0.0,0.0,0.0,0.0,0.0,0.0,0.0,0.0,0.0,0.0,0.0,0.0,0.0,0.0,0.0,0.0,0.0,0.0,0.0,0.0,0.0,0.0,0.0,0.0,0.0,0.0,0.0,0.0,0.0,0.0,0.0,0.3133,0.0,0.0,0.0,0.0,0.0,0.0,0.0,0.0,0.0,0.0,0.0,0.0,0.0,0.0,0.0,0.0,0.0,0.0,0.0,0.0,0.0,0.0,0.0,0.0,0.0,0.0,0.0,0.0,0.0,0.0,0.0,0.0,0.0,0.0,0.0,0.0,0.0,0.0,0.0,0.0,0.0,0.0,0.0,0.0,0.0,0.0,0.0,0.0,0.0,0.0,0.0,0.0,0.0,0.0,0.0,0.0,0.0,0.0,0.0,0.0,0.0,0.0,0.0,0.0,0.0,0.0,0.0,0.0,0.0,0.0,0.0,0.0,0.0,0.0,0.0,0.0,0.0,0.0,0.0,0.0,0.0,0.0,0.0,0.0,0.0,0.0,0.0,0.0,0.0,0.0,0.0,0.0,0.0,0.0,0.0,0.0,0.0,0.0,0.0,0.0,0.0,0.0,0.0,0.0,0.0,0.0,0.0,0.0,0.0,0.0,0.3433,0.3425,0.3373,0.3356,0.3368,0.0,0.0,0.0,0.0,0.0,0.0,0.0,0.0,0.0,0.0,0.0,0.0,0.0,0.0,0.0,0.0,0.0,0.0,0.0,0.0,0.0,0.0,0.0,0.0,0.0,0.0,0.0,0.0,0.0,0.0,0.0,0.0,0.0,0.0,0.0,0.0,0.0,0.0,0.0,0.0,0.0,0.0,0.0,0.0,0.0,0.0,0.0,0.0,0.0,0.0,0.0,0.0,0.0,0.0,0.0,0.0,0.0,0.0,0.0,0.0,0.0,0.0,0.0,0.0,0.0,0.0,0.0,0.0,0.0,0.0,0.0,0.0,0.0,0.0,0.0,0.0,0.0,0.0,0.0,0.0,0.0,0.0,0.0,0.0,0.0,0.0,0.0,0.0,0.0,0.0,0.0,0.0,0.0,0.0,0.0,0.0,0.0,0.0,0.0,0.0,0.0,0.0,0.0,0.0,0.0,0.0,0.0,0.0,0.0,0.0,0.0,0.0,0.3596,0.3584,0.3575,0.0,0.0,0.0,0.0,0.0,0.0,0.0,0.0,0.0,0.0,0.0,0.0,0.0,0.0,0.0,0.0,0.0,0.0,0.0,0.0,0.0,0.0,0.0,0.0,0.0,0.0,0.0,0.0,0.0,0.0,0.0,0.0,0.0,0.0,0.0,0.0,0.0,0.0,0.0,0.0,0.0,0.0,0.0,0.0,0.0,0.0,0.0,0.0,0.0,0.0,0.0,0.0,0.0,0.0,0.0,0.0,0.0,0.0,0.0,0.0,0.0,0.0,0.0,0.0,0.0,0.0,0.0,0.0,0.0,0.0,0.0,0.0,0.0,0.0,0.0,0.0,0.0,0.0,0.0,0.0,0.0,0.0,0.0,0.0,0.0,0.0,0.0,0.0,0.0,0.0,0.0,0.0,0.0,0.0,0.0,0.0,0.0,0.0,0.0,0.0,0.0,0.0,0.0,0.0,0.0,0.0,0.0,0.0,0.0,0.0,0.3864,0.3854,0.3859,0.0,0.3764,0.0,0.0,0.0,0.0,0.0,0.0,0.0,0.0,0.0,0.0,0.0,0.0,0.0,0.0,0.0,0.0,0.0,0.0,0.0,0.0,0.0,0.0,0.0,0.0,0.0,0.0,0.0,0.0,0.0,0.0,0.0,0.0,0.0,0.0,0.0,0.0,0.0,0.0,0.0,0.0,0.0,0.0,0.0,0.0,0.0,0.0,0.0,0.0,0.0,0.0,0.0,0.0,0.0,0.0,0.0,0.0,0.0,0.0,0.0,0.0,0.0,0.0,0.0,0.0,0.0,0.0,0.0,0.0,0.0,0.0,0.0,0.0,0.0,0.0,0.0,0.0,0.0,0.0,0.0,0.0,0.0,0.0,0.0,0.0,0.0,0.0,0.0,0.0,0.0,0.0,0.0,0.0,0.0,0.0,0.0,0.0,0.0,0.0,0.0,0.0,0.0,0.0,0.0,0.0,0.0,0.0,0.0,0.0,0.0,0.0,0.4094,0.4019,0.3978,0.3929,0.0,0.0,0.0,0.0,0.0,0.0,0.0,0.0,0.0,0.0,0.0,0.0,0.0,0.0,0.0,0.0,0.0,0.0,0.0,0.0,0.0,0.0,0.0,0.0,0.0,0.0,0.0,0.0,0.0,0.0,0.0,0.0,0.0,0.0,0.0,0.0,0.0,0.0,0.0,0.0,0.0,0.0,0.0,0.0,0.0,0.0,0.0,0.0,0.0,0.0,0.0,0.0,0.0,0.0,0.0,0.0,0.0,0.0,0.0,0.0,0.0,0.0,0.0,0.0,0.0,0.0,0.0,0.0,0.0,0.0,0.0,0.0,0.0,0.0,0.0,0.0,0.0,0.0,0.0,0.0,0.0,0.0,0.0,0.0,0.0,0.0,0.0,0.0,0.0,0.0,0.0,0.0,0.0,0.0,0.0,0.0,0.0,0.0,0.0,0.0,0.0,0.0,0.0,0.0,0.0,0.0,0.0,0.0,0.0,0.0,0.4336,0.4263,0.4171,0.4094,0.4024,0.397,0.0,0.0,0.0,0.0,0.0,0.0,0.0,0.0,0.0,0.0,0.0,0.0,0.0,0.0,0.0,0.0,0.0,0.0,0.0,0.0,0.0,0.0,0.0,0.0,0.0,0.0,0.0,0.0,0.0,0.0,0.0,0.0,0.0,0.0,0.0,0.0,0.0,0.0,0.0,0.0,0.0,0.0,0.0,0.0,0.0,0.0,0.0,0.0,0.0,0.0,0.0,0.0,0.0,0.0,0.0,0.0,0.0,0.0,0.0,0.0,0.0,0.0,0.0,0.0,0.0,0.0,0.0,0.0,0.0,0.0,0.0,0.0,0.0,0.0,0.0,0.0,0.0,0.0,0.0,0.0,0.0,0.0,0.0,0.0,0.0,0.0,0.0,0.0,0.0,0.0,0.0,0.0,0.0,0.0,0.0,0.0,0.0,0.0,0.0,0.0,0.0,0.0,0.0,0.0,0.0,0.0,0.0,0.0,0.4414,0.4412,0.4384,0.4304,0.4222,0.4187,0.0,0.0,0.0,0.0,0.0,0.0,0.0,0.0,0.0,0.0,0.0,0.0,0.0,0.0,0.0,0.0,0.0,0.0,0.0,0.0,0.0,0.0,0.0,0.0,0.0,0.0,0.0,0.0,0.0,0.0,0.0,0.0,0.0,0.0,0.0,0.0,0.0,0.0,0.0,0.0,0.0,0.0,0.0,0.0,0.0,0.0,0.0,0.0,0.0,0.0,0.0,0.0,0.0,0.0,0.0,0.0,0.0,0.0,0.0,0.0,0.0,0.0,0.0,0.0,0.0,0.0,0.0,0.0,0.0,0.0,0.0,0.0,0.0,0.0,0.0,0.0,0.0,0.0,0.0,0.0,0.0,0.0,0.0,0.0,0.0,0.0,0.0,0.0,0.0,0.0,0.0,0.0,0.0,0.0,0.0,0.0,0.0,0.0,0.0,0.0,0.0,0.0,0.0,0.0,0.0,0.0,0.0,0.0,0.0,0.5348,0.5278,0.5223,0.5191,0.51,0.5032,0.0,0.0,0.0,0.0,0.0,0.0,0.0,0.0,0.0,0.0,0.0,0.0,0.0,0.0,0.0,0.0,0.0,0.0,0.0,0.0,0.0,0.0,0.0,0.0,0.0,0.0,0.0,0.0,0.0,0.0,0.0,0.0,0.0,0.0,0.0,0.0,0.0,0.0,0.0,0.0,0.0,0.0,0.0,0.0,0.0,0.0,0.0,0.0,0.0,0.0,0.0,0.0,0.0,0.0,0.0,0.0,0.0,0.0,0.0,0.0,0.0,0.0,0.0,0.0,0.0,0.0,0.0,0.0,0.0,0.0,0.0,0.0,0.0,0.0,0.0,0.0,0.0,0.0,0.0,0.0,0.0,0.0,0.0,0.0,0.0,0.0,0.0,0.0,0.0,0.0,0.0,0.0,0.0,0.0,0.0,0.0,0.0,0.0,0.0,0.0,0.0,0.0,0.0,0.0,0.0,0.0,0.0,0.0,0.0,0.5918,0.0,0.5757,0.5757,0.5631,0.5556,0.0,0.0,0.0,0.0,0.0,0.0,0.0,0.0,0.0,0.0,0.0,0.0,0.0,0.0,0.0,0.0,0.0,0.0,0.0,0.0,0.0,0.0,0.0,0.0,0.0,0.0,0.0,0.0,0.0,0.0,0.0,0.0,0.0,0.0,0.0,0.0,0.0,0.0,0.0,0.0,0.0,0.0,0.0,0.0,0.0,0.0,0.0,0.0,0.0,0.0,0.0,0.0,0.0,0.0,0.0,0.0,0.0,0.0,0.0,0.0,0.0,0.0,0.0,0.0,0.0,0.0,0.0,0.0,0.0,0.0,0.0,0.0,0.0,0.0,0.0,0.0,0.0,0.0,0.0,0.0,0.0,0.0,0.0,0.0,0.0,0.0,0.0,0.0,0.0,0.0,0.0,0.0,0.0,0.0,0.0,0.0,0.0,0.0,0.0,0.0,0.0,0.0,0.0,0.0,0.0,0.0,0.0,0.0,0.6179,0.602,0.5971,0.5957,0.5915,0.5813,0.5729,0.0,0.0,0.0,0.0,0.0,0.0,0.0,0.0,0.0,0.0,0.0,0.0,0.0,0.0,0.0,0.0,0.0,0.0,0.0,0.0,0.0,0.0,0.0,0.0,0.0,0.0,0.0,0.0,0.0,0.0,0.0,0.0,0.0,0.0,0.0,0.0,0.0,0.0,0.0,0.0,0.0,0.0,0.0,0.0,0.0,0.0,0.0,0.0,0.0,0.0,0.0,0.0,0.0,0.0,0.0,0.0,0.0,0.0,0.0,0.0,0.0,0.0,0.0,0.0,0.0,0.0,0.0,0.0,0.0,0.0,0.0,0.0,0.0,0.0,0.0,0.0,0.0,0.0,0.0,0.0,0.0,0.0,0.0,0.0,0.0,0.0,0.0,0.0,0.0,0.0,0.0,0.0,0.0,0.0,0.0,0.0,0.0,0.0,0.0,0.0,0.0,0.0,0.0,0.0,0.0,0.0,0.0,0.0,0.0,0.6971,0.686,0.6765,0.6719,0.6647,0.6567,0.0,0.0,0.0,0.0,0.0,0.0,0.0,0.0,0.0,0.0,0.0,0.0,0.0,0.0,0.0,0.0,0.0,0.0,0.0,0.0,0.0,0.0,0.0,0.0,0.0,0.0,0.0,0.0,0.0,0.0,0.0,0.0,0.0,0.0,0.0,0.0,0.0,0.0,0.0,0.0,0.0,0.0,0.0,0.0,0.0,0.0,0.0,0.0,0.0,0.0,0.0,0.0,0.0,0.0,0.0,0.0,0.0,0.0,0.0,0.0,0.0,0.0,0.0,0.0,0.0,0.0,0.0,0.0,0.0,0.0,0.0,0.0,0.0,0.0,0.0,0.0,0.0,0.0,0.0,0.0,0.0,0.0,0.0,0.0,0.0,0.0,0.0,0.0,0.0,0.0,0.0,0.0,0.0,0.0,0.0,0.0,0.0,0.0,0.0,0.0,0.0,0.0,0.0,0.0,0.0,0.0,0.0,0.0,0.0,0.7996,0.7864,0.7755,0.7661,0.7452,0.7294,0.7193,0.0,0.0,0.0,0.0,0.0,0.0,0.0,0.0,0.0,0.0,0.0,0.0,0.0,0.0,0.0,0.0,0.0,0.0,0.0,0.0,0.0,0.0,0.0,0.0,0.0,0.0,0.0,0.0,0.0,0.0,0.0,0.0,0.0,0.0,0.0,0.0,0.0,0.0,0.0,0.0,0.0,0.0,0.0,0.0,0.0,0.0,0.0,0.0,0.0,0.0,0.0,0.0,0.0,0.0,0.0,0.0,0.0,0.0,0.0,0.0,0.0,0.0,0.0,0.0,0.0,0.0,0.0,0.0,0.0,0.0,0.0,0.0,0.0,0.0,0.0,0.0,0.0,0.0,0.0,0.0,0.0,0.0,0.0,0.0,0.0,0.0,0.0,0.0,0.0,0.0,0.0,0.0,0.0,0.0,0.0,0.0,0.0,0.0,0.0,0.0,0.0,0.0,0.0,0.0,0.0,0.0,0.0,0.0,0.9051,0.8952,0.8785,0.859,0.8168,0.7867,0.0,0.0,0.0,0.0,0.0,0.0,0.0,0.0,0.0,0.0,0.0,0.0,0.0,0.0,0.0,0.0,0.0,0.0,0.0,0.0,0.0,0.0,0.0,0.0,0.0,0.0,0.0,0.0,0.0,0.0,0.0,0.0,0.0,0.0,0.0,0.0,0.0,0.0,0.0,0.0,0.0,0.0,0.0,0.0,0.0,0.0,0.0,0.0,0.0,0.0,0.0,0.0,0.0,0.0,0.0,0.0,0.0,0.0,0.0,0.0,0.0,0.0,0.0,0.0,0.0,0.0,0.0,0.0,0.0,0.0,0.0,0.0,0.0,0.0,0.0,0.0,0.0,0.0,0.0,0.0,0.0,0.0,0.0,0.0,0.0,0.0,0.0,0.0,0.0,0.0,0.0,0.0,0.0,0.0,0.0,0.0,0.0,0.0,0.0,0.0,0.0,0.0,0.0,0.0,0.0,0.0,0.0,0.0,0.0,0.975,0.9897,0.9583,0.8784,0.8532,0.8374,0.0,0.0,0.0,0.0,0.0,0.0,0.0,0.0,0.0,0.0,0.0,0.0,0.0,0.0,0.0,0.0,0.0,0.0,0.0,0.0,0.0,0.0,0.0,0.0,0.0,0.0,0.0,0.0,0.0,0.0,0.0,0.0,0.0,0.0,0.0,0.0,0.0,0.0,0.0,0.0,0.0,0.0,0.0,0.0,0.0,0.0,0.0,0.0,0.0,0.0,0.0,0.0,0.0,0.0,0.0,0.0,0.0,0.0,0.0,0.0,0.0,0.0,0.0,0.0,0.0,0.0,0.0,0.0,0.0,0.0,0.0,0.0,0.0,0.0,0.0,0.0,0.0,0.0,0.0,0.0,0.0,0.0,0.0,0.0,0.0,0.0,0.0,0.0,0.0,0.0,0.0,0.0,0.0,0.0,0.0,0.0,0.0,0.0,0.0,0.0,0.0,0.0,0.0,0.0,0.0,0.0,0.0,0.0,1.0339,1.0671,1.0762,1.0567,1.0078,0.937,0.8915,0.0,0.0,0.0,0.0,0.0,0.0,0.0,0.0,0.0,0.0,0.0,0.0,0.0,0.0,0.0,0.0,0.0,0.0,0.0,0.0,0.0,0.0,0.0,0.0,0.0,0.0,0.0,0.0,0.0,0.0,0.0,0.0,0.0,0.0,0.0,0.0,0.0,0.0,0.0,0.0,0.0,0.0,0.0,0.0,0.0,0.0,0.0,0.0,0.0,0.0,0.0,0.0,0.0,0.0,0.0,0.0,0.0,0.0,0.0,0.0,0.0,0.0,0.0,0.0,0.0,0.0,0.0,0.0,0.0,0.0,0.0,0.0,0.0,0.0,0.0,0.0,0.0,0.0,0.0,0.0,0.0,0.0,0.0,0.0,0.0,0.0,0.0,0.0,0.0,0.0,0.0,0.0,0.0,0.0,0.0,0.0,0.0,0.0,0.0,0.0,0.0,0.0,0.0,0.0,0.0,0.0,0.0,0.0,1.0895,1.1591,1.1531,1.1602,1.1784,1.041,0.9562,0.0,0.0,0.0,0.0,0.0,0.0,0.0,0.0,0.0,0.0,0.0,0.0,0.0,0.0,0.0,0.0,0.0,0.0,0.0,0.0,0.0,0.0,0.0,0.0,0.0,0.0,0.0,0.0,0.0,0.0,0.0,0.0,0.0,0.0,0.0,0.0,0.0,0.0,0.0,0.0,0.0,0.0,0.0,0.0,0.0,0.0,0.0,0.0,0.0,0.0,0.0,0.0,0.0,0.0,0.0,0.0,0.0,0.0,0.0,0.0,0.0,0.0,0.0,0.0,0.0,0.0,0.0,0.0,0.0,0.0,0.0,0.0,0.0,0.0,0.0,0.0,0.0,0.0,0.0,0.0,0.0,0.0,0.0,0.0,0.0,0.0,0.0,0.0,0.0,0.0,0.0,0.0,0.0,0.0,0.0,0.0,0.0,0.0,0.0,0.0,0.0,0.0,0.0,0.0,0.0,0.0,0.0,0.0,1.1602,1.1682,1.1965,1.2087,1.204,1.1152,1.0604,0.0,0.0,0.0,0.0,0.0,0.0,0.0,0.0,0.0,0.0,0.0,0.0,0.0,0.0,0.0,0.0,0.0,0.0,0.0,0.0,0.0,0.0,0.0,0.0,0.0,0.0,0.0,0.0,0.0,0.0,0.0,0.0,0.0,0.0,0.0,0.0,0.0,0.0,0.0,0.0,0.0,0.0,0.0,0.0,0.0,0.0,0.0,0.0,1.1075,0.0,0.0,0.0,0.0,0.0,0.0,0.0,0.0,0.0,0.0,0.0,0.0,0.0,0.0,0.0,0.0,0.0,0.0,0.0,0.0,0.0,0.0,0.0,0.0,0.0,0.0,0.0,0.0,0.0,0.0,0.0,0.0,0.0,0.0,0.0,0.0,0.0,0.0,0.0,0.0,0.0,0.0,0.0,0.0,0.0,0.0,0.0,0.0,0.0,0.0,0.0,0.0,0.0,0.0,0.0,0.0,0.0,0.0,0.0,1.2238,1.2626,1.2667,1.2701,1.2775,1.2177,1.1541,0.0,0.0,0.0,0.0,0.0,0.0,0.0,0.0,0.0,0.0,0.0,0.0,0.0,0.0,0.0,0.0,0.0,0.0,0.0,0.0,0.0,0.0,0.0,0.0,0.0,0.0,0.0,0.0,0.0,0.0,0.0,0.0,0.0,0.0,0.0,0.0,0.0,0.0,0.0,0.0,0.0,0.0,0.0,0.0,0.0,0.0,0.0,0.0,0.0,0.0,0.0,0.0,0.0,0.0,0.0,0.0,0.0,0.0,0.0,0.0,0.0,0.0,0.0,0.0,0.0,0.0,0.0,0.0,0.0,0.0,0.0,0.0,0.0,0.0,0.0,0.0,0.0,0.0,0.0,0.0,0.0,0.0,0.0,0.0,0.0,0.0,0.0,0.0,0.0,0.0,0.0,0.0,0.0,0.0,0.0,0.0,0.0,0.0,0.0,0.0,0.0,0.0,0.0,0.0,0.0,0.0,0.0,1.2523,1.2854,1.3652,1.3449,1.3423,1.3647,1.3179,1.2414,1.1341,0.0,0.0,0.0,0.0,0.0,0.0,0.0,0.0,0.0,0.0,0.0,0.0,0.0,0.0,0.0,0.0,0.0,0.0,0.0,0.0,0.0,0.0,0.0,0.0,0.0,0.0,0.0,0.0,0.0,0.0,0.0,0.0,0.0,0.0,0.0,0.0,0.0,0.0,1.1962,1.2432,0.0,0.0,0.0,0.0,0.0,0.0,0.0,0.0,1.2941,0.0,0.0,0.0,0.0,0.0,0.0,0.0,0.0,0.0,0.0,0.0,0.0,0.0,0.0,0.0,0.0,0.0,0.0,0.0,0.0,0.0,0.0,0.0,0.0,0.0,0.0,0.0,0.0,0.0,0.0,0.0,0.0,0.0,0.0,0.0,0.0,0.0,0.0,0.0,0.0,0.0,0.0,0.0,0.0,0.0,0.0,0.0,0.0,0.0,0.0,0.0,0.0,0.0,0.0,0.0,0.0,1.2704,1.3353,1.3695,1.3707,1.4011,1.4099,1.3939,1.3631,1.3212,1.2664,0.0,0.0,0.0,0.0,0.0,0.0,0.0,0.0,0.0,0.0,0.0,0.0,0.0,0.0,0.0,0.0,0.0,0.0,0.0,0.0,0.0,0.0,0.0,0.0,0.0,0.0,0.0,0.0,0.0,0.0,0.0,0.0,0.0,0.0,0.0,0.0,0.0,0.0,0.0,1.2684,1.286,0.0,0.0,0.0,0.0,0.0,0.0,0.0,0.0,1.3819,0.0,0.0,0.0,0.0,0.0,0.0,0.0,0.0,0.0,0.0,0.0,0.0,0.0,0.0,0.0,0.0,0.0,0.0,0.0,0.0,0.0,0.0,0.0,0.0,0.0,0.0,0.0,0.0,0.0,0.0,0.0,0.0,0.0,0.0,0.0,0.0,0.0,0.0,0.0,0.0,0.0,0.0,0.0,0.0,0.0,0.0,0.0,0.0,0.0,0.0,0.0,0.0,0.0,0.0,0.0,1.3279,1.3878,1.4248,1.4317,1.4436,1.4407,1.4209,1.4,1.3635,0.0,0.0,0.0,0.0,0.0,0.0,0.0,0.0,0.0,0.0,0.0,0.0,0.0,0.0,0.0,0.0,0.0,0.0,0.0,0.0,0.0,0.0,0.0,0.0,0.0,0.0,0.0,0.0,0.0,0.0,0.0,0.0,0.0,0.0,0.0,0.0,0.0,0.0,0.0,0.0,1.3228,1.3356,1.3888,0.0,0.0,0.0,0.0,0.0,0.0,1.4309,1.4202,0.0,0.0,0.0,0.0,0.0,0.0,0.0,0.0,0.0,0.0,0.0,0.0,0.0,0.0,0.0,0.0,0.0,0.0,0.0,0.0,0.0,0.0,0.0,0.0,0.0,0.0,0.0,0.0,0.0,0.0,0.0,0.0,0.0,0.0,0.0,0.0,0.0,0.0,0.0,0.0,0.0,0.0,0.0,0.0,0.0,0.0,0.0,0.0,0.0,0.0,0.0,0.0,0.0,0.0,0.0,1.3839,1.4362,1.4786,1.5085,1.4946,1.4783,1.4631,1.448,1.403,0.0,0.0,0.0,0.0,0.0,0.0,0.0,0.0,0.0,0.0,0.0,0.0,0.0,0.0,0.0,0.0,0.0,0.0,0.0,0.0,0.0,0.0,0.0,0.0,0.0,0.0,0.0,0.0,0.0,0.0,0.0,0.0,0.0,0.0,0.0,0.0,0.0,0.0,0.0,0.0,0.0,1.3958,1.4481,1.4496,0.0,0.0,0.0,0.0,1.4604,1.4604,0.0,0.0,0.0,0.0,0.0,0.0,0.0,0.0,0.0,0.0,0.0,0.0,0.0,0.0,0.0,0.0,0.0,0.0,0.0,0.0,0.0,0.0,0.0,0.0,0.0,0.0,0.0,0.0,0.0,0.0,0.0,0.0,0.0,0.0,0.0,0.0,0.0,0.0,0.0,0.0,0.0,0.0,0.0,0.0,0.0,0.0,0.0,0.0,0.0,0.0,0.0,0.0,0.0,0.0,0.0,0.0,1.3934,1.4871,1.5508,1.5763,1.5774,1.5631,1.538,1.5126,1.4763,0.0,0.0,0.0,0.0,0.0,0.0,0.0,0.0,0.0,0.0,0.0,0.0,0.0,0.0,0.0,0.0,0.0,0.0,0.0,0.0,0.0,0.0,0.0,0.0,0.0,0.0,0.0,0.0,0.0,0.0,0.0,0.0,0.0,0.0,0.0,0.0,0.0,0.0,0.0,0.0,0.0,1.4505,1.5028,1.4999,1.5073,0.0,0.0,1.5623,1.5623,1.5634,0.0,0.0,0.0,0.0,0.0,0.0,0.0,0.0,0.0,0.0,0.0,0.0,0.0,0.0,0.0,0.0,0.0,0.0,0.0,0.0,0.0,0.0,0.0,0.0,0.0,0.0,0.0,0.0,0.0,0.0,0.0,0.0,0.0,0.0,0.0,0.0,0.0,0.0,0.0,0.0,0.0,0.0,0.0,0.0,0.0,0.0,0.0,0.0,0.0,0.0,0.0,0.0,0.0,0.0,0.0,1.4232,1.4492,1.5497,1.6044,1.6138,1.6418,1.6297,1.5746,1.5614,1.5234,0.0,0.0,0.0,0.0,0.0,0.0,0.0,0.0,0.0,0.0,0.0,0.0,0.0,0.0,0.0,0.0,0.0,0.0,0.0,0.0,0.0,0.0,0.0,0.0,0.0,0.0,0.0,0.0,0.0,0.0,0.0,0.0,0.0,0.0,0.0,0.0,0.0,0.0,0.0,0.0,0.0,0.0,1.6099,1.6045,0.0,0.0,0.0,1.6715,1.6703,0.0,0.0,0.0,0.0,0.0,0.0,0.0,0.0,0.0,0.0,0.0,0.0,0.0,0.0,0.0,0.0,0.0,0.0,0.0,0.0,0.0,0.0,0.0,0.0,0.0,0.0,0.0,0.0,0.0,0.0,0.0,0.0,0.0,0.0,0.0,0.0,0.0,0.0,0.0,0.0,0.0,0.0,0.0,0.0,0.0,0.0,0.0,0.0,0.0,0.0,0.0,0.0,0.0,0.0,0.0,0.0,0.0,1.494,1.5931,1.6468,1.6551,1.7047,1.7018,1.6402,1.6214,0.0,0.0,0.0,0.0,0.0,0.0,0.0,0.0,0.0,0.0,0.0,0.0,0.0,0.0,0.0,0.0,0.0,0.0,0.0,0.0,0.0,0.0,0.0,0.0,0.0,0.0,0.0,1.3522,0.0,0.0,0.0,0.0,0.0,0.0,0.0,0.0,0.0,0.0,0.0,0.0,0.0,0.0,1.6089,1.6901,1.689,1.6931,0.0,0.0,1.7387,1.7387,1.7387,1.7243,0.0,0.0,0.0,0.0,0.0,0.0,0.0,0.0,0.0,0.0,0.0,0.0,0.0,0.0,0.0,0.0,0.0,0.0,0.0,0.0,0.0,0.0,0.0,0.0,0.0,0.0,0.0,0.0,0.0,0.0,0.0,0.0,0.0,0.0,0.0,0.0,0.0,0.0,0.0,0.0,0.0,0.0,0.0,0.0,0.0,0.0,0.0,0.0,0.0,0.0,0.0,0.0,0.0,0.0,0.0,1.5014,1.6044,1.6764,1.7132,1.7679,1.7865,1.7653,1.7018,1.6396,0.0,0.0,0.0,0.0,0.0,0.0,0.0,0.0,0.0,0.0,0.0,0.0,0.0,0.0,0.0,0.0,0.0,0.0,0.0,0.0,0.0,0.0,0.0,0.0,0.0,0.0,0.0,0.0,0.0,0.0,0.0,0.0,0.0,0.0,0.0,0.0,0.0,0.0,0.0,0.0,0.0,1.6925,1.6987,1.7205,1.7363,0.0,0.0,1.7387,1.7399,1.7399,1.7339,1.7193,0.0,0.0,0.0,0.0,0.0,0.0,0.0,0.0,0.0,0.0,0.0,0.0,0.0,0.0,0.0,0.0,0.0,0.0,0.0,0.0,0.0,0.0,0.0,0.0,0.0,0.0,0.0,0.0,0.0,0.0,0.0,0.0,0.0,0.0,0.0,0.0,0.0,0.0,0.0,0.0,0.0,0.0,0.0,0.0,0.0,0.0,0.0,0.0,0.0,0.0,0.0,0.0,0.0,1.5152,1.5972,1.6703,1.7327,1.7805,1.8332,1.84,1.7938,1.7647,1.7065,0.0,0.0,0.0,0.0,0.0,0.0,0.0,0.0,0.0,0.0,0.0,0.0,0.0,0.0,0.0,0.0,0.0,0.0,0.0,0.0,0.0,0.0,0.0,0.0,0.0,0.0,0.0,0.0,1.4545,1.4734,1.4589,0.0,0.0,0.0,0.0,0.0,0.0,0.0,0.0,0.0,0.0,1.7578,1.7837,1.7896,0.0,0.0,1.8398,1.8386,1.8386,1.8309,1.8136,1.7763,1.7539,0.0,0.0,0.0,0.0,0.0,0.0,0.0,0.0,0.0,0.0,0.0,0.0,0.0,0.0,0.0,0.0,0.0,0.0,0.0,0.0,0.0,0.0,0.0,0.0,0.0,0.0,0.0,0.0,0.0,0.0,0.0,0.0,0.0,0.0,0.0,0.0,0.0,0.0,0.0,0.0,0.0,0.0,0.0,0.0,0.0,0.0,0.0,0.0,0.0,0.0,0.0,0.0,1.5604,1.6664,1.7231,1.7775,1.8307,1.8828,1.8872,1.8381,1.8163,1.7657,0.0,0.0,0.0,0.0,0.0,0.0,0.0,0.0,0.0,0.0,0.0,0.0,0.0,0.0,0.0,0.0,0.0,0.0,0.0,0.0,0.0,0.0,0.0,0.0,0.0,0.0,0.0,0.0,1.5238,1.548,1.544,0.0,0.0,0.0,0.0,0.0,0.0,0.0,0.0,0.0,0.0,1.8068,1.8358,1.8426,1.8639,1.9169,1.92,1.916,1.9174,1.9051,1.8751,1.8204,0.0,0.0,0.0,0.0,0.0,0.0,0.0,0.0,0.0,0.0,0.0,0.0,0.0,0.0,0.0,0.0,0.0,0.0,0.0,0.0,0.0,0.0,0.0,0.0,0.0,0.0,0.0,0.0,0.0,0.0,0.0,0.0,0.0,0.0,0.0,0.0,0.0,0.0,0.0,0.0,0.0,0.0,0.0,0.0,0.0,0.0,0.0,0.0,0.0,0.0,0.0,0.0,0.0,1.5745,1.6802,1.7469,1.8056,1.8596,1.9112,1.9329,1.9159,1.8533,1.813,1.7943,0.0,0.0,0.0,0.0,0.0,0.0,0.0,0.0,0.0,0.0,0.0,0.0,0.0,0.0,0.0,0.0,0.0,0.0,0.0,0.0,0.0,0.0,0.0,0.0,0.0,0.0,1.5509,1.5496,1.5662,0.0,0.0,0.0,0.0,0.0,0.0,0.0,0.0,0.0,0.0,1.8216,1.8395,1.8419,1.8727,1.9179,1.9698,1.9618,1.9521,1.9573,1.9419,1.909,0.0,0.0,0.0,0.0,0.0,0.0,0.0,0.0,0.0,0.0,0.0,0.0,0.0,0.0,0.0,0.0,0.0,0.0,0.0,0.0,0.0,0.0,0.0,0.0,0.0,0.0,0.0,1.4816,1.4715,0.0,0.0,0.0,0.0,0.0,0.0,0.0,0.0,0.0,0.0,0.0,1.4884,1.4884,0.0,0.0,0.0,0.0,0.0,0.0,0.0,0.0,0.0,0.0,0.0,0.0,1.6746,1.7468,1.8032,1.8597,1.91,1.9296,1.9381,1.9328,1.9118,1.8761,1.8282,0.0,0.0,0.0,0.0,0.0,0.0,0.0,0.0,0.0,0.0,0.0,0.0,0.0,0.0,0.0,0.0,0.0,0.0,0.0,0.0,0.0,0.0,0.0,0.0,0.0,1.6241,0.0,0.0,0.0,0.0,0.0,0.0,0.0,0.0,0.0,0.0,0.0,1.8264,1.8265,1.8957,1.9437,1.9344,1.9627,1.9938,0.0,0.0,0.0,0.0,0.0,0.0,0.0,0.0,0.0,0.0,0.0,0.0,0.0,0.0,1.7476,1.6301,1.6004,1.5928,1.5928,0.0,0.0,0.0,0.0,0.0,0.0,0.0,0.0,0.0,0.0,0.0,0.0,0.0,0.0,0.0,0.0,1.5668,0.0,0.0,0.0,0.0,0.0,0.0,0.0,0.0,1.5482,1.5663,1.603,1.6053,1.6042,0.0,1.6042,1.6044,0.0,0.0,0.0,0.0,0.0,0.0,0.0,0.0,1.7425,1.8129,1.8549,1.9006,1.9514,1.9526,1.9512,1.946,1.942,1.9111,1.8484,1.7715,1.7121,0.0,0.0,0.0,0.0,0.0,0.0,0.0,0.0,0.0,0.0,0.0,0.0,0.0,0.0,0.0,0.0,0.0,0.0,0.0,0.0,0.0,0.0,0.0,1.7162,0.0,0.0,0.0,0.0,0.0,0.0,0.0,0.0,0.0,1.7815,1.8487,1.9004,1.8967,1.9637,2.0083,1.9975,0.0,0.0,0.0,0.0,0.0,0.0,0.0,1.9917,1.9674,1.9436,1.9276,1.9227,1.9014,1.8804,1.8728,0.0,0.0,1.7123,1.6806,1.6697,1.671,1.6598,1.6489,1.6516,1.6871,1.7184,0.0,0.0,0.0,0.0,0.0,0.0,0.0,0.0,1.6008,1.5913,0.0,1.5787,0.0,0.0,0.0,0.0,0.0,0.0,0.0,0.0,1.655,1.7114,1.8117,1.8129,1.8167,1.818,1.8142,1.8129,1.8067,1.6572,0.0,0.0,0.0,0.0,0.0,0.0,1.7776,1.8759,1.8946,1.9271,1.9786,1.9798,1.9746,1.9591,1.9473,1.9162,1.867,1.8597,1.8118,1.7098,1.7012,0.0,0.0,0.0,0.0,0.0,0.0,0.0,0.0,0.0,0.0,0.0,0.0,0.0,0.0,0.0,0.0,0.0,0.0,0.0,0.0,1.7948,0.0,0.0,0.0,0.0,0.0,0.0,0.0,0.0,0.0,0.0,1.8883,1.919,1.9561,1.9949,0.0,0.0,0.0,0.0,2.0317,2.084,2.0732,2.0549,2.0458,2.0338,2.0014,1.9354,0.0,0.0,1.9031,1.8883,1.8775,1.8537,1.8593,1.8531,1.874,1.8503,1.8298,1.8298,1.8155,1.817,1.815,1.7922,1.7878,2.0503,0.0,0.0,0.0,0.0,1.8544,1.8438,1.8342,1.8216,1.8143,1.8087,1.7889,0.0,0.0,0.0,0.0,0.0,0.0,1.7448,1.7714,1.7703,1.7878,1.8192,1.8192,1.8192,1.8192,1.8192,1.8192,1.8179,1.7727,1.75,1.7488,0.0,0.0,0.0,0.0,1.8645,1.8946,1.9346,1.9635,1.9798,1.9811,1.9773,1.9747,1.9617,1.9464,1.9316,1.8856,1.8449,1.8154,1.7405,0.0,0.0,0.0,0.0,0.0,0.0,0.0,0.0,0.0,0.0,0.0,0.0,0.0,0.0,0.0,0.0,0.0,0.0,0.0,1.8592,1.877,1.8785,0.0,0.0,0.0,0.0,0.0,0.0,0.0,0.0,0.0,2.0335,2.0038,1.9934,0.0,0.0,2.0855,2.0739,2.0814,2.0935,2.1089,0.0,0.0,0.0,2.1075,2.1094,2.1224,2.1141,2.0924,2.0645,2.0577,2.0482,2.0279,2.0256,2.0273,2.0238,1.9185,1.8338,1.8253,1.8104,1.7997,1.7992,1.8119,1.8275,2.237,2.1348,2.0682,2.033,2.0143,2.0064,1.9836,1.9555,1.9383,1.9171,1.8924,1.8717,1.8624,1.8599,1.8508,0.0,0.0,0.0,1.843,1.8819,1.8832,1.907,1.9497,1.951,1.951,1.9497,1.9296,1.9196,1.9196,1.8945,1.8819,1.8807,0.0,0.0,1.8518,1.8832,1.9108,1.9334,1.9622,1.9811,1.9811,1.9811,1.9811,1.9798,1.9734,1.9682,1.9682,1.9306,1.8995,1.8759,1.814,1.7728,0.0,0.0,0.0,0.0,0.0,0.0,0.0,0.0,0.0,0.0,0.0,1.7006,1.7309,0.0,0.0,0.0,1.8967,1.8979,1.9169,1.9383,0.0,0.0,0.0,0.0,0.0,0.0,0.0,2.0347,2.0521,2.075,2.1063,2.0904,2.072,2.0626,2.1143,2.1479,2.1323,0.0,2.1652,2.1558,2.1389,2.1308,2.1525,2.1564,2.1602,2.1741,2.1692,2.1518,2.1231,2.1189,2.1118,2.0949,2.0896,2.085,2.0772,1.9819,1.9117,1.9166,1.903,1.8906,1.89,1.9052,1.9155,2.3392,2.3257,2.2098,2.1436,2.1117,2.0993,2.0628,2.0154,1.9912,1.948,1.8965,1.8811,1.8765,1.8741,1.8682,0.0,0.0,1.8468,1.9007,1.9924,1.9936,2.0489,2.1482,2.1468,2.1481,2.1469,2.0993,2.0754,2.073,2.0174,1.991,1.9886,1.892,1.8645,1.9033,1.9058,1.9296,1.9773,1.9798,1.9836,1.9887,1.9887,1.9874,1.9874,1.9823,1.9811,1.9798,1.9811,1.9585,1.9096,1.9033,1.8782,1.828,0.0,0.0,0.0,0.0,0.0,0.0,0.0,0.0,0.0,0.0,0.0,0.0,0.0,0.0,0.0,1.9838,0.0,1.9526,2.0045,0.0,0.0,0.0,2.1446,2.1207,2.159,2.1731,2.1334,0.0,0.0,0.0,0.0,2.1803,2.1283,2.1799,2.2166,2.1951,2.215,2.2297,2.2041,2.2034,2.197,2.183,2.1826,2.1787,2.1531,2.1385,2.1374,2.119,2.1154,2.1023,2.0883,2.0795,2.077,2.0552,2.0524,2.057,2.0714,2.0535,2.0341,2.0268,2.0261,2.0172,2.5061,2.4648,2.3817,2.2985,2.2207,2.2022,2.1811,2.1588,2.1415,2.1271,2.1116,2.101,2.0903,2.0783,2.0769,2.0755,2.0716,2.0728,2.0854,2.1093,2.1091,2.1256,2.1481,2.1481,2.1481,2.1495,2.1369,2.1306,2.1294,2.1018,2.086,2.0848,2.0516,2.0086,1.9622,1.961,1.9673,1.9811,1.9811,2.0024,2.0478,2.0478,2.0478,2.0478,2.005,1.9811,1.9811,1.9811,1.9748,1.961,1.9208,1.8957,1.8819,1.8305,0.0,0.0,0.0,0.0,0.0,0.0,0.0,0.0,0.0,1.8964,1.9277,0.0,1.9669,0.0,2.1044,2.1473,2.1299,2.173,0.0,0.0,2.1901,2.1895,2.1733,2.1738,2.1798,2.1884,2.2088,2.229,2.2498,2.2737,2.2714,2.2328,2.2401,2.2444,2.2304,2.2059,2.1941,2.1877,2.1701,2.1596,2.1908,2.2131,2.2236,2.2157,2.2136,2.2073,2.1868,2.1831,2.1775,2.157,2.1551,2.1514,2.1455,2.1457,2.1466,2.148,2.0946,2.0374,2.0374,2.0298,2.0173,2.5754,2.5422,2.494,2.4372,2.3746,2.3154,2.2707,2.2419,2.2265,2.2068,2.1812,2.1662,2.1564,2.1493,2.1481,2.1481,2.1481,2.1481,2.1619,2.1857,2.1857,2.1983,2.2207,2.2147,2.2118,2.2106,2.1798,2.1631,2.1617,2.1283,2.1117,2.1103,2.1031,2.0777,2.0362,2.0378,2.0431,2.0419,2.0525,2.0716,2.1043,2.1056,2.1042,2.1043,2.0502,2.0201,2.0214,1.9936,1.9811,1.9798,1.9535,1.9346,1.9346,1.8845,1.8652,0.0,0.0,0.0,0.0,0.0,0.0,0.0,0.0,0.0,0.0,0.0,2.0814,0.0,2.218,0.0,2.2325,2.2485,2.2536,2.2428,2.2458,2.2538,2.2642,2.2669,2.2784,2.3056,2.3072,2.3079,2.304,2.3171,2.3179,2.2868,2.2875,2.2809,2.2546,2.2371,2.23,2.2222,2.1981,2.1875,2.2143,2.2307,2.2365,2.2289,2.2252,2.2206,2.2006,2.1968,2.1921,2.1826,2.1788,2.1788,2.1788,2.1788,2.1769,2.1631,2.1254,2.0954,2.0894,2.0802,2.0691,2.6007,2.5806,2.5541,2.5386,2.5182,2.4167,2.349,2.3072,2.2927,2.2589,2.2079,2.1979,2.1922,2.1922,2.192,2.1934,2.192,2.192,2.2157,2.2564,2.2579,2.279,2.3132,2.3036,2.2938,2.2838,2.2218,2.1923,2.1911,2.1415,2.1182,2.1168,2.1154,2.1154,2.1154,2.1284,2.1296,2.1216,2.1444,2.1592,2.1594,2.1608,2.1594,2.1583,2.1094,2.0805,2.0779,2.0226,1.9911,1.9911,1.9836,1.9811,1.9798,1.9359,1.9232,0.0,1.9131,0.0,0.0,0.0,0.0,0.0,0.0,0.0,0.0,2.129,2.2077,2.3094,2.3124,2.3031,2.2897,2.2895,2.2864,2.2753,2.3054,2.3439,2.3767,2.3917,2.405,2.4271,2.3996,2.3666,2.3332,2.3387,2.341,2.3167,2.317,2.3047,2.272,2.2761,2.2813,2.2684,2.255,2.241,2.2404,2.2467,2.2484,2.231,2.223,2.2091,2.1979,2.1859,2.1788,2.1788,2.1788,2.1788,2.1769,2.175,2.1693,2.1512,2.1404,2.1392,2.1392,2.1335,2.1301,2.6359,2.5984,2.5355,2.5097,2.5023,2.4709,2.4586,2.4567,2.445,2.4324,2.4208,2.4192,2.4164,2.4192,2.4177,2.4164,2.4177,2.4177,2.4148,2.4092,2.4076,2.3843,2.3448,2.3404,2.317,2.2748,2.2597,2.2545,2.2518,2.2271,2.2147,2.2116,2.2025,2.1961,2.1976,0.0,0.0,0.0,2.1704,2.2041,2.2144,2.2159,2.2146,2.2146,2.1619,0.0,2.1331,2.0816,2.0528,2.0515,2.0062,0.0,0.0,0.0,0.0,0.0,0.0,0.0,0.0,0.0,0.0,0.0,2.2205,2.2082,2.1983,2.2524,2.2919,2.303,2.3352,2.3483,2.3303,2.4059,2.4536,2.4519,2.4704,2.4902,2.4958,2.4633,2.4372,2.4292,2.4323,2.4152,2.3711,2.3877,2.3829,2.3349,2.315,2.2968,2.2747,2.2756,2.2684,2.2518,2.2639,2.2648,2.2512,2.2784,2.2991,2.2954,2.2653,2.2426,2.2365,2.2056,2.1828,2.183,2.1788,2.1762,2.1628,2.1559,2.1554,2.1321,2.1283,2.1263,2.1263,2.1138,2.1003,2.6662,0.0,2.5991,2.5806,0.0,2.5669,2.5686,2.5702,2.5075,2.4816,2.4816,2.4816,2.4816,2.4788,2.4707,2.4646,2.4646,2.4549,2.4455,2.4345,2.4357,2.416,2.3838,2.3786,2.3607,2.3334,2.3175,2.295,2.2692,2.2483,2.2285,2.2073,2.1995,2.1995,2.2046,2.2204,2.2183,2.1945,2.2318,2.2528,2.2605,2.2664,2.2694,2.2684,0.0,0.0,0.0,0.0,0.0,0.0,0.0,0.0,0.0,0.0,0.0,2.1026,2.1322,2.1623,2.1942,2.2284,2.2563,2.2791,2.3151,2.3286,2.3096,2.3379,2.373,2.4141,2.4361,2.4524,2.4685,2.5116,2.5378,2.527,2.5269,2.5333,2.5391,2.5061,2.4808,2.4779,2.4701,2.4466,2.4018,2.389,2.3797,2.3544,2.3324,2.3183,2.3088,2.2902,2.2741,2.279,2.2893,2.2971,2.2893,2.2998,2.3194,2.3153,2.2987,2.2873,2.2852,2.2646,2.2451,2.2343,2.2303,2.2224,2.2027,2.1998,2.1918,2.174,2.17,2.166,2.1561,2.1194,2.0927,2.679,2.6594,2.6589,2.6474,2.6396,2.6396,2.6383,2.6333,0.0,0.0,0.0,2.4994,2.5007,2.4978,2.4834,2.4752,2.4723,2.4575,2.4463,2.4385,2.4385,2.4303,2.4168,2.4064,2.3961,2.3848,2.3594,2.3219,2.2804,2.2629,2.2364,2.2004,2.1969,2.1969,2.2005,2.2082,2.2278,2.2555,2.2757,2.2894,2.2911,2.3032,2.3095,2.3095,2.2671,2.2445,2.2433,2.192,2.1658,2.1631,2.1543,2.1481,2.1481,2.1481,2.1606,2.1871,2.2001,2.2203,2.253,2.2744,2.2973,2.3216,2.3806,2.4172,2.4186,2.4172,2.4529,2.542,2.5393,2.55,2.5928,2.5963,2.5889,2.5687,2.5618,2.5644,2.5699,2.5438,2.5257,2.5263,2.4945,2.4627,2.4308,2.3916,2.3645,2.3725,2.3554,2.3452,2.3424,2.3133,2.2946,2.3109,2.3194,2.3237,2.3247,2.3299,2.3309,2.334,2.3248,2.3206,2.3196,2.3134,2.2981,2.2707,2.2757,2.2635,2.2462,2.2371,2.238,2.2184,2.2143,2.2102,2.1909,2.1429,2.1085,2.6388,2.6253,2.6084,2.6015,2.598,2.5985,2.5997,2.5985,2.5975,2.5994,2.5994,2.5827,2.5758,2.5746,2.5724,2.5711,2.5706,2.5677,2.5474,0.0,2.5153,2.4739,2.4045,2.4011,2.3745,2.3339,2.3277,2.3201,2.3142,2.3097,2.3045,2.2975,2.2986,2.2768,2.2349,2.2072,2.1968,2.203,2.2491,2.279,2.291,2.3022,2.3095,2.3095,2.3032,2.2995,2.2982,2.247,2.2196,2.2184,2.1744,2.1481,2.1493,2.1506,2.162,2.1897,2.2373,2.2796,2.309,2.3576,2.4173,2.481,2.5062,2.5247,2.535,2.5249,2.5394,2.5847,2.5908,2.586,2.5882,2.6284,2.6492,2.6304,2.6556,2.6654,2.6297,2.5961,2.5645,2.5354,2.4856,2.4583,2.4476,2.4053,2.3809,2.393,2.3755,2.351,2.3495,2.3289,2.3163,2.3225,2.3351,2.3442,2.3472,2.3609,2.3646,2.3714,2.3423,2.3243,2.3243,2.299,2.2756,2.2573,2.2644,2.2542,2.2347,2.2246,2.2243,2.2107,2.2065,2.2025,2.1992,2.1662,2.1451,2.6089,2.6032,2.5945,2.5923,2.5923,2.5923,2.5923,2.5893,2.5776,2.5828,2.6015,2.5928,2.5923,2.5893,2.5671,2.5571,2.5571,2.5371,2.5194,2.5046,2.5028,2.4838,2.4455,2.4307,2.4155,2.3898,2.3694,2.3438,2.315,2.3052,2.284,2.2634,2.2781,2.2755,2.2523,2.2566,2.2531,2.234,2.2457,2.2625,2.2792,2.2932,2.3017,2.3095,2.3095,2.3095,2.3095,2.2869,2.2732,2.2719,2.2493,2.2357,2.237,2.2357,2.2503,2.2804,2.309,2.3504,2.4137,2.4773,2.5281,2.5592,2.5695,2.5888,2.6284,2.5943,2.5902,2.6314,2.6393,2.6492,2.6697,2.6905,2.6959,2.6756,2.671,2.6639,2.6549,2.6234,2.5913,2.5684,2.5389,2.4975,2.4551,2.4243,2.4075,2.4126,2.396,2.3823,2.3679,2.358,2.3532,2.3531,2.3609,2.3637,2.3646,2.3743,2.3787,2.3797,2.3668,2.3538,2.3517,2.3285,2.3163,2.3047,2.3026,2.2951,2.2719,2.2696,2.2644,2.2611,2.2547,2.2526,2.2398,2.2098,2.1764,2.5676,2.5706,2.5671,2.5648,2.5665,2.5665,2.5648,2.56,2.5318,2.5359,2.563,2.5648,2.5665,2.563,2.5306,2.5182,2.5147,2.4885,2.4718,2.4664,2.4628,2.4562,2.452,2.4363,2.4309,2.4273,2.3982,2.3632,2.3228,2.3039,2.2807,2.249,2.2581,2.2668,2.272,2.2957,2.2952,2.2763,2.2669,2.2639,2.2647,2.2808,2.2957,2.3032,2.3093,2.3095,2.3095,2.3095,2.3095,2.3095,2.3095,2.3095,2.3108,2.3233,2.3447,2.3761,2.3921,2.4328,2.5103,2.5656,2.6004,2.6164,2.6164,2.6401,2.6917,2.6624,2.6485,2.6811,2.6886,2.7053,2.7335,2.7486,2.7361,2.7071,2.691,2.6823,2.6729,2.6469,2.6158,2.5988,2.5762,2.5328,2.4763,2.4478,2.4351,2.4211,2.4163,2.4013,2.3797,2.3732,2.3721,2.3667,2.3689,2.3712,2.3732,2.3636,2.3624,2.3646,2.3614,2.3562,2.3562,2.3604,2.356,2.3359,2.3367,2.3262,2.3137,2.3084,2.3064,2.3013,2.2972,2.2899,2.2595,2.2221,2.1896,2.5075,2.507,2.4992,2.4897,2.4945,2.4915,2.4927,2.4915,2.4849,2.4861,2.4897,2.4909,2.4915,2.4897,2.4849,2.4843,2.4807,2.4616,2.4418,2.4236,2.4061,2.3879,2.3751,2.3714,2.3696,2.3677,2.3622,2.3522,2.3455,2.3467,2.3474,2.3402,2.301,2.2857,2.3,2.28,2.2742,2.2886,2.3231,2.3075,2.2494,2.2744,2.2921,2.2936,2.3045,2.3095,2.317,2.3095,2.3108,2.3095,2.3133,2.312,2.317,2.3625,2.4071,2.4397,2.4874,2.5334,2.5683,2.5782,2.6101,2.6578,2.6644,2.6879,2.7353,2.7379,2.735,2.7385,2.7385,2.7375,2.7374,2.7708,2.7751,2.7316,2.7552,2.7673,2.7045,2.6844,2.6567,2.58,2.5636,2.5318,2.5031,2.4681,2.4388,2.4173,2.3974,2.3786,2.3569,2.3515,2.346,2.3288,2.3363,2.3503,2.3503,2.3319,2.3266,2.321,2.3188,2.3232,2.3244,2.3222,2.3144,2.3232,2.3157,2.3166,2.3144,2.3101,2.3101,2.3035,2.2925,2.2693,2.2274,2.1941,2.1708,2.4873,2.4873,2.4825,2.4819,2.4801,2.4682,2.4628,2.461,2.4375,2.4273,2.4255,2.4146,2.4291,2.461,2.4363,2.4273,2.4255,2.4043,2.3934,2.3842,2.3769,2.3611,2.3427,2.3298,2.3187,2.3046,2.2945,2.2908,2.2889,2.2889,2.2964,2.3065,2.2959,2.3017,2.3206,2.3322,2.3318,2.3217,2.3594,2.3549,2.3167,2.3484,2.3755,2.3862,2.4004,2.4114,2.4114,2.4114,2.4098,2.4111,2.4111,2.4098,2.4098,2.434,2.464,2.4971,2.5709,2.6193,2.6321,2.6618,2.6902,2.717,2.7183,2.7271,2.7464,2.7503,2.7503,2.7503,2.7436,2.7469,2.7734,2.7803,2.7779,2.7713,2.7661,2.7513,2.7437,2.69,2.6507,2.6382,2.5977,2.5554,2.5172,2.4672,2.4258,2.4003,2.3776,2.3537,2.3329,2.3276,2.32,2.3144,2.321,2.3254,2.3254,2.3188,2.3123,2.3101,2.3101,2.3101,2.3101,2.3101,2.3101,2.3101,2.3101,2.3101,2.3123,2.3101,2.3079,2.2925,2.2596,2.2274,2.1941,2.1696,2.1472,2.4472,2.4454,2.4454,2.4465,2.4454,2.4298,2.4255,2.4207,2.3879,2.3732,2.3714,2.3464,2.3574,2.3952,2.3861,2.3787,2.3703,2.353,2.339,2.3364,2.3298,2.3205,2.3038,2.2908,2.2759,2.2628,2.2496,2.2421,2.2392,2.2392,2.2478,2.2628,2.2759,2.2983,2.3224,2.3519,2.3625,2.3577,2.3874,2.3979,2.3936,2.4316,2.4533,2.4472,2.4613,2.4755,2.4816,2.4816,2.4816,2.4804,2.4816,2.4816,2.4816,2.4929,2.5243,2.5765,2.6482,2.6925,2.6925,2.7284,2.7503,2.7503,2.7503,2.7503,2.7503,2.7503,2.7473,2.7449,2.7415,2.7627,2.7898,2.7857,2.7866,2.8082,2.7746,2.762,2.758,2.6984,2.6611,2.6597,2.612,2.5665,2.5084,2.4476,2.4013,2.3754,2.3537,2.3341,2.3166,2.3123,2.3113,2.3101,2.3101,2.3123,2.3101,2.3123,2.3101,2.3101,2.3101,2.3101,2.3101,2.3101,2.3101,2.3101,2.3101,2.3101,2.3069,2.3079,2.2882,2.2618,2.2287,2.1919,2.1674,2.1405,2.1069,2.3677,2.3666,2.3648,2.3677,2.3641,2.3641,2.3648,2.3611,2.339,2.3316,2.3261,2.2927,2.2777,2.2871,2.3353,2.3501,2.3309,2.3113,2.2945,2.2759,2.259,2.2478,2.244,2.2411,2.2421,2.2394,2.2346,2.2354,2.2384,2.2384,2.2392,2.2432,2.244,2.2647,2.2945,2.3068,2.3324,2.3745,2.4024,2.4337,2.4672,2.5027,2.4912,2.4451,2.4476,2.4701,2.4834,2.4842,2.4842,2.4829,2.4879,2.4867,2.4879,2.531,2.5983,2.6772,2.7241,2.7438,2.7441,2.7477,2.7503,2.7503,2.7503,2.7503,2.7503,2.7503,2.7453,2.7332,2.7571,2.7772,2.7856,2.8012,2.8132,2.8271,2.8356,2.8084,2.7562,2.7183,2.6762,2.6188,2.5864,2.5433,2.4647,2.41,2.3786,2.3547,2.3297,2.3123,2.3113,2.3101,2.3101,2.3101,2.3101,2.3101,2.3101,2.3101,2.3101,2.3101,2.3101,2.3101,2.3101,2.3101,2.3101,2.3101,2.3101,2.3101,2.3047,2.2872,2.2574,2.2287,2.1985,2.1651,2.136,2.0992,2.0677,2.3224,2.3205,2.3224,2.3224,2.3205,2.3075,2.3038,2.302,2.2826,2.2721,2.2703,2.2572,2.2496,2.2534,2.2721,2.2796,2.274,2.2647,2.2561,2.2496,2.244,2.2327,2.2225,2.2214,2.2138,2.2025,2.2006,2.2006,2.2035,2.2006,2.2082,2.2195,2.2195,2.2346,2.2609,2.2871,2.3113,2.3364,2.3868,2.4273,2.4454,2.4909,2.5072,2.4985,2.5371,2.5617,2.5702,2.5824,2.5891,2.5891,2.5879,2.5879,2.5921,2.627,2.6629,2.6969,2.7302,2.7503,2.7503,2.7503,2.7503,2.7503,2.7503,2.7503,2.7503,2.7503,2.7453,2.7389,2.7601,2.7833,2.8019,2.823,2.8435,2.84,2.8176,2.7854,2.7328,2.6766,2.6218,2.5874,2.5412,2.4807,2.439,2.3916,2.358,2.3503,2.3276,2.3123,2.3101,2.3101,2.3101,2.3101,2.3101,2.3101,2.3101,2.3101,2.3101,2.3101,2.3101,2.3101,2.3101,2.3101,2.3101,2.3057,2.3079,2.2969,2.2882,2.2552,2.2252,2.1954,2.1651,2.1307,2.1015,2.0677,2.0382,2.2647,2.2703,2.2721,2.2759,2.2767,2.259,2.2515,2.2459,2.2214,2.213,2.2082,2.2044,2.2006,2.2016,2.2006,2.2016,2.2025,2.213,2.2157,2.2111,2.2025,2.1949,2.1826,2.1807,2.1721,2.1636,2.1598,2.1617,2.1617,2.1598,2.1722,2.1902,2.1902,2.2054,2.2308,2.2572,2.2777,2.3057,2.3549,2.3916,2.42,2.4658,2.5004,2.5259,2.5741,2.6079,2.6196,2.6379,2.6487,2.6487,2.6487,2.6487,2.6521,2.6743,2.6943,2.7011,2.7281,2.7456,2.7503,2.7503,2.7503,2.7503,2.7503,2.7503,2.7503,2.7469,2.7369,2.73,2.7446,2.7708,2.79,2.8138,2.8348,2.8358,2.7975,2.7479,2.7115,2.6373,2.5833,2.5391,2.4839,2.4347,2.4024,2.3699,2.3493,2.3416,2.321,2.3123,2.3101,2.3101,2.3101,2.3101,2.3101,2.3101,2.3101,2.3101,2.3101,2.3101,2.3101,2.3101,2.3101,2.3101,2.3079,2.3035,2.2925,2.2816,2.2583,2.223,2.1919,2.1629,2.1307,2.0992,2.0677,2.0382,2.0065,2.1911,2.2092,2.2101,2.2176,2.2308,2.2149,2.2063,2.2006,2.1683,2.1559,2.1559,2.1359,2.134,2.1263,2.134,2.1263,2.1359,2.1636,2.1693,2.154,2.1368,2.1301,2.1292,2.1301,2.1311,2.1273,2.1234,2.1234,2.1273,2.1263,2.1359,2.1493,2.154,2.175,2.2092,2.2157,2.2421,2.2852,2.3057,2.3457,2.4098,2.4418,2.4706,2.5087,2.5459,2.5793,2.6179,2.6391,2.6482,2.6487,2.6487,2.6487,2.6504,2.6641,2.6807,2.6994,2.7214,2.7339,2.7486,2.7503,2.7503,2.7503,2.7503,2.7503,2.7473,2.7373,2.7248,2.7105,2.7199,2.7381,2.7533,2.7671,2.7921,2.8303,2.7704,2.7156,2.6809,2.6271,2.5538,2.4754,2.4325,2.4012,2.3655,2.3482,2.3363,2.32,2.3113,2.3101,2.3101,2.3101,2.3101,2.3101,2.3101,2.3101,2.3101,2.3101,2.3101,2.3101,2.3101,2.3101,2.3101,2.3101,2.3013,2.2947,2.2706,2.2583,2.2252,2.1896,2.1584,2.1293,2.0947,2.0631,2.03,1.9982,1.9723,2.1425,2.1493,2.1464,2.1512,2.1559,2.1502,2.1493,2.1474,2.134,2.1311,2.1282,2.1234,2.1215,2.1215,2.1215,2.1196,2.1215,2.1205,2.1224,2.1263,2.1224,2.1196,2.1196,2.1196,2.1215,2.1215,2.1215,2.1196,2.1196,2.1196,2.1244,2.1301,2.1436,2.157,2.1712,2.1959,2.2289,2.2572,2.2871,2.3261,2.3758,2.4116,2.4478,2.4867,2.5218,2.5588,2.595,2.6201,2.6357,2.6469,2.6487,2.6487,2.6533,2.6624,2.6794,2.6994,2.7184,2.7339,2.7486,2.7503,2.7503,2.7503,2.7503,2.7503,2.7486,2.7369,2.7214,2.7045,2.7177,2.7363,2.7471,2.7468,2.7596,2.7787,2.733,2.6777,2.625,2.5475,2.4807,2.4378,2.3959,2.3677,2.3525,2.3373,2.321,2.3144,2.3101,2.3101,2.3101,2.3101,2.3101,2.3101,2.3101,2.3101,2.3101,2.3101,2.3101,2.3101,2.3101,2.3101,2.3101,2.3035,2.2947,2.2728,2.2517,2.223,2.1896,2.154,2.1203,2.0888,2.0541,2.0201,1.9876,1.9639,1.9402,2.078,2.0858,2.0858,2.0916,2.0954,2.0896,2.0906,2.0944,2.0896,2.0906,2.0964,2.0964,2.0974,2.0983,2.0974,2.0974,2.0954,2.0838,2.0858,2.0964,2.0983,2.0983,2.0964,2.0983,2.0993,2.0983,2.0964,2.0964,2.0983,2.0993,2.1012,2.1089,2.1224,2.1349,2.1493,2.1731,2.2006,2.2289,2.262,2.2953,2.339,2.3842,2.4291,2.467,2.5034,2.5442,2.5875,2.6015,2.6206,2.6448,2.6487,2.6487,2.6504,2.6589,2.6743,2.696,2.71,2.7268,2.7453,2.7503,2.7503,2.7503,2.7503,2.7503,2.7469,2.7319,2.7113,2.7054,2.6823,2.6955,2.7268,2.7131,2.7093,2.7261,2.6983,2.6447,2.5717,2.4967,2.4411,2.4088,2.3742,2.3493,2.3319,2.3232,2.3101,2.3101,2.3101,2.3101,2.3101,2.3101,2.3091,2.3091,2.3101,2.3101,2.3101,2.3101,2.3101,2.3101,2.3101,2.3101,2.3101,2.2991,2.286,2.2451,2.2141,2.1896,2.1571,2.1136,2.0776,2.0428,2.0133,1.9845,1.9579,1.9425,1.9212,2.0029,2.0264,2.0284,2.0401,2.0527,2.0372,2.0391,2.0508,2.0381,2.0391,2.0547,2.0557,2.0566,2.0566,2.0547,2.0537,2.0547,2.0557,2.0557,2.0586,2.0605,2.0625,2.0663,2.0663,2.0663,2.0644,2.0644,2.0625,2.0663,2.0673,2.0702,2.0858,2.0945,2.107,2.1359,2.1474,2.1702,2.2073,2.2308,2.2617,2.3038,2.3574,2.4109,2.4502,2.4873,2.5336,2.5823,2.598,2.6154,2.6435,2.6487,2.6487,2.6487,2.6487,2.6671,2.6956,2.699,2.7167,2.7403,2.7503,2.7503,2.7503,2.7503,2.7503,2.7469,2.7218,2.7041,2.6956,2.6411,2.6312,2.6833,2.6709,2.6589,2.6758,2.6571,2.6031,2.5285,2.4722,2.425,2.3862,2.3612,2.3373,2.3101,2.3047,2.3013,2.3003,2.2982,2.2969,2.296,2.2938,2.3025,2.3035,2.3035,2.3079,2.3057,2.3101,2.3101,2.2991,2.2991,2.2991,2.2947,2.2816,2.2596,2.2185,2.1807,2.1549,2.119,2.0776,2.0382,2.0065,1.9768,1.9502,1.9296,1.9127,1.9039,1.9813,2.0,2.0,2.004,2.0079,2.002,2.0029,2.0079,2.002,2.002,2.0089,2.0079,2.0118,2.0089,2.0099,2.0089,2.0108,2.0098,2.0225,2.0362,2.0352,2.0469,2.0566,2.0596,2.0596,2.0596,2.0596,2.0596,2.0596,2.0596,2.0625,2.0693,2.0819,2.0945,2.108,2.1359,2.1627,2.1902,2.2233,2.259,2.2983,2.3409,2.3952,2.4472,2.4754,2.5224,2.5846,2.6188,2.6366,2.6482,2.6487,2.6487,2.6487,2.6487,2.6602,2.676,2.6943,2.7096,2.7319,2.7453,2.7503,2.7503,2.7503,2.7503,2.7503,2.7197,2.7041,2.6875,2.6327,2.6062,2.6475,2.6426,2.6367,2.6294,2.5978,2.5411,2.4807,2.4272,2.3862,2.359,2.3242,2.3023,2.2882,2.274,2.264,2.2608,2.263,2.264,2.2674,2.2652,2.2696,2.2838,2.2891,2.2969,2.3035,2.3079,2.3057,2.2904,2.2847,2.2825,2.2693,2.2508,2.222,2.1852,2.1562,2.128,2.0843,2.0405,2.0065,1.9723,1.9471,1.9219,1.8974,1.8797,1.8816,1.93,1.9399,1.9399,1.9399,1.9399,1.939,1.9489,1.9627,1.9637,1.9745,1.9863,1.9893,1.9902,1.9902,1.9902,1.9902,1.9912,1.9912,1.999,2.0127,2.0245,2.0411,2.0547,2.0596,2.0596,2.0596,2.0596,2.0596,2.0596,2.0596,2.0596,2.0625,2.0712,2.0799,2.0955,2.1205,2.1483,2.1693,2.2063,2.244,2.2759,2.3224,2.3769,2.4309,2.4646,2.5147,2.5823,2.6206,2.6396,2.6482,2.6487,2.6487,2.6487,2.6487,2.6555,2.6696,2.6892,2.7092,2.7281,2.7419,2.749,2.7503,2.7503,2.7486,2.7386,2.7146,2.6977,2.6692,2.6223,2.6057,2.6081,2.6112,2.6086,2.6021,2.5538,2.5009,2.4561,2.411,2.3689,2.3373,2.3045,2.2737,2.2662,2.2485,2.2419,2.2419,2.2432,2.2441,2.2432,2.2397,2.2419,2.2561,2.2649,2.2706,2.275,2.2794,2.2794,2.2693,2.2495,2.2495,2.2384,2.2185,2.1896,2.1584,2.1302,2.0956,2.0527,2.011,1.9768,1.9471,1.9219,1.8966,1.8743,1.852,1.8543,1.862,1.868,1.868,1.868,1.874,1.8729,1.8951,1.9192,1.9231,1.941,1.9647,1.9744,1.9656,1.9765,1.9615,1.9734,1.9735,1.9695,1.9804,1.9922,2.0098,2.0313,2.0527,2.0586,2.0586,2.0596,2.0596,2.0596,2.0596,2.0596,2.0596,2.0605,2.0625,2.0693,2.0848,2.108,2.1263,2.1502,2.1854,2.2195,2.2534,2.3038,2.3604,2.4116,2.4706,2.5206,2.577,2.6114,2.6305,2.6487,2.6487,2.6487,2.6487,2.6487,2.6555,2.6675,2.6829,2.7028,2.7248,2.7369,2.7486,2.7503,2.7503,2.7423,2.7302,2.713,2.6863,2.6496,2.6112,2.5903,2.58,2.5757,2.5728,2.5705,2.5389,2.502,2.4497,2.4067,2.3624,2.3135,2.2882,2.264,2.2463,2.2353,2.2309,2.2132,2.2176,2.2154,2.2154,2.2154,2.222,2.2362,2.2407,2.2397,2.2441,2.2463,2.2441,2.2407,2.2128,2.2039,2.1985,2.1807,2.1593,2.1325,2.0979,2.0618,2.0209,1.9845,1.9525,1.9227,1.8943,1.8743,1.8543,1.8334,1.824,1.8112,1.8462,1.8462,1.8551,1.868,1.8709,1.874,1.8812,1.8832,1.8851,1.8951,1.8953,1.8953,1.898,1.8998,1.8958,1.9022,1.9161,1.934,1.9695,1.9892,2.0127,2.0352,2.0489,2.0586,2.0596,2.0596,2.0596,2.0596,2.0596,2.0596,2.0596,2.0605,2.0625,2.0693,2.0896,2.1061,2.1301,2.1655,2.2054,2.244,2.2964,2.3519,2.4043,2.4754,2.5377,2.5823,2.6097,2.6287,2.6448,2.6487,2.6487,2.6487,2.6487,2.6521,2.6572,2.6692,2.6863,2.7062,2.7264,2.7386,2.7503,2.7503,2.7423,2.7302,2.7113,2.6829,2.6457,2.6107,2.5826,2.5617,2.5321,2.5274,2.5284,2.5249,2.4882,2.4154,2.3852,2.3527,2.3013,2.264,2.2397,2.2207,2.1976,2.1909,2.1874,2.1865,2.1843,2.1887,2.1919,2.2008,2.2141,2.2097,2.2097,2.2109,2.2078,2.2011,2.1976,2.1763,2.1571,2.1517,2.145,2.1248,2.0956,2.0609,2.0246,1.9891,1.9585,1.9265,1.8989,1.872,1.8566,1.8357,1.8148,1.7938,1.7708,1.7919,1.7939,1.8,1.8089,1.8089,1.8149,1.8221,1.8241,1.8282,1.8371,1.8365,1.8373,1.8391,1.8509,1.856,1.8591,1.8752,1.9002,1.93,1.9528,1.9745,2.001,2.0294,2.0498,2.0576,2.0596,2.0596,2.0596,2.0596,2.0596,2.0596,2.0596,2.0605,2.0634,2.0799,2.0993,2.1205,2.1483,2.1902,2.2402,2.2889,2.3604,2.4225,2.4897,2.5412,2.5875,2.5992,2.6218,2.6413,2.6487,2.6487,2.6487,2.6487,2.6487,2.6504,2.6624,2.6794,2.6994,2.718,2.7339,2.7503,2.7503,2.7352,2.7218,2.7045,2.6722,2.6297,2.5987,2.5801,2.552,2.5199,2.5062,2.5087,2.5132,2.4787,2.4057,2.3797,2.3472,2.2838,2.2485,2.222,2.2008,2.1776,2.1731,2.1776,2.1776,2.1776,2.1754,2.1798,2.1798,2.1852,2.1785,2.1763,2.1807,2.1731,2.1535,2.1468,2.1342,2.1172,2.1069,2.1024,2.0925,2.0609,2.0314,1.9928,1.9571,1.9311,1.9058,1.8766,1.8551,1.8388,1.8195,1.7939,1.7744,1.7237,1.7241,1.7249,1.727,1.7282,1.7351,1.7493,1.7598,1.7639,1.7789,1.787,1.789,1.791,1.7959,1.8121,1.8259,1.8435,1.869,1.8973,1.9187,1.949,1.9648,1.9832,2.0103,2.0371,2.0547,2.0586,2.0596,2.0596,2.0596,2.0596,2.0596,2.0596,2.0596,2.0654,2.0761,2.0964,2.1186,2.1359,2.1788,2.2346,2.2833,2.3574,2.4562,2.4891,2.5336,2.577,2.5957,2.6102,2.6452,2.6487,2.6487,2.6487,2.6487,2.6487,2.6487,2.6607,2.6726,2.6909,2.7113,2.7302,2.7453,2.7469,2.7319,2.7083,2.6926,2.6589,2.6124,2.576,2.5558,2.5401,2.5028,2.4907,2.4976,2.5055,2.4703,2.4154,2.3841,2.3385,2.2662,2.2397,2.222,2.1932,2.1709,2.1709,2.1687,2.1687,2.1687,2.1687,2.1674,2.1651,2.1575,2.1495,2.1419,2.1454,2.1454,2.1266,2.1132,2.1019,2.0871,2.0722,2.0564,2.0473,2.0314,1.9996,1.9654,1.9379,1.9173,1.8905,1.8597,1.8388,1.8218,1.7985,1.7729,1.7557,1.6409,1.6558,1.6566,1.6669,1.6833,1.7057,1.7139,1.7212,1.7343,1.7473,1.7473,1.7493,1.7453,1.7502,1.7522,1.7794,1.8245,1.8666,1.906,1.9333,1.9659,1.989,1.9902,2.0054,2.0263,2.0371,2.0498,2.0566,2.0596,2.0596,2.0596,2.0596,2.0596,2.0596,2.0605,2.0663,2.0877,2.1157,2.1292,2.1655,2.2308,2.2889,2.3593,2.4664,2.4861,2.5242,2.5753,2.5928,2.6072,2.6435,2.6487,2.6487,2.6487,2.6487,2.6487,2.6504,2.6533,2.6624,2.6777,2.693,2.7146,2.7298,2.7335,2.7235,2.7028,2.6841,2.6504,2.595,2.5383,2.501,2.4937,2.4705,2.4594,2.466,2.4698,2.4577,2.4351,2.397,2.3472,2.2684,2.2441,2.2264,2.1976,2.1731,2.1687,2.1687,2.1687,2.1687,2.1687,2.1584,2.1482,2.136,2.1217,2.1141,2.1087,2.1087,2.1019,2.093,2.0794,2.0668,2.0473,2.0201,2.0019,1.9882,1.9745,1.9525,1.9273,1.9035,1.8766,1.8473,1.8264,1.8071,1.7791,1.7558,1.7457,1.6038,1.6224,1.6245,1.6286,1.6409,1.6512,1.6594,1.6594,1.6697,1.6726,1.6746,1.6746,1.6726,1.6786,1.7056,1.7506,1.8128,1.8529,1.893,1.9251,1.9508,1.9846,1.9972,2.0074,2.0219,2.0373,2.0478,2.0528,2.0596,2.0596,2.0596,2.0596,2.0596,2.0596,2.0615,2.0605,2.0838,2.1119,2.1254,2.1618,2.2405,2.2986,2.3865,2.452,2.4855,2.52,2.5748,2.5923,2.6102,2.6401,2.6487,2.6487,2.6487,2.6487,2.6487,2.6487,2.6487,2.6555,2.6675,2.6811,2.693,2.7113,2.7146,2.7045,2.6909,2.6726,2.6422,2.5881,2.5259,2.4819,2.4825,2.4481,2.4468,2.4607,2.4577,2.4513,2.4416,2.4058,2.3493,2.2838,2.2564,2.2331,2.203,2.1852,2.1731,2.1687,2.1709,2.1687,2.1687,2.1517,2.1347,2.1159,2.0992,2.0781,2.069,2.0668,2.0645,2.06,2.051,2.0382,2.0224,1.9936,1.97,1.954,1.9402,1.9296,1.9066,1.8789,1.8589,1.8357,1.8102,1.7838,1.7597,1.741,1.7333,1.5609,1.581,1.581,1.5859,1.5901,1.5955,1.5984,1.6017,1.6108,1.6157,1.6115,1.6136,1.6187,1.6348,1.684,1.7412,1.8021,1.8297,1.8745,1.9038,1.9387,1.9748,1.9974,2.0198,2.0308,2.0589,2.0653,2.0507,2.0586,2.0596,2.0596,2.0596,2.0596,2.0596,2.0596,2.0596,2.0867,2.119,2.1355,2.18,2.2706,2.3503,2.4179,2.4816,2.4913,2.526,2.5748,2.5875,2.6067,2.6327,2.6465,2.6487,2.6487,2.6487,2.6487,2.6487,2.6487,2.6568,2.6624,2.6696,2.6794,2.6943,2.6926,2.6841,2.6709,2.6555,2.6297,2.5823,2.5236,2.4736,2.462,2.4341,2.4368,2.4563,2.4522,2.4418,2.4492,2.4282,2.3797,2.3254,2.2806,2.2454,2.222,2.1985,2.1896,2.1807,2.1807,2.1709,2.1664,2.1396,2.1172,2.097,2.0744,2.0473,2.0314,2.0201,2.0187,2.0141,2.0073,1.9959,1.9845,1.9693,1.9479,1.9311,1.9173,1.9043,1.8812,1.8635,1.845,1.8241,1.7916,1.7651,1.7457,1.738,1.7333,1.4817,1.4866,1.4887,1.4992,1.5228,1.5401,1.5588,1.5741,1.5914,1.6115,1.5984,1.6087,1.617,1.6536,1.7141,1.7505,1.7831,1.8311,1.871,1.8943,1.9569,1.9934,2.0132,2.0515,2.0601,2.0792,2.094,2.0858,2.0751,2.0684,2.0615,2.0625,2.0635,2.0615,2.0684,2.0772,2.1036,2.1669,2.1838,2.2495,2.3686,2.4443,2.4865,2.5099,2.5292,2.5414,2.5643,2.5776,2.5997,2.6218,2.6413,2.6469,2.6487,2.6487,2.6487,2.6487,2.6487,2.6516,2.6568,2.6624,2.6692,2.6743,2.6743,2.6726,2.6589,2.628,2.5968,2.5653,2.5099,2.4664,2.4363,2.3947,2.41,2.4235,2.4241,2.4454,2.4672,2.439,2.3937,2.3677,2.3232,2.2828,2.2498,2.2264,2.2052,2.1963,2.1874,2.1785,2.1597,2.132,2.0961,2.0722,2.0496,2.0224,2.0073,1.9936,1.9853,1.9785,1.9693,1.9594,1.9525,1.9433,1.9319,1.915,1.9012,1.8874,1.8743,1.8558,1.8373,1.8094,1.7791,1.7574,1.7372,1.7326,1.7309,1.4489,1.4713,1.4713,1.4762,1.4887,1.4964,1.5047,1.5151,1.5235,1.5305,1.5325,1.5304,1.5589,1.6191,1.6876,1.7265,1.7528,1.811,1.8573,1.8812,1.9409,1.9858,2.0174,2.0448,2.0656,2.0943,2.0981,2.1061,2.0987,2.0966,2.085,2.0683,2.084,2.0977,2.0977,2.1191,2.1659,2.2191,2.2644,2.3228,2.4003,2.4587,2.4933,2.5037,2.5338,2.5449,2.5492,2.5623,2.5893,2.6131,2.6292,2.6408,2.6465,2.6487,2.6487,2.6487,2.6487,2.6487,2.6504,2.6568,2.6589,2.6589,2.6572,2.6521,2.6366,2.6107,2.5758,2.5453,2.5034,2.4616,2.4218,2.3842,2.394,2.4015,2.3994,2.429,2.4534,2.4374,2.4088,2.3872,2.3655,2.3254,2.2872,2.2596,2.234,2.2141,2.2008,2.1852,2.162,2.1275,2.0871,2.0428,2.0201,1.9959,1.9891,1.9808,1.9693,1.9602,1.9433,1.9356,1.9288,1.9196,1.9104,1.9012,1.8897,1.8781,1.8651,1.8442,1.821,1.7924,1.7644,1.7473,1.7326,1.7302,1.7309,1.4201,1.4559,1.4552,1.4573,1.4629,1.4629,1.4671,1.4713,1.4734,1.4734,1.4762,1.493,1.5326,1.5822,1.6532,1.7005,1.7264,1.7707,1.8179,1.8573,1.9012,1.9523,2.0,2.0318,2.0673,2.116,2.1179,2.1273,2.1433,2.1472,2.1296,2.0938,2.126,2.1387,2.1464,2.1661,2.2062,2.2673,2.3382,2.3946,2.4446,2.4838,2.4999,2.515,2.5317,2.5461,2.5308,2.5418,2.5693,2.5945,2.6084,2.6188,2.6292,2.628,2.6344,2.6361,2.6396,2.6418,2.6452,2.6504,2.6487,2.6469,2.643,2.6361,2.6218,2.5992,2.5671,2.5264,2.501,2.458,2.4146,2.3751,2.3783,2.3837,2.3867,2.414,2.4353,2.4313,2.425,2.4067,2.3872,2.3677,2.3297,2.2947,2.264,2.2362,2.2141,2.1963,2.162,2.1253,2.0893,2.045,2.0027,1.9822,1.9739,1.9648,1.9564,1.9419,1.9219,1.9127,1.9081,1.9012,1.892,1.8827,1.8781,1.8604,1.8419,1.8234,1.8017,1.7807,1.7597,1.7426,1.7309,1.7309,1.7309,1.3891,1.4152,1.4145,1.4243,1.4419,1.4419,1.4524,1.4657,1.4671,1.4671,1.4726,1.5271,1.5649,1.6043,1.6366,1.6767,1.7019,1.7263,1.7707,1.8179,1.8643,1.9234,1.9772,2.0223,2.0634,2.1248,2.1374,2.155,2.1799,2.1966,2.191,2.1854,2.1815,2.1836,2.1905,2.2074,2.2509,2.3146,2.3864,2.4482,2.4966,2.535,2.5492,2.5318,2.5447,2.5512,2.5141,2.5223,2.5418,2.5671,2.584,2.5963,2.6032,2.605,2.6114,2.6201,2.6218,2.6275,2.6361,2.6452,2.6487,2.6448,2.6339,2.6184,2.6097,2.5793,2.5453,2.5081,2.4832,2.44,2.3952,2.363,2.3605,2.3569,2.3657,2.3953,2.4218,2.4429,2.4348,2.425,2.4067,2.3872,2.3677,2.3329,2.2925,2.2596,2.2185,2.1963,2.1584,2.1239,2.0961,2.0555,2.0005,1.9716,1.9579,1.9464,1.9273,1.9135,1.8989,1.892,1.8874,1.8804,1.8804,1.8735,1.8689,1.8442,1.821,1.8071,1.79,1.7714,1.7527,1.738,1.7309,1.7309,1.7309,1.3758,1.3864,1.4039,1.4145,1.4229,1.4222,1.4271,1.4334,1.4334,1.4328,1.439,1.4982,1.5339,1.5577,1.6116,1.6494,1.6753,1.6988,1.741,1.787,1.838,1.8935,1.9494,2.0042,2.06,2.1082,2.1396,2.1713,2.1979,2.2198,2.2387,2.238,2.2288,2.2274,2.2335,2.2598,2.3069,2.3455,2.4031,2.4529,2.4988,2.5368,2.5374,2.4829,2.5453,2.5214,2.4755,2.4992,2.52,2.5412,2.56,2.5706,2.584,2.5858,2.591,2.5997,2.6015,2.6067,2.6188,2.6344,2.6448,2.6292,2.6136,2.5963,2.5863,2.5558,2.5253,2.4945,2.4604,2.4189,2.3751,2.3494,2.3375,2.3324,2.3459,2.3797,2.403,2.4273,2.4477,2.4347,2.4249,2.4099,2.3904,2.3665,2.3264,2.2838,2.2407,2.1963,2.1629,2.1239,2.0983,2.0668,2.0133,1.9739,1.961,1.9296,1.8981,1.8866,1.8804,1.8804,1.8804,1.8804,1.8781,1.8712,1.8604,1.8373,1.8164,1.797,1.7761,1.7551,1.7434,1.7333,1.7309,1.7309,1.7309,1.3589,1.3716,1.3913,1.4018,1.4109,1.4109,1.4109,1.4109,1.4109,1.4158,1.4248,1.476,1.5058,1.5299,1.5758,1.6241,1.6501,1.6784,1.716,1.7621,1.8125,1.8635,1.9173,1.9723,2.0269,2.0758,2.1163,2.1512,2.1939,2.2255,2.2485,2.263,2.272,2.2691,2.2795,2.3099,2.3493,2.3721,2.398,2.4325,2.4764,2.4935,2.4999,2.4449,2.4829,2.4793,2.4455,2.4604,2.4891,2.5087,2.5265,2.5442,2.5583,2.5671,2.5718,2.5758,2.5811,2.5811,2.595,2.6102,2.6258,2.6114,2.5928,2.5723,2.5535,2.5329,2.5087,2.4652,2.4345,2.4018,2.3604,2.3383,2.3161,2.3067,2.3538,2.3854,2.3895,2.4086,2.4323,2.4464,2.4357,2.4271,2.4002,2.3764,2.3329,2.2925,2.2508,2.2141,2.1852,2.1441,2.1006,2.069,2.0269,1.9936,1.9625,1.9342,1.905,1.8874,1.8804,1.8804,1.8804,1.8804,1.8781,1.8758,1.8604,1.8326,1.8094,1.7854,1.7613,1.7387,1.7309,1.7309,1.7309,1.7309,1.7309,1.3349,1.3688,1.3716,1.387,1.406,1.4109,1.4109,1.4109,1.4109,1.4228,1.4429,1.4826,1.5127,1.5379,1.5693,1.6028,1.6289,1.6541,1.6894,1.7364,1.7854,1.8365,1.8827,1.9365,1.9905,2.0329,2.0803,2.1284,2.1741,2.2132,2.2463,2.275,2.2882,2.3015,2.3062,2.3103,2.3254,2.3503,2.3711,2.4078,2.4393,2.443,2.4329,2.4252,2.4149,2.4073,2.4026,2.4207,2.4496,2.476,2.4849,2.501,2.5159,2.5194,2.53,2.5518,2.5553,2.5653,2.584,2.5893,2.5858,2.5823,2.5653,2.5483,2.5324,2.5111,2.4856,2.44,2.4146,2.3861,2.3549,2.3253,2.2983,2.297,2.3408,2.372,2.376,2.4096,2.4364,2.4507,2.4486,2.44,2.411,2.3807,2.3373,2.2979,2.2596,2.2287,2.2021,2.1642,2.1208,2.0826,2.0442,2.0096,1.9762,1.9425,1.915,1.8943,1.8804,1.8804,1.8804,1.8804,1.8781,1.8766,1.8535,1.821,1.7947,1.7683,1.7496,1.7309,1.7309,1.7309,1.7309,1.7309,1.7309,1.3185,1.3307,1.3589,1.3758,1.3849,1.4046,1.4109,1.4109,1.4109,1.4158,1.4328,1.4754,1.5028,1.5256,1.5602,1.5937,1.6194,1.6471,1.6817,1.7106,1.7597,1.811,1.8573,1.8989,1.9525,2.017,2.0668,2.1037,2.1526,2.1963,2.2296,2.2561,2.2904,2.3079,2.3091,2.3113,2.3222,2.345,2.3612,2.3819,2.421,2.4053,2.3865,2.3807,2.3679,2.3585,2.3527,2.3769,2.4098,2.4381,2.4483,2.4652,2.4814,2.4879,2.4957,2.5064,2.5082,2.5099,2.5165,2.5171,2.5283,2.5342,2.5359,2.5194,2.4992,2.467,2.44,2.4152,2.3842,2.3556,2.3346,2.3031,2.2802,2.2737,2.302,2.3319,2.3555,2.4126,2.4507,2.4507,2.4507,2.4378,2.4131,2.3894,2.3472,2.3166,2.2838,2.253,2.2264,2.1865,2.1419,2.1051,2.0668,2.0269,1.9914,1.9631,1.9356,1.915,1.8943,1.8804,1.8804,1.8827,1.8804,1.8781,1.8435,1.8087,1.7846,1.7613,1.7426,1.7309,1.7309,1.7309,1.7309,1.7309,1.7309,1.3015,1.3122,1.337,1.3589,1.3737,1.3997,1.4109,1.4109,1.4109,1.4109,1.4216,1.4631,1.4914,1.5104,1.5439,1.5802,1.6079,1.6336,1.6581,1.6902,1.7347,1.7854,1.8288,1.8689,1.9296,1.9951,2.0428,2.0798,2.1271,2.1718,2.2163,2.2574,2.2828,2.2991,2.3057,2.3135,2.3157,2.3341,2.345,2.3556,2.3646,2.3513,2.3329,2.3194,2.3115,2.308,2.3144,2.3372,2.3703,2.3934,2.4127,2.4291,2.4447,2.4502,2.4574,2.4634,2.4772,2.4819,2.4843,2.4754,2.4849,2.4873,2.4927,2.4867,2.4646,2.4381,2.4127,2.3842,2.3501,2.3279,2.3086,2.277,2.2665,2.2598,2.2892,2.3219,2.3473,2.4032,2.4507,2.4507,2.4486,2.4335,2.4131,2.3905,2.3624,2.3341,2.3079,2.2772,2.2463,2.2043,2.1651,2.1262,2.0871,2.0496,2.0164,1.9868,1.9608,1.9379,1.9173,1.8943,1.8874,1.892,1.885,1.8735,1.8388,1.8063,1.7784,1.7567,1.738,1.7309,1.7309,1.7309,1.7309,1.7309,1.7309,1.2854,1.3073,1.3094,1.3328,1.3673,1.3934,1.4067,1.4109,1.4109,1.4109,1.4136,1.4394,1.4716,1.5037,1.5289,1.5585,1.5863,1.6123,1.6353,1.6683,1.7082,1.7567,1.8032,1.8496,1.8997,1.9533,2.005,2.0518,2.0997,2.1553,2.2109,2.2561,2.2715,2.286,2.2991,2.3047,2.3069,2.321,2.3309,2.3305,2.32,2.2928,2.2767,2.2625,2.2461,2.256,2.2721,2.3001,2.3224,2.3409,2.3574,2.3721,2.3824,2.3897,2.4134,2.4381,2.4592,2.461,2.4592,2.4429,2.4345,2.4334,2.4496,2.4436,2.4273,2.4061,2.3842,2.3556,2.3261,2.302,2.2796,2.2649,2.2502,2.2715,2.3024,2.3252,2.3432,2.3857,2.4342,2.4507,2.4507,2.4368,2.4067,2.3841,2.3667,2.3406,2.3144,2.2882,2.2552,2.2176,2.1807,2.1472,2.1082,2.0699,2.0382,2.011,1.986,1.9608,1.9402,1.9196,1.9127,1.8981,1.892,1.8735,1.8365,1.804,1.7761,1.7527,1.7356,1.7309,1.7309,1.7309,1.7309,1.7309,1.7309,1.2747,1.2833,1.3024,1.3164,1.3334,1.3652,1.3934,1.4082,1.4109,1.4109,1.4102,1.4389,1.4652,1.5015,1.5269,1.5548,1.5802,1.6052,1.6194,1.6501,1.6847,1.7216,1.7606,1.8079,1.8573,1.9112,1.9654,2.0155,2.0645,2.1239,2.1843,2.222,2.2463,2.2662,2.2816,2.2882,2.296,2.305,2.3159,2.3026,2.2778,2.2529,2.2362,2.2154,2.1997,2.2132,2.2327,2.2553,2.274,2.2927,2.3094,2.3261,2.3446,2.3593,2.3806,2.3813,2.3916,2.3945,2.3945,2.3897,2.3842,2.3806,2.3916,2.3868,2.374,2.3629,2.3482,2.3261,2.302,2.2777,2.2652,2.2534,2.248,2.2717,2.3062,2.341,2.3619,2.3991,2.4456,2.4497,2.4497,2.4325,2.4024,2.3829,2.3646,2.3406,2.3188,2.2947,2.2728,2.2384,2.2008,2.1696,2.1383,2.1015,2.0677,2.0405,2.0133,1.986,1.9654,1.9448,1.9279,1.9142,1.8981,1.8712,1.8365,1.8024,1.7721,1.7504,1.7309,1.7309,1.7309,1.7309,1.7309,1.7309,1.7309,1.2705,1.2726,1.2881,1.2982,1.3143,1.3455,1.3695,1.3849,1.4025,1.4109,1.4129,1.4262,1.4502,1.4819,1.5082,1.5364,1.5638,1.5903,1.6076,1.6312,1.6619,1.7012,1.738,1.7753,1.8272,1.8781,1.9242,1.9723,2.0337,2.1082,2.1718,2.1963,2.2154,2.2397,2.2596,2.274,2.2872,2.2904,2.2886,2.275,2.2473,2.2154,2.192,2.1737,2.1623,2.18,2.1968,2.2157,2.2365,2.2534,2.2721,2.2796,2.3001,2.3187,2.3353,2.3409,2.3604,2.3659,2.3666,2.3556,2.3464,2.3383,2.3342,2.3187,2.3205,2.3131,2.3094,2.3001,2.2759,2.2545,2.2488,2.245,2.254,2.2666,2.3108,2.3567,2.3919,2.4249,2.4415,2.4455,2.439,2.4239,2.4045,2.3841,2.3602,2.3341,2.3178,2.3069,2.2904,2.2693,2.2296,2.1941,2.1651,2.136,2.1037,2.0744,2.051,2.0269,2.0065,1.9837,1.9554,1.9234,1.9012,1.8712,1.8342,1.8048,1.7745,1.7481,1.7309,1.7309,1.7309,1.7309,1.7309,1.7309,1.7309,1.2705,1.2705,1.2705,1.2833,1.3073,1.3292,1.337,1.344,1.3828,1.4025,1.4046,1.4116,1.4279,1.4615,1.4901,1.5207,1.5478,1.5752,1.595,1.6177,1.643,1.6777,1.7145,1.7543,1.797,1.8481,1.8958,1.944,2.0269,2.0888,2.1316,2.1674,2.1896,2.2119,2.2375,2.2552,2.2677,2.2788,2.2537,2.2243,2.1964,2.1636,2.1313,2.1083,2.1234,2.1521,2.1731,2.194,2.212,2.2252,2.2384,2.2384,2.2572,2.274,2.2908,2.3078,2.3297,2.3438,2.3493,2.3465,2.3371,2.3196,2.2907,2.2983,2.311,2.3026,2.3005,2.3013,2.2828,2.2802,2.2792,2.2792,2.2864,2.3066,2.3442,2.3795,2.4115,2.4332,2.4414,2.4433,2.4335,2.4153,2.3872,2.3634,2.3493,2.3222,2.3113,2.3091,2.3025,2.2882,2.2627,2.223,2.1919,2.1674,2.1405,2.1127,2.0916,2.0713,2.0473,2.0201,1.9905,1.9494,1.9035,1.8712,1.8388,1.811,1.7838,1.7543,1.7333,1.7309,1.7309,1.7309,1.7309,1.7309,1.7309,1.2705,1.2705,1.2705,1.2747,1.2811,1.3073,1.3185,1.3185,1.344,1.3652,1.3822,1.4024,1.4242,1.4464,1.4836,1.514,1.5384,1.5648,1.5805,1.5981,1.6218,1.6494,1.6817,1.7216,1.7621,1.8024,1.855,1.9256,2.0019,2.0504,2.092,2.1392,2.1593,2.1763,2.2119,2.2274,2.2381,2.2632,2.2244,2.1966,2.1829,2.1489,2.1144,2.0967,2.107,2.1186,2.1378,2.155,2.1636,2.1731,2.2035,2.2214,2.2402,2.2507,2.2545,2.2617,2.3072,2.3286,2.3394,2.3507,2.3559,2.3577,2.3481,2.3495,2.3431,2.3201,2.3075,2.3053,2.3041,2.3082,2.31,2.3136,2.3223,2.3483,2.3732,2.4033,2.4301,2.433,2.4401,2.4304,2.4228,2.3991,2.3677,2.3482,2.3341,2.3232,2.3144,2.3091,2.3091,2.3013,2.2925,2.2552,2.223,2.1941,2.1696,2.1495,2.1284,2.1006,2.0713,2.0496,2.0224,1.97,1.9158,1.8781,1.8435,1.8187,1.79,1.7567,1.7403,1.7333,1.7309,1.7309,1.7309,1.7309,1.7309,1.2705,1.2705,1.2705,1.2705,1.2726,1.2854,1.2924,1.2966,1.3158,1.3334,1.3483,1.375,1.4005,1.4286,1.4741,1.5039,1.5284,1.5635,1.5785,1.5879,1.6052,1.6248,1.6595,1.6911,1.7263,1.7667,1.8411,1.9142,1.97,2.0209,2.0618,2.0956,2.1091,2.1405,2.1763,2.1874,2.2087,2.2425,2.1962,2.1825,2.173,2.1283,2.0938,2.078,2.0858,2.0954,2.1051,2.1254,2.134,2.1436,2.1674,2.209,2.2335,2.2553,2.2717,2.2946,2.3257,2.3404,2.3469,2.3619,2.3781,2.3762,2.3689,2.3532,2.3394,2.3204,2.3296,2.3279,2.3164,2.3168,2.3273,2.3338,2.3525,2.3764,2.4001,2.4269,2.4318,2.4284,2.4196,2.4045,2.3937,2.3764,2.3503,2.3351,2.3232,2.3188,2.3123,2.3101,2.3101,2.3101,2.3013,2.2904,2.2561,2.223,2.1941,2.1785,2.1629,2.1329,2.1006,2.0555,2.0178,1.9731,1.9273,1.8943,1.8596,1.8303,1.8001,1.7714,1.745,1.7326,1.7309,1.7309,1.7309,1.7356,1.7333,1.2705,1.2705,1.2705,1.2705,1.2705,1.2705,1.2705,1.2747,1.2939,1.3058,1.3094,1.3455,1.361,1.3947,1.452,1.4785,1.5137,1.5581,1.5755,1.5849,1.6021,1.6147,1.6366,1.6643,1.6981,1.7473,1.8149,1.8573,1.8989,1.954,2.0019,2.0314,2.0668,2.1042,2.1307,2.1549,2.1817,2.2013,2.1912,2.1847,2.1488,2.0996,2.0781,2.0742,2.0761,2.0848,2.0926,2.1022,2.1138,2.1353,2.1538,2.2048,2.2449,2.2741,2.2987,2.3256,2.3546,2.3691,2.3794,2.3881,2.3811,2.3718,2.3583,2.3513,2.3402,2.3392,2.3485,2.3433,2.332,2.332,2.3443,2.3567,2.3773,2.3897,2.4153,2.4316,2.4229,2.4163,2.398,2.3807,2.3677,2.3525,2.3373,2.321,2.3166,2.3123,2.3101,2.3101,2.3101,2.3101,2.3079,2.3013,2.2869,2.2539,2.2252,2.203,2.1874,2.1629,2.1284,2.069,2.0147,1.9777,1.9433,1.9173,1.8827,1.8442,1.821,1.7947,1.7683,1.7466,1.7543,1.7613,1.7543,1.7543,1.7426,1.2705,1.2705,1.2705,1.2683,1.2683,1.2683,1.2705,1.2705,1.2753,1.279,1.2839,1.3052,1.3285,1.3502,1.4313,1.4679,1.4802,1.5388,1.5724,1.5849,1.5879,1.6004,1.6177,1.6383,1.6746,1.7263,1.7784,1.8203,1.855,1.8966,1.954,2.0178,2.0292,2.0645,2.1073,2.1284,2.1517,2.1715,2.1764,2.1686,2.1872,2.1428,2.0927,2.0772,2.0625,2.0663,2.0712,2.0858,2.0945,2.118,2.1656,2.2218,2.2653,2.2979,2.3204,2.3463,2.3752,2.3856,2.395,2.4054,2.397,2.3927,2.3843,2.38,2.3681,2.3564,2.3594,2.3551,2.3491,2.3533,2.3625,2.3689,2.3821,2.3821,2.3972,2.396,2.3905,2.3872,2.3776,2.3655,2.3525,2.3373,2.321,2.3123,2.3123,2.3101,2.3101,2.3101,2.3101,2.3101,2.3101,2.3079,2.3035,2.2947,2.2706,2.2296,2.2084,2.1883,2.154,2.0902,2.0337,1.9853,1.9525,1.9319,1.8928,1.852,1.8311,1.8164,1.804,1.7854,1.7947,1.797,1.787,1.7776,1.7667]},{"header":{"parameterUnit":"m.s-1","parameterCategory":1,"la1":31.0,"la2":29.5877,"lo1":-88.7671,"lo2":-86.6584,"dy":0.0162,"dx":0.0185,"nx":115,"ny":88,"refTime":"2023-10-14T18:00:00:Z","depth":0,"parameterNumber":3,"parameterNumberName":"V-component_of_WINDS"},"data":[0.0,0.0,0.0,0.0,0.0,0.0,0.0,0.0,0.0,0.0,0.0,0.0,0.0,0.0,0.0,0.0,0.0,0.0,0.0,0.0,0.0,0.0,0.0,0.0,0.0,0.0,0.0,0.0,0.0,0.0,0.0,0.0,0.0,0.0,0.0,0.0,0.0,0.0,0.0,0.0,0.0,0.0,0.0,0.0,0.0,0.0,0.0,0.0,0.0,0.0,0.0,0.0,0.0,0.0,0.0,0.0,0.0,0.0,0.0,0.0,0.0,0.0,0.0,0.0,0.0,0.0,0.0,0.0,0.0,0.0,0.0,0.0,0.0,0.0,0.0,0.0,0.0,0.0,0.0,0.0,0.0,0.0,0.0,0.0,0.0,0.0,0.0,0.0,0.0,0.0,0.0,0.0,0.0,0.0,0.0,0.0,0.0,0.0,0.0,0.0,0.0,0.0,0.0,0.0,0.0,0.0,0.0,0.0,0.0,0.0,0.0,0.0,0.0,0.0,0.0,0.0,0.0,0.0,0.0,0.0,0.0,0.0,0.0,0.0,0.0,0.0,0.0,0.0,0.0,0.0,0.0,0.0,0.0,0.0,0.0,0.0,0.0,0.0,0.0,0.0,0.0,0.0,0.0,0.0,0.0,0.0,0.0,0.0,0.0,0.0,0.0,0.0,0.0,0.0,0.0,0.0,0.0,0.0,0.0,0.0,0.0,0.0,0.0,0.0,0.0,0.0,0.0,0.0,0.0,0.0,0.0,0.0,0.0,0.0,0.0,0.0,0.0,0.0,0.0,0.0,0.0,0.0,0.0,0.0,0.0,0.0,0.0,0.0,0.0,0.0,0.0,0.0,0.0,0.0,0.0,0.0,0.0,0.0,0.0,0.0,0.0,0.0,0.0,0.0,0.0,0.0,0.0,0.0,0.0,0.0,0.0,0.0,0.0,0.0,0.0,0.0,0.0,0.0,0.0,0.0,0.0,0.0,0.0,0.0,0.0,0.0,0.0,0.0,0.0,0.0,0.0,0.0,0.0,0.0,0.0,0.0,0.0,0.0,0.0,0.0,0.0,0.0,0.0,0.0,0.0,0.0,0.0,0.0,0.0,0.0,0.0,0.0,0.0,0.0,0.0,0.0,0.0,0.0,0.0,0.0,0.0,0.0,0.0,0.0,0.0,0.0,0.0,0.0,0.0,0.0,0.0,0.0,0.0,0.0,0.0,0.0,0.0,0.0,0.0,0.0,0.0,0.0,0.0,0.0,0.0,0.0,0.0,0.0,0.0,0.0,0.0,0.0,0.0,0.0,0.0,0.0,0.0,0.0,0.0,0.0,0.0,0.0,0.0,0.0,0.0,0.0,0.0,0.0,0.0,0.0,0.0,0.0,0.0,0.0,0.0,0.0,0.0,0.0,0.0,0.0,0.0,0.0,0.0,0.0,0.0,0.0,0.0,0.0,0.0,0.0,0.0,0.0,0.0,0.0,0.0,0.0,0.0,0.0,0.0,0.0,0.0,0.0,0.0,0.0,0.0,0.0,0.0,0.0,0.0,0.0,0.0,0.0,0.0,0.0,0.0,0.0,0.0,0.0,0.0,0.0,0.0,0.0,0.0,0.0,0.0,0.0,0.0,0.0,0.0,0.0,0.0,0.0,0.0,0.0,0.0,0.0,0.0,0.0,0.0,0.0,0.0,0.0,0.0,0.0,0.0,0.0,0.0,0.0,0.0,0.0,0.0,0.0,0.0,0.0,0.0,0.0,0.0,0.0,0.0,0.0,0.0,0.0,0.0,0.0,0.0,0.0,0.0,0.0,0.0,0.0,0.0,0.0,0.0,0.0,0.0,0.0,0.0,0.0,0.0,0.0,0.0,0.0,0.0,0.0,0.0,0.0,0.0,0.0,0.0,0.0,0.0,0.0,0.0,0.0,0.0,0.0,0.0,0.0,0.0,0.0,0.0,0.0,0.0,0.0,0.0,0.0,0.0,0.0,0.0,0.0,0.0,0.0,0.0,0.0,0.0,0.0,0.0,0.0,0.0,0.0,0.0,0.0,0.0,0.0,0.0,0.0,0.0,0.0,0.0,0.0,0.0,0.0,0.0,0.0,0.0,0.0,0.0,0.0,0.0,0.0,0.0,0.0,0.0,0.0,0.0,0.0,0.0,0.0,0.0,0.0,0.0,0.0,0.0,0.0,0.0,0.0,0.0,0.0,0.0,0.0,0.0,0.0,0.0,0.0,0.0,0.0,0.0,0.0,0.0,0.0,0.0,0.0,0.0,0.0,0.0,0.0,0.0,0.0,0.0,0.0,0.0,0.0,0.0,0.0,0.0,0.0,0.0,0.0,0.0,0.0,0.0,0.0,0.0,0.0,0.0,0.0,0.0,0.0,0.0,0.0,0.0,0.0,0.0,0.0,0.0,0.0,0.0,0.0,0.0,0.0,0.0,0.0,0.0,0.0,0.0,0.0,0.0,0.0,0.0,0.0,0.0,0.0,0.0,0.0,0.0,0.0,0.0,0.0,0.0,0.0,0.0,0.0,0.0,0.0,0.0,0.0,0.0,0.0,0.0,0.0,0.0,0.0,0.0,0.0,0.0,0.0,0.0,0.0,0.0,0.0,0.0,0.0,0.0,0.0,0.0,0.0,0.0,0.0,0.0,0.0,0.0,0.0,0.0,0.0,0.0,0.0,0.0,0.0,0.0,0.0,0.0,0.0,0.0,0.0,0.0,0.0,0.0,0.0,0.0,0.0,0.0,0.0,0.0,0.0,0.0,0.0,0.0,0.0,0.0,0.0,0.0,0.0,0.0,0.0,0.0,0.0,0.0,0.0,0.0,0.0,0.0,0.0,0.0,0.0,0.0,0.0,0.0,0.0,0.0,0.0,0.0,0.0,0.0,0.0,0.0,0.0,0.0,0.0,0.0,0.0,0.0,0.0,0.0,0.0,0.0,0.0,0.0,0.0,0.0,0.0,0.0,0.0,0.0,0.0,0.0,0.0,0.0,0.0,0.0,0.0,0.0,0.0,0.0,0.0,0.0,0.0,0.0,0.0,0.0,0.0,0.0,0.0,0.0,0.0,0.0,0.0,0.0,0.0,0.0,0.0,0.0,0.0,0.0,0.0,0.0,0.0,0.0,0.0,0.0,0.0,0.0,0.0,0.0,0.0,0.0,0.0,0.0,0.0,0.0,0.0,0.0,0.0,0.0,0.0,0.0,0.0,0.0,0.0,0.0,0.0,0.0,0.0,0.0,0.0,0.0,0.0,0.0,0.0,0.0,0.0,0.0,0.0,0.0,0.0,0.0,0.0,0.0,0.0,0.0,0.0,0.0,0.0,0.0,0.0,0.0,0.0,0.0,0.0,0.0,0.0,0.0,0.0,0.0,0.0,0.0,0.0,0.0,0.0,0.0,0.0,0.0,0.0,0.0,0.0,0.0,0.0,0.0,0.0,0.0,0.0,0.0,0.0,0.0,0.0,0.0,0.0,0.0,0.0,0.0,0.0,0.0,0.0,0.0,0.0,0.0,0.0,0.0,0.0,0.0,0.0,0.0,0.0,0.0,0.0,0.0,0.0,0.0,0.0,0.0,0.0,0.0,0.0,0.0,0.0,0.0,0.0,0.0,0.0,0.0,0.0,0.0,0.0,0.0,0.0,0.0,0.0,0.0,0.0,0.0,0.0,0.0,0.0,0.0,0.0,0.0,0.0,0.0,0.0,0.0,0.0,0.0,0.0,0.0,0.0,0.0,0.0,0.0,0.0,0.0,0.0,0.0,0.0,0.0,0.0,0.0,0.0,0.0,0.0,0.0,0.0,0.0,0.0,0.0,0.0,0.0,0.0,0.0,0.0,0.0,0.0,0.0,0.0,0.0,0.0,0.0,0.0,0.0,0.0,0.0,0.0,0.0,0.0,0.0,0.0,0.0,0.0,0.0,0.0,0.0,0.0,0.0,0.0,0.0,0.0,0.0,0.0,0.0,0.0,0.0,0.0,0.0,0.0,0.0,0.0,0.0,0.0,0.0,0.0,0.0,0.0,0.0,0.0,0.0,0.0,0.0,0.0,0.0,0.0,0.0,0.0,0.0,0.0,0.0,0.0,0.0,0.0,0.0,0.0,0.0,0.0,0.0,0.0,0.0,0.0,0.0,0.0,0.0,0.0,0.0,0.0,0.0,0.0,0.0,0.0,0.0,0.0,0.0,0.0,0.0,0.0,0.0,0.0,0.0,0.0,0.0,0.0,0.0,0.0,0.0,0.0,0.0,0.0,0.0,0.0,0.0,0.0,0.9825,0.0,0.0,0.0,0.0,0.0,0.0,0.0,0.0,0.0,0.0,0.0,0.0,0.0,0.0,0.0,0.0,0.0,0.0,0.0,0.0,0.0,0.0,0.0,0.0,0.0,0.0,0.0,0.0,0.0,0.0,0.0,0.0,0.0,0.0,0.0,0.0,0.0,0.0,0.0,0.0,0.0,0.0,0.0,0.0,0.0,0.0,0.0,0.0,0.0,0.0,0.0,0.0,0.0,0.0,0.0,0.0,0.0,0.0,0.0,0.0,0.0,0.0,0.0,0.0,0.0,0.0,0.0,0.0,0.0,0.0,0.0,0.0,0.0,0.0,0.0,0.0,0.0,0.0,0.0,0.0,0.0,0.0,0.0,0.0,0.0,0.0,0.0,0.0,0.0,0.0,0.0,0.0,0.0,0.0,0.0,0.0,0.0,0.0,0.0,0.0,0.0,0.0,0.0,0.0,0.0,0.0,0.0,0.0,0.0,0.0,0.9662,0.9706,0.9745,0.973,0.9747,0.0,0.0,0.0,0.0,0.0,0.0,0.0,0.0,0.0,0.0,0.0,0.0,0.0,0.0,0.0,0.0,0.0,0.0,0.0,0.0,0.0,0.0,0.0,0.0,0.0,0.0,0.0,0.0,0.0,0.0,0.0,0.0,0.0,0.0,0.0,0.0,0.0,0.0,0.0,0.0,0.0,0.0,0.0,0.0,0.0,0.0,0.0,0.0,0.0,0.0,0.0,0.0,0.0,0.0,0.0,0.0,0.0,0.0,0.0,0.0,0.0,0.0,0.0,0.0,0.0,0.0,0.0,0.0,0.0,0.0,0.0,0.0,0.0,0.0,0.0,0.0,0.0,0.0,0.0,0.0,0.0,0.0,0.0,0.0,0.0,0.0,0.0,0.0,0.0,0.0,0.0,0.0,0.0,0.0,0.0,0.0,0.0,0.0,0.0,0.0,0.0,0.0,0.0,0.0,0.0,0.0,0.0,0.0,0.0,0.0,0.0,0.0,0.9665,0.9649,0.9673,0.0,0.0,0.0,0.0,0.0,0.0,0.0,0.0,0.0,0.0,0.0,0.0,0.0,0.0,0.0,0.0,0.0,0.0,0.0,0.0,0.0,0.0,0.0,0.0,0.0,0.0,0.0,0.0,0.0,0.0,0.0,0.0,0.0,0.0,0.0,0.0,0.0,0.0,0.0,0.0,0.0,0.0,0.0,0.0,0.0,0.0,0.0,0.0,0.0,0.0,0.0,0.0,0.0,0.0,0.0,0.0,0.0,0.0,0.0,0.0,0.0,0.0,0.0,0.0,0.0,0.0,0.0,0.0,0.0,0.0,0.0,0.0,0.0,0.0,0.0,0.0,0.0,0.0,0.0,0.0,0.0,0.0,0.0,0.0,0.0,0.0,0.0,0.0,0.0,0.0,0.0,0.0,0.0,0.0,0.0,0.0,0.0,0.0,0.0,0.0,0.0,0.0,0.0,0.0,0.0,0.0,0.0,0.0,0.0,0.0,0.9519,0.9523,0.9521,0.0,0.9601,0.0,0.0,0.0,0.0,0.0,0.0,0.0,0.0,0.0,0.0,0.0,0.0,0.0,0.0,0.0,0.0,0.0,0.0,0.0,0.0,0.0,0.0,0.0,0.0,0.0,0.0,0.0,0.0,0.0,0.0,0.0,0.0,0.0,0.0,0.0,0.0,0.0,0.0,0.0,0.0,0.0,0.0,0.0,0.0,0.0,0.0,0.0,0.0,0.0,0.0,0.0,0.0,0.0,0.0,0.0,0.0,0.0,0.0,0.0,0.0,0.0,0.0,0.0,0.0,0.0,0.0,0.0,0.0,0.0,0.0,0.0,0.0,0.0,0.0,0.0,0.0,0.0,0.0,0.0,0.0,0.0,0.0,0.0,0.0,0.0,0.0,0.0,0.0,0.0,0.0,0.0,0.0,0.0,0.0,0.0,0.0,0.0,0.0,0.0,0.0,0.0,0.0,0.0,0.0,0.0,0.0,0.0,0.0,0.0,0.0,0.9444,0.9455,0.9472,0.9514,0.0,0.0,0.0,0.0,0.0,0.0,0.0,0.0,0.0,0.0,0.0,0.0,0.0,0.0,0.0,0.0,0.0,0.0,0.0,0.0,0.0,0.0,0.0,0.0,0.0,0.0,0.0,0.0,0.0,0.0,0.0,0.0,0.0,0.0,0.0,0.0,0.0,0.0,0.0,0.0,0.0,0.0,0.0,0.0,0.0,0.0,0.0,0.0,0.0,0.0,0.0,0.0,0.0,0.0,0.0,0.0,0.0,0.0,0.0,0.0,0.0,0.0,0.0,0.0,0.0,0.0,0.0,0.0,0.0,0.0,0.0,0.0,0.0,0.0,0.0,0.0,0.0,0.0,0.0,0.0,0.0,0.0,0.0,0.0,0.0,0.0,0.0,0.0,0.0,0.0,0.0,0.0,0.0,0.0,0.0,0.0,0.0,0.0,0.0,0.0,0.0,0.0,0.0,0.0,0.0,0.0,0.0,0.0,0.0,0.0,0.9378,0.9369,0.9367,0.9444,0.9452,0.9454,0.0,0.0,0.0,0.0,0.0,0.0,0.0,0.0,0.0,0.0,0.0,0.0,0.0,0.0,0.0,0.0,0.0,0.0,0.0,0.0,0.0,0.0,0.0,0.0,0.0,0.0,0.0,0.0,0.0,0.0,0.0,0.0,0.0,0.0,0.0,0.0,0.0,0.0,0.0,0.0,0.0,0.0,0.0,0.0,0.0,0.0,0.0,0.0,0.0,0.0,0.0,0.0,0.0,0.0,0.0,0.0,0.0,0.0,0.0,0.0,0.0,0.0,0.0,0.0,0.0,0.0,0.0,0.0,0.0,0.0,0.0,0.0,0.0,0.0,0.0,0.0,0.0,0.0,0.0,0.0,0.0,0.0,0.0,0.0,0.0,0.0,0.0,0.0,0.0,0.0,0.0,0.0,0.0,0.0,0.0,0.0,0.0,0.0,0.0,0.0,0.0,0.0,0.0,0.0,0.0,0.0,0.0,0.0,0.932,0.9342,0.9334,0.935,0.9387,0.9403,0.0,0.0,0.0,0.0,0.0,0.0,0.0,0.0,0.0,0.0,0.0,0.0,0.0,0.0,0.0,0.0,0.0,0.0,0.0,0.0,0.0,0.0,0.0,0.0,0.0,0.0,0.0,0.0,0.0,0.0,0.0,0.0,0.0,0.0,0.0,0.0,0.0,0.0,0.0,0.0,0.0,0.0,0.0,0.0,0.0,0.0,0.0,0.0,0.0,0.0,0.0,0.0,0.0,0.0,0.0,0.0,0.0,0.0,0.0,0.0,0.0,0.0,0.0,0.0,0.0,0.0,0.0,0.0,0.0,0.0,0.0,0.0,0.0,0.0,0.0,0.0,0.0,0.0,0.0,0.0,0.0,0.0,0.0,0.0,0.0,0.0,0.0,0.0,0.0,0.0,0.0,0.0,0.0,0.0,0.0,0.0,0.0,0.0,0.0,0.0,0.0,0.0,0.0,0.0,0.0,0.0,0.0,0.0,0.0,1.0624,1.0703,1.0708,1.0702,1.0767,1.0821,0.0,0.0,0.0,0.0,0.0,0.0,0.0,0.0,0.0,0.0,0.0,0.0,0.0,0.0,0.0,0.0,0.0,0.0,0.0,0.0,0.0,0.0,0.0,0.0,0.0,0.0,0.0,0.0,0.0,0.0,0.0,0.0,0.0,0.0,0.0,0.0,0.0,0.0,0.0,0.0,0.0,0.0,0.0,0.0,0.0,0.0,0.0,0.0,0.0,0.0,0.0,0.0,0.0,0.0,0.0,0.0,0.0,0.0,0.0,0.0,0.0,0.0,0.0,0.0,0.0,0.0,0.0,0.0,0.0,0.0,0.0,0.0,0.0,0.0,0.0,0.0,0.0,0.0,0.0,0.0,0.0,0.0,0.0,0.0,0.0,0.0,0.0,0.0,0.0,0.0,0.0,0.0,0.0,0.0,0.0,0.0,0.0,0.0,0.0,0.0,0.0,0.0,0.0,0.0,0.0,0.0,0.0,0.0,0.0,1.1584,0.0,1.1468,1.1468,1.153,1.1567,0.0,0.0,0.0,0.0,0.0,0.0,0.0,0.0,0.0,0.0,0.0,0.0,0.0,0.0,0.0,0.0,0.0,0.0,0.0,0.0,0.0,0.0,0.0,0.0,0.0,0.0,0.0,0.0,0.0,0.0,0.0,0.0,0.0,0.0,0.0,0.0,0.0,0.0,0.0,0.0,0.0,0.0,0.0,0.0,0.0,0.0,0.0,0.0,0.0,0.0,0.0,0.0,0.0,0.0,0.0,0.0,0.0,0.0,0.0,0.0,0.0,0.0,0.0,0.0,0.0,0.0,0.0,0.0,0.0,0.0,0.0,0.0,0.0,0.0,0.0,0.0,0.0,0.0,0.0,0.0,0.0,0.0,0.0,0.0,0.0,0.0,0.0,0.0,0.0,0.0,0.0,0.0,0.0,0.0,0.0,0.0,0.0,0.0,0.0,0.0,0.0,0.0,0.0,0.0,0.0,0.0,0.0,0.0,1.109,1.2057,1.1688,1.152,1.1454,1.1549,1.1569,0.0,0.0,0.0,0.0,0.0,0.0,0.0,0.0,0.0,0.0,0.0,0.0,0.0,0.0,0.0,0.0,0.0,0.0,0.0,0.0,0.0,0.0,0.0,0.0,0.0,0.0,0.0,0.0,0.0,0.0,0.0,0.0,0.0,0.0,0.0,0.0,0.0,0.0,0.0,0.0,0.0,0.0,0.0,0.0,0.0,0.0,0.0,0.0,0.0,0.0,0.0,0.0,0.0,0.0,0.0,0.0,0.0,0.0,0.0,0.0,0.0,0.0,0.0,0.0,0.0,0.0,0.0,0.0,0.0,0.0,0.0,0.0,0.0,0.0,0.0,0.0,0.0,0.0,0.0,0.0,0.0,0.0,0.0,0.0,0.0,0.0,0.0,0.0,0.0,0.0,0.0,0.0,0.0,0.0,0.0,0.0,0.0,0.0,0.0,0.0,0.0,0.0,0.0,0.0,0.0,0.0,0.0,0.0,0.0,1.3127,1.2987,1.2927,1.2994,1.301,1.3028,0.0,0.0,0.0,0.0,0.0,0.0,0.0,0.0,0.0,0.0,0.0,0.0,0.0,0.0,0.0,0.0,0.0,0.0,0.0,0.0,0.0,0.0,0.0,0.0,0.0,0.0,0.0,0.0,0.0,0.0,0.0,0.0,0.0,0.0,0.0,0.0,0.0,0.0,0.0,0.0,0.0,0.0,0.0,0.0,0.0,0.0,0.0,0.0,0.0,0.0,0.0,0.0,0.0,0.0,0.0,0.0,0.0,0.0,0.0,0.0,0.0,0.0,0.0,0.0,0.0,0.0,0.0,0.0,0.0,0.0,0.0,0.0,0.0,0.0,0.0,0.0,0.0,0.0,0.0,0.0,0.0,0.0,0.0,0.0,0.0,0.0,0.0,0.0,0.0,0.0,0.0,0.0,0.0,0.0,0.0,0.0,0.0,0.0,0.0,0.0,0.0,0.0,0.0,0.0,0.0,0.0,0.0,0.0,0.0,1.4594,1.4465,1.4413,1.4485,1.422,1.4105,1.4156,0.0,0.0,0.0,0.0,0.0,0.0,0.0,0.0,0.0,0.0,0.0,0.0,0.0,0.0,0.0,0.0,0.0,0.0,0.0,0.0,0.0,0.0,0.0,0.0,0.0,0.0,0.0,0.0,0.0,0.0,0.0,0.0,0.0,0.0,0.0,0.0,0.0,0.0,0.0,0.0,0.0,0.0,0.0,0.0,0.0,0.0,0.0,0.0,0.0,0.0,0.0,0.0,0.0,0.0,0.0,0.0,0.0,0.0,0.0,0.0,0.0,0.0,0.0,0.0,0.0,0.0,0.0,0.0,0.0,0.0,0.0,0.0,0.0,0.0,0.0,0.0,0.0,0.0,0.0,0.0,0.0,0.0,0.0,0.0,0.0,0.0,0.0,0.0,0.0,0.0,0.0,0.0,0.0,0.0,0.0,0.0,0.0,0.0,0.0,0.0,0.0,0.0,0.0,0.0,0.0,0.0,0.0,0.0,1.6287,1.5984,1.5787,1.576,1.5122,1.4796,0.0,0.0,0.0,0.0,0.0,0.0,0.0,0.0,0.0,0.0,0.0,0.0,0.0,0.0,0.0,0.0,0.0,0.0,0.0,0.0,0.0,0.0,0.0,0.0,0.0,0.0,0.0,0.0,0.0,0.0,0.0,0.0,0.0,0.0,0.0,0.0,0.0,0.0,0.0,0.0,0.0,0.0,0.0,0.0,0.0,0.0,0.0,0.0,0.0,0.0,0.0,0.0,0.0,0.0,0.0,0.0,0.0,0.0,0.0,0.0,0.0,0.0,0.0,0.0,0.0,0.0,0.0,0.0,0.0,0.0,0.0,0.0,0.0,0.0,0.0,0.0,0.0,0.0,0.0,0.0,0.0,0.0,0.0,0.0,0.0,0.0,0.0,0.0,0.0,0.0,0.0,0.0,0.0,0.0,0.0,0.0,0.0,0.0,0.0,0.0,0.0,0.0,0.0,0.0,0.0,0.0,0.0,0.0,0.0,1.6449,1.6928,1.6704,1.5765,1.5592,1.5544,0.0,0.0,0.0,0.0,0.0,0.0,0.0,0.0,0.0,0.0,0.0,0.0,0.0,0.0,0.0,0.0,0.0,0.0,0.0,0.0,0.0,0.0,0.0,0.0,0.0,0.0,0.0,0.0,0.0,0.0,0.0,0.0,0.0,0.0,0.0,0.0,0.0,0.0,0.0,0.0,0.0,0.0,0.0,0.0,0.0,0.0,0.0,0.0,0.0,0.0,0.0,0.0,0.0,0.0,0.0,0.0,0.0,0.0,0.0,0.0,0.0,0.0,0.0,0.0,0.0,0.0,0.0,0.0,0.0,0.0,0.0,0.0,0.0,0.0,0.0,0.0,0.0,0.0,0.0,0.0,0.0,0.0,0.0,0.0,0.0,0.0,0.0,0.0,0.0,0.0,0.0,0.0,0.0,0.0,0.0,0.0,0.0,0.0,0.0,0.0,0.0,0.0,0.0,0.0,0.0,0.0,0.0,0.0,1.6708,1.7329,1.7823,1.7872,1.7478,1.6646,1.625,0.0,0.0,0.0,0.0,0.0,0.0,0.0,0.0,0.0,0.0,0.0,0.0,0.0,0.0,0.0,0.0,0.0,0.0,0.0,0.0,0.0,0.0,0.0,0.0,0.0,0.0,0.0,0.0,0.0,0.0,0.0,0.0,0.0,0.0,0.0,0.0,0.0,0.0,0.0,0.0,0.0,0.0,0.0,0.0,0.0,0.0,0.0,0.0,0.0,0.0,0.0,0.0,0.0,0.0,0.0,0.0,0.0,0.0,0.0,0.0,0.0,0.0,0.0,0.0,0.0,0.0,0.0,0.0,0.0,0.0,0.0,0.0,0.0,0.0,0.0,0.0,0.0,0.0,0.0,0.0,0.0,0.0,0.0,0.0,0.0,0.0,0.0,0.0,0.0,0.0,0.0,0.0,0.0,0.0,0.0,0.0,0.0,0.0,0.0,0.0,0.0,0.0,0.0,0.0,0.0,0.0,0.0,0.0,1.7143,1.8437,1.8635,1.9073,1.9783,1.8031,1.7053,0.0,0.0,0.0,0.0,0.0,0.0,0.0,0.0,0.0,0.0,0.0,0.0,0.0,0.0,0.0,0.0,0.0,0.0,0.0,0.0,0.0,0.0,0.0,0.0,0.0,0.0,0.0,0.0,0.0,0.0,0.0,0.0,0.0,0.0,0.0,0.0,0.0,0.0,0.0,0.0,0.0,0.0,0.0,0.0,0.0,0.0,0.0,0.0,0.0,0.0,0.0,0.0,0.0,0.0,0.0,0.0,0.0,0.0,0.0,0.0,0.0,0.0,0.0,0.0,0.0,0.0,0.0,0.0,0.0,0.0,0.0,0.0,0.0,0.0,0.0,0.0,0.0,0.0,0.0,0.0,0.0,0.0,0.0,0.0,0.0,0.0,0.0,0.0,0.0,0.0,0.0,0.0,0.0,0.0,0.0,0.0,0.0,0.0,0.0,0.0,0.0,0.0,0.0,0.0,0.0,0.0,0.0,0.0,1.8059,1.8425,1.9055,1.9508,1.9744,1.8909,1.8483,0.0,0.0,0.0,0.0,0.0,0.0,0.0,0.0,0.0,0.0,0.0,0.0,0.0,0.0,0.0,0.0,0.0,0.0,0.0,0.0,0.0,0.0,0.0,0.0,0.0,0.0,0.0,0.0,0.0,0.0,0.0,0.0,0.0,0.0,0.0,0.0,0.0,0.0,0.0,0.0,0.0,0.0,0.0,0.0,0.0,0.0,0.0,0.0,1.4224,0.0,0.0,0.0,0.0,0.0,0.0,0.0,0.0,0.0,0.0,0.0,0.0,0.0,0.0,0.0,0.0,0.0,0.0,0.0,0.0,0.0,0.0,0.0,0.0,0.0,0.0,0.0,0.0,0.0,0.0,0.0,0.0,0.0,0.0,0.0,0.0,0.0,0.0,0.0,0.0,0.0,0.0,0.0,0.0,0.0,0.0,0.0,0.0,0.0,0.0,0.0,0.0,0.0,0.0,0.0,0.0,0.0,0.0,0.0,1.8577,1.9281,1.9812,2.0276,2.0644,2.0117,1.9519,0.0,0.0,0.0,0.0,0.0,0.0,0.0,0.0,0.0,0.0,0.0,0.0,0.0,0.0,0.0,0.0,0.0,0.0,0.0,0.0,0.0,0.0,0.0,0.0,0.0,0.0,0.0,0.0,0.0,0.0,0.0,0.0,0.0,0.0,0.0,0.0,0.0,0.0,0.0,0.0,0.0,0.0,0.0,0.0,0.0,0.0,0.0,0.0,0.0,0.0,0.0,0.0,0.0,0.0,0.0,0.0,0.0,0.0,0.0,0.0,0.0,0.0,0.0,0.0,0.0,0.0,0.0,0.0,0.0,0.0,0.0,0.0,0.0,0.0,0.0,0.0,0.0,0.0,0.0,0.0,0.0,0.0,0.0,0.0,0.0,0.0,0.0,0.0,0.0,0.0,0.0,0.0,0.0,0.0,0.0,0.0,0.0,0.0,0.0,0.0,0.0,0.0,0.0,0.0,0.0,0.0,0.0,1.8221,1.9012,2.024,2.0562,2.1044,2.1735,2.1244,2.0407,1.9229,0.0,0.0,0.0,0.0,0.0,0.0,0.0,0.0,0.0,0.0,0.0,0.0,0.0,0.0,0.0,0.0,0.0,0.0,0.0,0.0,0.0,0.0,0.0,0.0,0.0,0.0,0.0,0.0,0.0,0.0,0.0,0.0,0.0,0.0,0.0,0.0,0.0,0.0,1.5242,1.5841,0.0,0.0,0.0,0.0,0.0,0.0,0.0,0.0,1.6509,0.0,0.0,0.0,0.0,0.0,0.0,0.0,0.0,0.0,0.0,0.0,0.0,0.0,0.0,0.0,0.0,0.0,0.0,0.0,0.0,0.0,0.0,0.0,0.0,0.0,0.0,0.0,0.0,0.0,0.0,0.0,0.0,0.0,0.0,0.0,0.0,0.0,0.0,0.0,0.0,0.0,0.0,0.0,0.0,0.0,0.0,0.0,0.0,0.0,0.0,0.0,0.0,0.0,0.0,0.0,0.0,1.7832,1.9048,1.9904,2.0297,2.087,2.1327,2.1619,2.163,2.1247,2.0415,0.0,0.0,0.0,0.0,0.0,0.0,0.0,0.0,0.0,0.0,0.0,0.0,0.0,0.0,0.0,0.0,0.0,0.0,0.0,0.0,0.0,0.0,0.0,0.0,0.0,0.0,0.0,0.0,0.0,0.0,0.0,0.0,0.0,0.0,0.0,0.0,0.0,0.0,0.0,1.609,1.6423,0.0,0.0,0.0,0.0,0.0,0.0,0.0,0.0,1.7608,0.0,0.0,0.0,0.0,0.0,0.0,0.0,0.0,0.0,0.0,0.0,0.0,0.0,0.0,0.0,0.0,0.0,0.0,0.0,0.0,0.0,0.0,0.0,0.0,0.0,0.0,0.0,0.0,0.0,0.0,0.0,0.0,0.0,0.0,0.0,0.0,0.0,0.0,0.0,0.0,0.0,0.0,0.0,0.0,0.0,0.0,0.0,0.0,0.0,0.0,0.0,0.0,0.0,0.0,0.0,1.8236,1.9322,2.0137,2.0614,2.1029,2.1309,2.1442,2.1532,2.1326,0.0,0.0,0.0,0.0,0.0,0.0,0.0,0.0,0.0,0.0,0.0,0.0,0.0,0.0,0.0,0.0,0.0,0.0,0.0,0.0,0.0,0.0,0.0,0.0,0.0,0.0,0.0,0.0,0.0,0.0,0.0,0.0,0.0,0.0,0.0,0.0,0.0,0.0,0.0,0.0,1.663,1.6903,1.7578,0.0,0.0,0.0,0.0,0.0,0.0,1.8191,1.8076,0.0,0.0,0.0,0.0,0.0,0.0,0.0,0.0,0.0,0.0,0.0,0.0,0.0,0.0,0.0,0.0,0.0,0.0,0.0,0.0,0.0,0.0,0.0,0.0,0.0,0.0,0.0,0.0,0.0,0.0,0.0,0.0,0.0,0.0,0.0,0.0,0.0,0.0,0.0,0.0,0.0,0.0,0.0,0.0,0.0,0.0,0.0,0.0,0.0,0.0,0.0,0.0,0.0,0.0,0.0,1.8575,1.9476,2.0304,2.1027,2.1246,2.136,2.1464,2.1543,2.1349,0.0,0.0,0.0,0.0,0.0,0.0,0.0,0.0,0.0,0.0,0.0,0.0,0.0,0.0,0.0,0.0,0.0,0.0,0.0,0.0,0.0,0.0,0.0,0.0,0.0,0.0,0.0,0.0,0.0,0.0,0.0,0.0,0.0,0.0,0.0,0.0,0.0,0.0,0.0,0.0,0.0,1.7548,1.8205,1.8367,0.0,0.0,0.0,0.0,1.863,1.863,0.0,0.0,0.0,0.0,0.0,0.0,0.0,0.0,0.0,0.0,0.0,0.0,0.0,0.0,0.0,0.0,0.0,0.0,0.0,0.0,0.0,0.0,0.0,0.0,0.0,0.0,0.0,0.0,0.0,0.0,0.0,0.0,0.0,0.0,0.0,0.0,0.0,0.0,0.0,0.0,0.0,0.0,0.0,0.0,0.0,0.0,0.0,0.0,0.0,0.0,0.0,0.0,0.0,0.0,0.0,0.0,1.8554,1.9779,2.0839,2.1646,2.1711,2.1813,2.1991,2.219,2.1964,0.0,0.0,0.0,0.0,0.0,0.0,0.0,0.0,0.0,0.0,0.0,0.0,0.0,0.0,0.0,0.0,0.0,0.0,0.0,0.0,0.0,0.0,0.0,0.0,0.0,0.0,0.0,0.0,0.0,0.0,0.0,0.0,0.0,0.0,0.0,0.0,0.0,0.0,0.0,0.0,0.0,1.8235,1.8893,1.909,1.9379,0.0,0.0,2.0064,2.0064,2.0056,0.0,0.0,0.0,0.0,0.0,0.0,0.0,0.0,0.0,0.0,0.0,0.0,0.0,0.0,0.0,0.0,0.0,0.0,0.0,0.0,0.0,0.0,0.0,0.0,0.0,0.0,0.0,0.0,0.0,0.0,0.0,0.0,0.0,0.0,0.0,0.0,0.0,0.0,0.0,0.0,0.0,0.0,0.0,0.0,0.0,0.0,0.0,0.0,0.0,0.0,0.0,0.0,0.0,0.0,0.0,1.8548,1.9037,2.0334,2.1219,2.1685,2.2061,2.2151,2.1948,2.2017,2.1807,0.0,0.0,0.0,0.0,0.0,0.0,0.0,0.0,0.0,0.0,0.0,0.0,0.0,0.0,0.0,0.0,0.0,0.0,0.0,0.0,0.0,0.0,0.0,0.0,0.0,0.0,0.0,0.0,0.0,0.0,0.0,0.0,0.0,0.0,0.0,0.0,0.0,0.0,0.0,0.0,0.0,0.0,2.0037,2.033,0.0,0.0,0.0,2.1418,2.1427,0.0,0.0,0.0,0.0,0.0,0.0,0.0,0.0,0.0,0.0,0.0,0.0,0.0,0.0,0.0,0.0,0.0,0.0,0.0,0.0,0.0,0.0,0.0,0.0,0.0,0.0,0.0,0.0,0.0,0.0,0.0,0.0,0.0,0.0,0.0,0.0,0.0,0.0,0.0,0.0,0.0,0.0,0.0,0.0,0.0,0.0,0.0,0.0,0.0,0.0,0.0,0.0,0.0,0.0,0.0,0.0,0.0,1.9383,2.0691,2.1534,2.1839,2.2468,2.2661,2.2267,2.2139,0.0,0.0,0.0,0.0,0.0,0.0,0.0,0.0,0.0,0.0,0.0,0.0,0.0,0.0,0.0,0.0,0.0,0.0,0.0,0.0,0.0,0.0,0.0,0.0,0.0,0.0,0.0,1.547,0.0,0.0,0.0,0.0,0.0,0.0,0.0,0.0,0.0,0.0,0.0,0.0,0.0,0.0,1.9869,2.0871,2.1305,2.172,0.0,0.0,2.2305,2.2305,2.2305,2.2145,0.0,0.0,0.0,0.0,0.0,0.0,0.0,0.0,0.0,0.0,0.0,0.0,0.0,0.0,0.0,0.0,0.0,0.0,0.0,0.0,0.0,0.0,0.0,0.0,0.0,0.0,0.0,0.0,0.0,0.0,0.0,0.0,0.0,0.0,0.0,0.0,0.0,0.0,0.0,0.0,0.0,0.0,0.0,0.0,0.0,0.0,0.0,0.0,0.0,0.0,0.0,0.0,0.0,0.0,0.0,1.9326,2.0628,2.1676,2.2428,2.3092,2.3441,2.3479,2.3051,2.249,0.0,0.0,0.0,0.0,0.0,0.0,0.0,0.0,0.0,0.0,0.0,0.0,0.0,0.0,0.0,0.0,0.0,0.0,0.0,0.0,0.0,0.0,0.0,0.0,0.0,0.0,0.0,0.0,0.0,0.0,0.0,0.0,0.0,0.0,0.0,0.0,0.0,0.0,0.0,0.0,0.0,2.0901,2.0977,2.1703,2.2249,0.0,0.0,2.2305,2.232,2.232,2.2343,2.2406,0.0,0.0,0.0,0.0,0.0,0.0,0.0,0.0,0.0,0.0,0.0,0.0,0.0,0.0,0.0,0.0,0.0,0.0,0.0,0.0,0.0,0.0,0.0,0.0,0.0,0.0,0.0,0.0,0.0,0.0,0.0,0.0,0.0,0.0,0.0,0.0,0.0,0.0,0.0,0.0,0.0,0.0,0.0,0.0,0.0,0.0,0.0,0.0,0.0,0.0,0.0,0.0,0.0,1.9416,2.0535,2.1427,2.2253,2.297,2.3649,2.3818,2.3483,2.3312,2.2723,0.0,0.0,0.0,0.0,0.0,0.0,0.0,0.0,0.0,0.0,0.0,0.0,0.0,0.0,0.0,0.0,0.0,0.0,0.0,0.0,0.0,0.0,0.0,0.0,0.0,0.0,0.0,0.0,1.626,1.6563,1.6691,0.0,0.0,0.0,0.0,0.0,0.0,0.0,0.0,0.0,0.0,2.1805,2.2299,2.2675,0.0,0.0,2.3522,2.3533,2.3533,2.3593,2.3529,2.3175,2.3222,0.0,0.0,0.0,0.0,0.0,0.0,0.0,0.0,0.0,0.0,0.0,0.0,0.0,0.0,0.0,0.0,0.0,0.0,0.0,0.0,0.0,0.0,0.0,0.0,0.0,0.0,0.0,0.0,0.0,0.0,0.0,0.0,0.0,0.0,0.0,0.0,0.0,0.0,0.0,0.0,0.0,0.0,0.0,0.0,0.0,0.0,0.0,0.0,0.0,0.0,0.0,0.0,1.9906,2.1234,2.1882,2.2547,2.3197,2.3856,2.402,2.366,2.3458,2.2985,0.0,0.0,0.0,0.0,0.0,0.0,0.0,0.0,0.0,0.0,0.0,0.0,0.0,0.0,0.0,0.0,0.0,0.0,0.0,0.0,0.0,0.0,0.0,0.0,0.0,0.0,0.0,0.0,1.6924,1.7363,1.7762,0.0,0.0,0.0,0.0,0.0,0.0,0.0,0.0,0.0,0.0,2.2563,2.3131,2.3426,2.383,2.4507,2.4631,2.4662,2.4652,2.4771,2.4632,2.3993,0.0,0.0,0.0,0.0,0.0,0.0,0.0,0.0,0.0,0.0,0.0,0.0,0.0,0.0,0.0,0.0,0.0,0.0,0.0,0.0,0.0,0.0,0.0,0.0,0.0,0.0,0.0,0.0,0.0,0.0,0.0,0.0,0.0,0.0,0.0,0.0,0.0,0.0,0.0,0.0,0.0,0.0,0.0,0.0,0.0,0.0,0.0,0.0,0.0,0.0,0.0,0.0,0.0,1.9794,2.11,2.1742,2.2347,2.3016,2.3654,2.4056,2.4167,2.3615,2.331,2.3332,0.0,0.0,0.0,0.0,0.0,0.0,0.0,0.0,0.0,0.0,0.0,0.0,0.0,0.0,0.0,0.0,0.0,0.0,0.0,0.0,0.0,0.0,0.0,0.0,0.0,0.0,1.7206,1.7191,1.7567,0.0,0.0,0.0,0.0,0.0,0.0,0.0,0.0,0.0,0.0,2.2595,2.3177,2.3233,2.3836,2.4548,2.5184,2.5394,2.5469,2.5479,2.5596,2.5477,0.0,0.0,0.0,0.0,0.0,0.0,0.0,0.0,0.0,0.0,0.0,0.0,0.0,0.0,0.0,0.0,0.0,0.0,0.0,0.0,0.0,0.0,0.0,0.0,0.0,0.0,0.0,1.5477,1.5574,0.0,0.0,0.0,0.0,0.0,0.0,0.0,0.0,0.0,0.0,0.0,1.7699,1.7699,0.0,0.0,0.0,0.0,0.0,0.0,0.0,0.0,0.0,0.0,0.0,0.0,2.0795,2.1692,2.2342,2.2991,2.3639,2.3882,2.4014,2.4082,2.3874,2.3585,2.3217,0.0,0.0,0.0,0.0,0.0,0.0,0.0,0.0,0.0,0.0,0.0,0.0,0.0,0.0,0.0,0.0,0.0,0.0,0.0,0.0,0.0,0.0,0.0,0.0,0.0,1.8018,0.0,0.0,0.0,0.0,0.0,0.0,0.0,0.0,0.0,0.0,0.0,2.2304,2.2681,2.3779,2.4545,2.4593,2.5264,2.5838,0.0,0.0,0.0,0.0,0.0,0.0,0.0,0.0,0.0,0.0,0.0,0.0,0.0,0.0,2.5576,2.3635,2.3341,2.3393,2.3393,0.0,0.0,0.0,0.0,0.0,0.0,0.0,0.0,0.0,0.0,0.0,0.0,0.0,0.0,0.0,0.0,1.7061,0.0,0.0,0.0,0.0,0.0,0.0,0.0,0.0,1.8369,1.8625,1.9082,1.9089,1.9097,0.0,1.9097,1.9249,0.0,0.0,0.0,0.0,0.0,0.0,0.0,0.0,2.1375,2.2263,2.2677,2.3211,2.3831,2.3871,2.3882,2.3925,2.3982,2.3705,2.3082,2.2321,2.167,0.0,0.0,0.0,0.0,0.0,0.0,0.0,0.0,0.0,0.0,0.0,0.0,0.0,0.0,0.0,0.0,0.0,0.0,0.0,0.0,0.0,0.0,0.0,1.8977,0.0,0.0,0.0,0.0,0.0,0.0,0.0,0.0,0.0,2.1611,2.2526,2.339,2.3845,2.4909,2.5676,2.5711,0.0,0.0,0.0,0.0,0.0,0.0,0.0,2.7319,2.711,2.7185,2.7274,2.7332,2.7505,2.7649,2.77,0.0,0.0,2.5178,2.4945,2.5018,2.5009,2.5107,2.5179,2.5161,2.5979,2.6684,0.0,0.0,0.0,0.0,0.0,0.0,0.0,0.0,1.7092,1.7234,0.0,1.7323,0.0,0.0,0.0,0.0,0.0,0.0,0.0,0.0,1.9768,2.0441,2.1615,2.163,2.1675,2.169,2.1645,2.163,2.1555,1.975,0.0,0.0,0.0,0.0,0.0,0.0,2.1492,2.2732,2.2755,2.3017,2.358,2.3595,2.3664,2.3792,2.3914,2.3689,2.3082,2.2991,2.2398,2.1138,2.1032,0.0,0.0,0.0,0.0,0.0,0.0,0.0,0.0,0.0,0.0,0.0,0.0,0.0,0.0,0.0,0.0,0.0,0.0,0.0,0.0,1.9502,0.0,0.0,0.0,0.0,0.0,0.0,0.0,0.0,0.0,0.0,2.2933,2.3566,2.4345,2.5135,0.0,0.0,0.0,0.0,2.7023,2.7656,2.7859,2.7994,2.8158,2.8316,2.8188,2.7673,0.0,0.0,2.7754,2.7831,2.7999,2.804,2.819,2.7997,2.7881,2.7757,2.7776,2.7776,2.7823,2.8046,2.8083,2.7997,2.8164,2.0126,0.0,0.0,0.0,0.0,1.9371,1.9472,1.9562,1.9706,1.98,1.9825,1.9977,0.0,0.0,0.0,0.0,0.0,0.0,2.0748,2.1111,2.1121,2.133,2.1704,2.1704,2.1704,2.1704,2.1704,2.1704,2.1665,2.1126,2.0832,2.0842,0.0,0.0,0.0,0.0,2.2344,2.2729,2.3133,2.3426,2.3595,2.3584,2.3616,2.3638,2.3771,2.377,2.3589,2.3208,2.2834,2.2444,2.1518,0.0,0.0,0.0,0.0,0.0,0.0,0.0,0.0,0.0,0.0,0.0,0.0,0.0,0.0,0.0,0.0,0.0,0.0,0.0,2.0157,2.0417,2.059,0.0,0.0,0.0,0.0,0.0,0.0,0.0,0.0,0.0,2.5,2.4939,2.5173,0.0,0.0,2.7302,2.7365,2.7968,2.8486,2.8664,0.0,0.0,0.0,2.9925,3.0055,3.0346,3.0475,3.0624,3.086,3.0905,3.0945,3.1078,3.1117,3.1106,3.0942,2.9367,2.817,2.8039,2.8112,2.8181,2.8208,2.8613,2.9069,2.2542,2.1465,2.1161,2.1122,2.1273,2.1375,2.1294,2.1155,2.1339,2.1268,2.1017,2.1202,2.1283,2.1279,2.1385,0.0,0.0,0.0,2.1964,2.2453,2.2443,2.2727,2.3236,2.3251,2.3251,2.3236,2.2996,2.2851,2.2826,2.2577,2.2453,2.2413,0.0,0.0,2.2094,2.2493,2.2823,2.3067,2.3411,2.3584,2.3584,2.3584,2.3584,2.3595,2.3674,2.3717,2.3717,2.342,2.312,2.2883,2.2103,2.1506,0.0,0.0,0.0,0.0,0.0,0.0,0.0,0.0,0.0,0.0,0.0,1.8458,1.8603,0.0,0.0,0.0,1.9966,2.0197,2.0714,2.0968,0.0,0.0,0.0,0.0,0.0,0.0,0.0,2.4383,2.4949,2.5595,2.6421,2.6546,2.6641,2.6911,2.7868,2.8568,2.8685,0.0,3.0042,3.0085,3.023,3.0501,3.0993,3.1085,3.1248,3.1745,3.1897,3.2015,3.2229,3.228,3.2326,3.2413,3.2447,3.2454,3.2527,3.1073,2.9899,2.9868,2.9908,2.9964,2.9991,3.0379,3.0729,2.4329,2.4268,2.3134,2.2712,2.277,2.291,2.2635,2.209,2.2334,2.2091,2.153,2.1664,2.173,2.175,2.1801,0.0,0.0,2.2009,2.2652,2.3744,2.3759,2.4418,2.5573,2.5585,2.56,2.5558,2.4963,2.4679,2.4623,2.407,2.3781,2.3725,2.2623,2.2294,2.2758,2.2788,2.3047,2.3591,2.3595,2.3614,2.3674,2.3674,2.3684,2.3684,2.3625,2.3584,2.3595,2.3584,2.334,2.2808,2.2733,2.2408,2.1809,0.0,0.0,0.0,0.0,0.0,0.0,0.0,0.0,0.0,0.0,0.0,0.0,0.0,0.0,0.0,2.0565,0.0,2.0916,2.1473,0.0,0.0,0.0,2.4107,2.4343,2.4864,2.5387,2.5823,0.0,0.0,0.0,0.0,2.8543,2.7957,2.9159,3.0127,3.0283,3.091,3.1477,3.1514,3.1614,3.1706,3.1874,3.2018,3.2187,3.2452,3.2385,3.2485,3.2629,3.2653,3.2644,3.278,3.2721,3.276,3.2851,3.2845,3.2839,3.2633,3.2585,3.2591,3.2475,3.2503,3.2558,2.638,2.6634,2.5992,2.5139,2.4209,2.4351,2.4383,2.4347,2.4473,2.4469,2.4345,2.441,2.4502,2.4604,2.4615,2.4653,2.4661,2.4676,2.4825,2.5109,2.5136,2.5304,2.56,2.56,2.56,2.5588,2.5438,2.5364,2.5349,2.5299,2.5277,2.5262,2.5055,2.4448,2.3411,2.3396,2.3445,2.3584,2.3584,2.3864,2.435,2.435,2.435,2.435,2.3868,2.3584,2.3584,2.3584,2.3535,2.3396,2.2942,2.2618,2.2453,2.1839,0.0,0.0,0.0,0.0,0.0,0.0,0.0,0.0,0.0,2.0291,2.0291,0.0,2.0457,0.0,2.2007,2.2677,2.284,2.3507,0.0,0.0,2.4538,2.4857,2.4973,2.5201,2.5664,2.6459,2.7125,2.7866,2.8796,2.9698,3.0279,3.0347,3.0656,3.0963,3.1089,3.143,3.1702,3.1794,3.1985,3.2245,3.2788,3.3437,3.3835,3.3957,3.3924,3.3989,3.4121,3.4145,3.418,3.431,3.4322,3.4346,3.4336,3.4381,3.4352,3.4251,3.348,3.2685,3.2685,3.2802,3.2879,2.7739,2.8018,2.7821,2.7307,2.6635,2.6142,2.5807,2.5592,2.5726,2.5639,2.537,2.5447,2.5529,2.5615,2.56,2.56,2.56,2.56,2.5764,2.6048,2.6048,2.6198,2.6494,2.657,2.6594,2.6579,2.6326,2.6211,2.6223,2.5991,2.5875,2.5886,2.5971,2.5572,2.4701,2.4611,2.4593,2.4578,2.4515,2.4661,2.5023,2.5038,2.5049,2.5023,2.4406,2.4048,2.4036,2.3759,2.3584,2.3595,2.3281,2.3107,2.3082,2.2508,2.2057,0.0,0.0,0.0,0.0,0.0,0.0,0.0,0.0,0.0,0.0,0.0,2.1577,0.0,2.3271,0.0,2.394,2.4404,2.4729,2.4827,2.5245,2.5644,2.6046,2.6513,2.7183,2.8125,2.8715,2.9309,2.9958,3.0888,3.1539,3.1765,3.2144,3.2311,3.2162,3.2474,3.283,3.2906,3.3091,3.3325,3.3733,3.4186,3.4521,3.457,3.4594,3.4647,3.4751,3.4775,3.4828,3.4887,3.4911,3.4911,3.4911,3.4911,3.4923,3.4871,3.4346,3.382,3.3765,3.3822,3.389,2.8726,2.8881,2.8933,2.9043,2.9065,2.7955,2.7172,2.6629,2.6755,2.6478,2.5937,2.6048,2.6096,2.6096,2.6123,2.6111,2.6123,2.6123,2.6435,2.701,2.6998,2.728,2.7783,2.7914,2.7918,2.7798,2.7346,2.7133,2.7118,2.6564,2.6275,2.6286,2.6298,2.6298,2.6298,2.6167,2.6007,2.5794,2.5783,2.5761,2.5734,2.5722,2.5734,2.5693,2.5083,2.4713,2.4709,2.4077,2.3729,2.3729,2.364,2.3584,2.3595,2.3097,2.2693,0.0,2.2007,0.0,0.0,0.0,0.0,0.0,0.0,0.0,0.0,2.2095,2.2911,2.4019,2.4314,2.451,2.4635,2.4903,2.5116,2.527,2.5944,2.6698,2.7371,2.8221,2.9077,2.9906,3.0302,3.0634,3.0963,3.1823,3.2482,3.2704,3.3322,3.3573,3.3252,3.3626,3.4062,3.4312,3.4517,3.4632,3.4705,3.4804,3.4956,3.502,3.4979,3.4928,3.5045,3.4982,3.4911,3.4911,3.4911,3.4911,3.4923,3.4935,3.497,3.5105,3.5057,3.4995,3.4995,3.503,3.5233,2.9565,2.9792,2.9458,2.9319,2.9331,2.9188,2.901,2.8796,2.8946,2.8925,2.8818,2.8831,2.883,2.8831,2.8845,2.883,2.8845,2.8845,2.897,2.9194,2.9207,2.902,2.8763,2.8773,2.8485,2.7998,2.7843,2.781,2.7807,2.778,2.778,2.7804,2.7876,2.7951,2.7939,0.0,0.0,0.0,2.6329,2.6531,2.642,2.6408,2.6393,2.6393,2.5764,0.0,2.5393,2.478,2.441,2.4395,2.3909,0.0,0.0,0.0,0.0,0.0,0.0,0.0,0.0,0.0,0.0,0.0,2.3838,2.3499,2.2838,2.3375,2.3889,2.4242,2.4824,2.5237,2.5403,2.6458,2.716,2.7201,2.7953,2.8584,2.8743,2.9227,2.9697,2.9964,3.0715,3.1369,3.1826,3.2602,3.3215,3.3579,3.3881,3.4052,3.4083,3.4218,3.4312,3.4468,3.5112,3.5593,3.5679,3.6154,3.6439,3.6601,3.6121,3.5802,3.5748,3.5297,3.4932,3.4977,3.4911,3.4996,3.5079,3.5053,3.5216,3.5267,3.529,3.5256,3.5256,3.5354,3.5434,3.047,0.0,3.0431,3.0383,0.0,3.0524,3.051,3.0394,2.985,2.9608,2.9608,2.9608,2.9608,2.9606,2.9674,2.9699,2.9699,2.978,2.9832,2.9896,2.9911,2.9769,2.9503,2.957,2.9413,2.9106,2.9233,2.9112,2.8817,2.8907,2.8814,2.8508,2.8568,2.8568,2.8505,2.8356,2.7826,2.6889,2.7164,2.7269,2.718,2.713,2.7106,2.7063,0.0,0.0,0.0,0.0,0.0,0.0,0.0,0.0,0.0,0.0,0.0,2.4268,2.4528,2.4602,2.4423,2.4641,2.4704,2.452,2.4718,2.4646,2.4179,2.4449,2.4951,2.5718,2.6181,2.6589,2.6998,2.7741,2.8216,2.8312,2.8782,2.9271,2.9762,3.0167,3.0602,3.1151,3.1759,3.2284,3.2644,3.3147,3.3789,3.4417,3.466,3.4942,3.5426,3.5267,3.5185,3.5687,3.6108,3.6451,3.6547,3.6804,3.7119,3.7052,3.6787,3.656,3.6526,3.6241,3.6017,3.6061,3.6086,3.6134,3.6255,3.6296,3.6343,3.6451,3.6474,3.6498,3.6512,3.6025,3.5661,3.1263,3.1379,3.1409,3.1481,3.1597,3.1597,3.1582,3.1522,0.0,0.0,0.0,3.0019,3.0034,3.0033,3.0126,3.0194,3.0192,3.0313,3.0378,3.0417,3.0417,3.0382,3.0315,3.0422,3.0429,3.0319,3.0541,3.0362,2.9819,2.9927,2.9711,2.92,2.9153,2.9055,2.8807,2.8551,2.8323,2.8103,2.7915,2.7803,2.7763,2.7663,2.7585,2.7585,2.7048,2.6779,2.6764,2.6123,2.5782,2.5779,2.5674,2.56,2.56,2.56,2.5494,2.5215,2.5309,2.5262,2.5077,2.5067,2.507,2.5032,2.5362,2.5555,2.5542,2.5555,2.6104,2.7409,2.7621,2.792,2.8482,2.874,2.8911,2.9065,2.9308,2.9827,3.0627,3.0996,3.1469,3.2262,3.2656,3.3092,3.3496,3.3801,3.4323,3.5215,3.5587,3.6027,3.6812,3.6488,3.6236,3.6803,3.7119,3.7322,3.7339,3.7559,3.753,3.7718,3.7522,3.7364,3.7348,3.7248,3.7228,3.719,3.7319,3.7348,3.7475,3.7416,3.757,3.7708,3.7732,3.7757,3.7756,3.6883,3.6292,3.1553,3.1741,3.1855,3.1912,3.194,3.1911,3.1926,3.1911,3.1616,3.1499,3.1499,3.1611,3.1667,3.1652,3.1695,3.168,3.1709,3.1708,3.1846,0.0,3.205,3.1879,3.1549,3.1576,3.1262,3.0762,3.0784,3.0719,3.0641,3.0651,3.0616,3.0523,3.0538,3.0214,2.9625,2.8928,2.8565,2.8517,2.818,2.7863,2.7638,2.762,2.7585,2.7585,2.751,2.7465,2.745,2.6809,2.6452,2.6437,2.5914,2.56,2.5615,2.563,2.5482,2.5245,2.5737,2.5937,2.5729,2.6184,2.6671,2.7016,2.7023,2.6956,2.686,2.6928,2.7381,2.8238,2.8367,2.8438,2.8681,2.916,2.9551,2.9797,3.0381,3.0968,3.1374,3.1704,3.206,3.2488,3.2798,3.3489,3.4314,3.4754,3.5299,3.6111,3.6623,3.7081,3.7783,3.7451,3.7023,3.7168,3.7734,3.816,3.8256,3.8859,3.9111,3.9321,3.8743,3.835,3.835,3.7932,3.764,3.7522,3.7639,3.7655,3.7748,3.7672,3.7855,3.8002,3.8027,3.8005,3.8091,3.7853,3.7771,3.1825,3.1897,3.1968,3.2012,3.2012,3.2012,3.2012,3.2011,3.208,3.2038,3.1912,3.1982,3.2012,3.2011,3.2164,3.2219,3.2219,3.2401,3.2539,3.2677,3.2691,3.259,3.2416,3.2477,3.2347,3.2076,3.2203,3.2076,3.1754,3.1801,3.1617,3.126,3.1105,3.0857,3.0543,3.0048,2.9363,2.8498,2.8232,2.7971,2.771,2.7695,2.7675,2.7585,2.7585,2.7585,2.7585,2.7315,2.7151,2.7136,2.6866,2.6674,2.6689,2.6674,2.6552,2.6319,2.6562,2.6771,2.6836,2.7393,2.7802,2.8021,2.798,2.8067,2.834,2.8096,2.8267,2.9001,2.9088,2.9262,2.9682,3.0046,3.0338,3.0543,3.0998,3.1572,3.2206,3.2614,3.3093,3.3738,3.4156,3.4653,3.5431,3.5689,3.6202,3.715,3.7837,3.8498,3.9022,3.8762,3.8494,3.8541,3.8859,3.9048,3.9111,3.9417,3.9687,3.9703,3.9439,3.9221,3.9188,3.8849,3.874,3.8786,3.8799,3.8866,3.8957,3.9015,3.9023,3.9065,3.9102,3.9114,3.9188,3.9357,3.9364,3.2135,3.2136,3.2164,3.2207,3.2193,3.2193,3.2207,3.222,3.2442,3.2385,3.2221,3.2207,3.2193,3.2221,3.2427,3.2523,3.2551,3.28,3.2951,3.2991,3.3018,3.3043,3.3099,3.3189,3.3229,3.3256,3.3466,3.3284,3.2828,3.2865,3.2647,3.2082,3.1731,3.1524,3.1487,3.1096,3.032,2.9234,2.8885,2.8461,2.7904,2.7823,2.7725,2.7663,2.7612,2.7585,2.7585,2.7585,2.7585,2.7585,2.7585,2.7585,2.76,2.775,2.7697,2.7454,2.7548,2.7711,2.7911,2.8307,2.8597,2.8742,2.8742,2.9002,2.9536,2.9247,2.9189,2.9711,2.9827,3.0045,3.0526,3.0863,3.113,3.1383,3.1752,3.2359,3.3193,3.3575,3.4089,3.5001,3.5337,3.5673,3.6327,3.6591,3.7097,3.8187,3.9046,3.9573,3.9703,3.9742,3.9772,3.9781,3.9768,3.9709,3.9742,3.9777,3.9807,3.9794,3.979,3.9752,3.9752,3.9773,3.9799,3.9804,3.9868,3.9838,4.0024,4.0032,3.9999,3.996,3.9939,4.0116,4.0243,4.0451,4.0539,3.2532,3.2561,3.2718,3.2816,3.2804,3.2802,3.2818,3.2802,3.2827,3.2843,3.2816,3.2831,3.2802,3.2816,3.2827,3.2856,3.2883,3.3002,3.315,3.3282,3.3385,3.3516,3.3607,3.3633,3.3645,3.3658,3.3697,3.3672,3.3576,3.3592,3.3563,3.3422,3.2862,3.2492,3.2319,3.1598,3.1302,3.1536,3.0794,2.9634,2.8152,2.79,2.7806,2.7793,2.7678,2.7585,2.7675,2.7585,2.76,2.7585,2.763,2.7615,2.7675,2.8186,2.8371,2.8066,2.8583,2.8856,2.865,2.8666,2.8957,2.9421,2.9493,2.9754,3.0379,3.0408,3.0408,3.0481,3.0481,3.057,3.0805,3.1319,3.1853,3.2303,3.2871,3.3608,3.4191,3.4398,3.4662,3.5308,3.5693,3.5991,3.7066,3.7511,3.8097,3.9063,3.946,3.9733,3.9862,3.9871,3.9926,3.9982,3.9961,3.9901,3.9901,3.9986,3.9995,4.0049,4.0062,4.0037,4.0007,4.002,4.0087,4.0037,4.0058,4.0075,4.0087,4.0113,4.0113,4.015,4.0213,4.0367,4.06,4.0781,4.0773,3.2784,3.2784,3.287,3.2899,3.2912,3.2978,3.3018,3.3032,3.3205,3.3256,3.3269,3.3348,3.3243,3.3032,3.3189,3.3256,3.3269,3.3398,3.3477,3.3542,3.3594,3.3681,3.3809,3.3899,3.3975,3.4047,3.4138,3.4163,3.4176,3.4176,3.4126,3.4034,3.3681,3.3451,3.3297,3.2809,3.2428,3.214,3.1596,3.0724,2.9686,2.9261,2.9042,2.8979,2.8862,2.877,2.877,2.877,2.8783,2.8798,2.8798,2.8783,2.8783,2.9039,2.9041,2.8757,2.9123,2.9347,2.9232,2.9595,2.9944,3.0176,3.019,3.0321,3.0569,3.0612,3.0612,3.0612,3.0672,3.0878,3.1348,3.1808,3.2346,3.2991,3.3593,3.4242,3.5,3.5415,3.5904,3.6648,3.7056,3.7443,3.8076,3.8541,3.901,3.9556,3.9716,3.9858,4.0003,4.0011,4.0033,4.0087,4.0049,4.0024,4.0024,4.0062,4.01,4.0113,4.0113,4.0113,4.0113,4.0113,4.0113,4.0113,4.0113,4.0113,4.01,4.0113,4.0125,4.0213,4.0399,4.06,4.0781,4.0912,4.1029,3.311,3.3123,3.3123,3.3139,3.3123,3.3214,3.3269,3.328,3.3516,3.362,3.3633,3.3784,3.3707,3.3464,3.3529,3.3581,3.3617,3.3761,3.3835,3.3876,3.3899,3.3962,3.4075,3.4163,3.4263,3.4349,3.4436,3.4485,3.448,3.448,3.4448,3.4349,3.4263,3.4113,3.3949,3.3745,3.3313,3.2675,3.2337,3.1894,3.1264,3.0845,3.0397,2.9919,2.9726,2.9633,2.9608,2.9608,2.9608,2.9593,2.9608,2.9608,2.9608,2.9743,2.9785,2.9672,2.9769,2.9871,2.9871,3.0336,3.0612,3.0612,3.0612,3.0612,3.0612,3.0612,3.0613,3.0687,3.0953,3.1364,3.1776,3.233,3.2989,3.3802,3.4455,3.5154,3.5903,3.6426,3.6965,3.7765,3.805,3.8546,3.8903,3.9265,3.9573,3.9729,3.9858,3.9973,4.0075,4.01,4.0083,4.0113,4.0113,4.01,4.0113,4.01,4.0113,4.0113,4.0113,4.0113,4.0113,4.0113,4.0113,4.0113,4.0113,4.0113,4.0108,4.0125,4.0238,4.0387,4.0571,4.0793,4.0923,4.1064,4.1238,3.3658,3.3642,3.3655,3.3658,3.3684,3.3684,3.3655,3.3681,3.3835,3.3886,3.3924,3.4151,3.425,3.4188,3.386,3.3758,3.3915,3.4025,3.4138,3.4263,3.4374,3.4448,3.4472,3.4468,3.4485,3.4525,3.4533,3.4505,3.4509,3.4509,3.448,3.4501,3.4472,3.4337,3.4138,3.4079,3.3857,3.3443,3.3219,3.3039,3.2741,3.2396,3.1495,3.0262,2.989,2.9831,2.9695,2.9638,2.9638,2.9623,2.9683,2.9668,2.9683,3.0163,3.0591,3.0866,3.0689,3.0539,3.051,3.0583,3.0612,3.0612,3.0612,3.0612,3.0612,3.0612,3.0657,3.0791,3.1439,3.1913,3.215,3.2943,3.3862,3.4834,3.5768,3.6476,3.6994,3.7201,3.7649,3.8193,3.8436,3.8699,3.9205,3.952,3.9733,3.9875,3.9999,4.01,4.0083,4.0113,4.0113,4.0113,4.0113,4.0113,4.0113,4.0113,4.0113,4.0113,4.0113,4.0113,4.0113,4.0113,4.0113,4.0113,4.0113,4.0113,4.0121,4.0221,4.0412,4.0571,4.0757,4.0935,4.1088,4.1255,4.1414,3.3949,3.3962,3.3949,3.3949,3.3962,3.405,3.4075,3.4088,3.4242,3.4288,3.43,3.4386,3.4436,3.4411,3.4288,3.4238,3.4275,3.4337,3.437,3.4436,3.4472,3.4546,3.4635,3.4618,3.4667,3.4739,3.4751,3.4751,3.4756,3.4751,3.4703,3.4631,3.4631,3.4533,3.4362,3.4188,3.4025,3.3876,3.35,3.3256,3.3123,3.2757,3.2163,3.1587,3.1226,3.1076,3.1006,3.0879,3.0822,3.0822,3.0807,3.0807,3.0823,3.086,3.0938,3.1058,3.0791,3.0612,3.0612,3.0612,3.0612,3.0612,3.0612,3.0612,3.0612,3.0612,3.0657,3.0923,3.1543,3.2195,3.2988,3.3755,3.4726,3.5783,3.643,3.6922,3.7313,3.7742,3.8148,3.8406,3.8713,3.9127,3.9365,3.9655,3.9833,3.9901,4.0011,4.01,4.0113,4.0113,4.0113,4.0113,4.0113,4.0113,4.0113,4.0113,4.0113,4.0113,4.0113,4.0113,4.0113,4.0113,4.0113,4.0138,4.0125,4.0188,4.0238,4.0424,4.0612,4.0752,4.0935,4.1094,4.1244,4.1414,4.156,3.4337,3.43,3.4288,3.4263,3.4234,3.4374,3.4423,3.446,3.4618,3.4695,3.4703,3.4727,3.4751,3.4768,3.4751,3.4768,3.4739,3.4695,3.4655,3.4707,3.4739,3.4787,3.4887,3.4899,3.493,3.5006,3.5029,3.5018,3.5018,3.5029,3.4975,3.4839,3.4839,3.4744,3.4558,3.4386,3.425,3.4063,3.3749,3.349,3.3309,3.2947,3.266,3.2439,3.2108,3.1884,3.1814,3.1611,3.1496,3.1496,3.1496,3.1496,3.1467,3.1278,3.1132,3.1073,3.0836,3.0628,3.0612,3.0612,3.0612,3.0612,3.0612,3.0612,3.0612,3.0642,3.0732,3.1027,3.1678,3.2586,3.3547,3.4439,3.54,3.6338,3.683,3.7178,3.7492,3.8017,3.8434,3.8727,3.9083,3.9392,3.959,3.9785,3.9884,3.9952,4.0049,4.01,4.0113,4.0113,4.0113,4.0113,4.0113,4.0113,4.0113,4.0113,4.0113,4.0113,4.0113,4.0113,4.0113,4.0113,4.0125,4.015,4.0213,4.0275,4.0429,4.0624,4.0793,4.0947,4.1094,4.1255,4.1414,4.156,4.1714,3.4811,3.472,3.4691,3.4643,3.4558,3.4683,3.4715,3.4751,3.4954,3.5053,3.5053,3.5198,3.521,3.5256,3.521,3.5256,3.5198,3.5006,3.497,3.5065,3.517,3.5233,3.5261,3.5233,3.525,3.5273,3.5296,3.5296,3.5273,3.5256,3.5198,3.5116,3.5065,3.4935,3.472,3.4655,3.4485,3.4201,3.4063,3.3813,3.3359,3.315,3.2935,3.2621,3.2331,3.2066,3.1828,3.1626,3.1525,3.1496,3.1496,3.1496,3.1481,3.1365,3.1249,3.1087,3.0895,3.0732,3.0627,3.0612,3.0612,3.0612,3.0612,3.0612,3.0613,3.0702,3.0866,3.1146,3.1916,3.2886,3.3849,3.4865,3.5737,3.643,3.7058,3.7462,3.7759,3.8135,3.863,3.9137,3.9405,3.9619,3.9811,3.9914,3.9961,4.0033,4.0083,4.0113,4.0113,4.0113,4.0113,4.0113,4.0113,4.0113,4.0113,4.0113,4.0113,4.0113,4.0113,4.0113,4.0113,4.0113,4.0163,4.0201,4.0337,4.0429,4.0612,4.0805,4.0971,4.1123,4.1278,4.1437,4.1622,4.1776,4.1877,3.5135,3.5116,3.5111,3.5105,3.5053,3.5088,3.5116,3.5128,3.521,3.525,3.5245,3.5296,3.5308,3.5308,3.5308,3.5319,3.5308,3.5291,3.528,3.5256,3.528,3.5319,3.5319,3.5319,3.5308,3.5308,3.5308,3.5319,3.5319,3.5319,3.5268,3.5233,3.5152,3.5069,3.4958,3.4804,3.457,3.4386,3.4188,3.3924,3.3578,3.3346,3.3081,3.2814,3.2496,3.2205,3.1939,3.1784,3.1655,3.151,3.1496,3.1496,3.1482,3.138,3.1234,3.1087,3.0895,3.0732,3.0627,3.0612,3.0612,3.0612,3.0612,3.0612,3.0627,3.0732,3.0895,3.1146,3.1961,3.2901,3.3924,3.5,3.5964,3.6874,3.7359,3.7758,3.815,3.8672,3.908,3.9395,3.9629,3.9798,3.9888,3.9977,4.0049,4.0087,4.0113,4.0113,4.0113,4.0113,4.0113,4.0113,4.0113,4.0113,4.0113,4.0113,4.0113,4.0113,4.0113,4.0113,4.0113,4.015,4.0201,4.0325,4.0466,4.0624,4.0805,4.0994,4.1169,4.133,4.1482,4.1648,4.1848,4.1938,4.2026,3.5543,3.5498,3.5498,3.5463,3.5441,3.5475,3.5447,3.5424,3.5475,3.5447,3.5412,3.5412,3.5429,3.5401,3.5429,3.5429,3.5441,3.5509,3.5498,3.5412,3.5401,3.5401,3.5412,3.5401,3.5418,3.5401,3.5412,3.5412,3.5401,3.5418,3.5406,3.536,3.528,3.5182,3.5116,3.4947,3.4751,3.457,3.4378,3.4109,3.3835,3.3542,3.3243,3.2962,3.2662,3.2345,3.2025,3.1912,3.1755,3.1554,3.1496,3.1496,3.1481,3.1409,3.1278,3.1117,3.0969,3.0821,3.0657,3.0612,3.0612,3.0612,3.0612,3.0612,3.0642,3.0777,3.0984,3.1191,3.1825,3.2808,3.3937,3.4843,3.5954,3.7265,3.7611,3.799,3.8488,3.9002,3.9352,3.955,3.9759,3.9884,3.9986,4.0037,4.0113,4.0113,4.0113,4.0113,4.0113,4.0113,4.0096,4.0096,4.0113,4.0113,4.0113,4.0113,4.0113,4.0113,4.0113,4.0113,4.0113,4.0175,4.0251,4.0502,4.0673,4.0805,4.1,4.1204,4.1387,4.1538,4.1681,4.1841,4.1987,4.2016,4.2157,3.5949,3.5817,3.5806,3.5739,3.5644,3.5734,3.5723,3.5656,3.5751,3.5723,3.5633,3.5605,3.5622,3.5622,3.5633,3.5616,3.5633,3.565,3.565,3.5611,3.56,3.5588,3.5566,3.5566,3.5566,3.5577,3.5577,3.5588,3.5566,3.5583,3.5588,3.5498,3.5469,3.5372,3.5198,3.5128,3.4942,3.4732,3.4558,3.4333,3.4075,3.3707,3.3375,3.3112,3.2784,3.2428,3.2067,3.194,3.1798,3.1539,3.1496,3.1496,3.1496,3.1496,3.1366,3.1146,3.1117,3.091,3.0702,3.0612,3.0612,3.0612,3.0612,3.0612,3.0642,3.0866,3.1073,3.1146,3.1686,3.2601,3.381,3.4651,3.577,3.734,3.7903,3.8276,3.875,3.9134,3.9428,3.9664,3.9836,3.9977,4.0113,4.0121,4.0163,4.0146,4.0159,4.0188,4.0171,4.0184,4.0133,4.015,4.015,4.0125,4.0138,4.0113,4.0113,4.0175,4.0175,4.0175,4.0201,4.0275,4.0399,4.0648,4.0852,4.1011,4.1198,4.1387,4.156,4.1714,4.1856,4.2002,4.2097,4.2153,4.2449,3.6068,3.5943,3.5943,3.5921,3.5899,3.5932,3.5949,3.5899,3.5932,3.5932,3.5871,3.5854,3.5832,3.5871,3.5843,3.5826,3.586,3.5888,3.5839,3.5762,3.5745,3.5678,3.5622,3.5628,3.5628,3.5628,3.5628,3.5628,3.5628,3.5628,3.5588,3.5571,3.552,3.5469,3.5389,3.5198,3.5034,3.4839,3.4606,3.4374,3.4113,3.3822,3.3464,3.311,3.2924,3.254,3.2024,3.1769,3.1596,3.1525,3.1496,3.1496,3.1496,3.1496,3.1424,3.1263,3.1132,3.0999,3.0777,3.0657,3.0612,3.0612,3.0612,3.0612,3.0612,3.091,3.1073,3.119,3.1655,3.2401,3.3396,3.44,3.5837,3.7596,3.8288,3.8667,3.908,3.9415,3.9664,3.9849,4.0054,4.018,4.0238,4.0296,4.0375,4.037,4.0358,4.0375,4.0333,4.0345,4.032,4.0263,4.0255,4.0188,4.015,4.0125,4.0138,4.0226,4.028,4.0292,4.0367,4.0448,4.0607,4.0829,4.0982,4.1152,4.1353,4.1549,4.1714,4.1877,4.1995,4.2111,4.2243,4.2343,4.2762,3.6346,3.6293,3.6293,3.6293,3.6293,3.6276,3.6223,3.6148,3.612,3.6084,3.6019,3.598,3.5997,3.5997,3.5997,3.5997,3.6014,3.6014,3.5971,3.5894,3.5828,3.5711,3.5633,3.5628,3.5628,3.5628,3.5628,3.5628,3.5628,3.5628,3.5628,3.5588,3.556,3.5532,3.5486,3.5291,3.51,3.497,3.4715,3.4472,3.4263,3.3949,3.3594,3.3229,3.3005,3.2624,3.2067,3.1755,3.1597,3.1525,3.1496,3.1496,3.1496,3.1496,3.1438,3.1292,3.1176,3.1028,3.0836,3.0687,3.0598,3.0612,3.0612,3.0627,3.0717,3.0955,3.1102,3.1322,3.1741,3.243,3.3457,3.481,3.6403,3.7905,3.8583,3.8928,3.9258,3.9537,3.9768,3.9977,4.0167,4.0342,4.0362,4.0461,4.0497,4.0497,4.0468,4.0485,4.0468,4.051,4.0497,4.0441,4.0392,4.0337,4.0313,4.0288,4.0288,4.0367,4.0478,4.0478,4.0539,4.0648,4.0805,4.0971,4.114,4.1296,4.151,4.1692,4.1856,4.1995,4.2111,4.2225,4.2346,4.2465,4.2902,3.6742,3.6712,3.6712,3.6712,3.6681,3.6709,3.6551,3.6381,3.636,3.6265,3.6137,3.6129,3.6155,3.6073,3.6221,3.6157,3.6112,3.6133,3.6051,3.5986,3.5888,3.5767,3.5644,3.5611,3.5611,3.5628,3.5628,3.5628,3.5628,3.5628,3.5628,3.56,3.5588,3.5571,3.5526,3.5389,3.5256,3.5088,3.4847,3.4631,3.4411,3.4075,3.371,3.3346,3.2935,3.2554,3.2109,3.1856,3.1698,3.1496,3.1496,3.1496,3.1496,3.1496,3.1438,3.1336,3.1205,3.1058,3.0866,3.0732,3.0627,3.0612,3.0612,3.0657,3.0791,3.0969,3.1176,3.1437,3.1782,3.2528,3.3699,3.5533,3.6872,3.7931,3.8495,3.8944,3.9299,3.9563,3.9807,4.007,4.0238,4.0375,4.0473,4.0534,4.0558,4.0655,4.0631,4.0643,4.0643,4.0643,4.0607,4.0551,4.0527,4.051,4.0485,4.0473,4.0485,4.0527,4.0702,4.075,4.0757,4.0852,4.0988,4.1128,4.1284,4.1466,4.1666,4.1841,4.1991,4.2128,4.2236,4.2346,4.2455,4.2546,4.2841,3.693,3.6778,3.6778,3.6755,3.6712,3.6719,3.6681,3.6623,3.6613,3.6602,3.6551,3.6506,3.6506,3.6558,3.6593,3.6613,3.6492,3.6419,3.6325,3.6133,3.6025,3.5894,3.5745,3.5667,3.5611,3.5628,3.5628,3.5628,3.5628,3.5628,3.5628,3.5628,3.56,3.5588,3.5571,3.5475,3.54,3.5233,3.4994,3.4744,3.4472,3.4126,3.3745,3.3398,3.285,3.2372,3.2067,3.187,3.1713,3.1554,3.1496,3.1496,3.1496,3.1496,3.1467,3.1423,3.1322,3.1176,3.1028,3.0851,3.0717,3.0612,3.0612,3.0657,3.0791,3.0984,3.1205,3.1495,3.1811,3.254,3.3765,3.5173,3.6474,3.7485,3.8329,3.901,3.9464,3.9648,3.9841,4.0163,4.0375,4.051,4.0636,4.074,4.0776,4.0817,4.0799,4.0811,4.0787,4.0793,4.0745,4.0673,4.0697,4.0697,4.0667,4.0662,4.0698,4.074,4.0876,4.1,4.1006,4.1041,4.1146,4.1296,4.1448,4.1626,4.1819,4.1941,4.209,4.2215,4.2356,4.2445,4.2536,4.2625,4.2778,3.7126,3.7046,3.7036,3.7007,3.6985,3.6985,3.6956,3.6898,3.6888,3.6869,3.6846,3.6784,3.6801,3.6836,3.6821,3.6773,3.6735,3.6654,3.6502,3.6346,3.6202,3.6084,3.596,3.5778,3.5684,3.5639,3.5628,3.5628,3.5628,3.5628,3.5628,3.5628,3.5628,3.56,3.5605,3.5532,3.5418,3.5291,3.51,3.4839,3.4497,3.4176,3.371,3.3266,3.2742,3.2344,3.2025,3.1955,3.177,3.1583,3.1496,3.1496,3.1496,3.1496,3.1496,3.1481,3.138,3.1234,3.1087,3.0925,3.0732,3.0612,3.0612,3.0747,3.0866,3.1043,3.1322,3.1654,3.1984,3.2509,3.3789,3.5044,3.6169,3.7193,3.8196,3.9001,3.9547,3.9703,3.9897,4.0263,4.0461,4.0607,4.0745,4.0847,4.0871,4.0847,4.0847,4.0847,4.0859,4.0835,4.0835,4.0829,4.0864,4.0876,4.0852,4.0871,4.0931,4.0966,4.1053,4.1163,4.1238,4.1261,4.129,4.1448,4.1593,4.178,4.197,4.2069,4.2184,4.2336,4.2473,4.2544,4.2606,4.2714,4.2838,3.739,3.7345,3.7363,3.7353,3.7326,3.7316,3.7249,3.7156,3.7137,3.7087,3.7048,3.7038,3.7029,3.7027,3.6948,3.6923,3.7076,3.7232,3.7286,3.7155,3.6996,3.6758,3.6526,3.6266,3.5959,3.5678,3.5611,3.5628,3.5628,3.5628,3.5628,3.5628,3.5628,3.5628,3.5594,3.5554,3.5457,3.5303,3.5198,3.4911,3.4533,3.4213,3.3707,3.3043,3.2771,3.2428,3.2109,3.1983,3.184,3.1524,3.1496,3.1496,3.1496,3.1496,3.1496,3.1496,3.1394,3.1292,3.1161,3.0984,3.0791,3.0657,3.0642,3.0777,3.0984,3.1146,3.1409,3.1797,3.2168,3.2602,3.3708,3.4807,3.5945,3.6985,3.7989,3.8869,3.9464,3.9677,3.9948,4.0362,4.051,4.0607,4.0764,4.0883,4.0883,4.0894,4.0894,4.0894,4.0894,4.0923,4.0935,4.0953,4.1018,4.1035,4.0995,4.0995,4.1071,4.114,4.1197,4.1295,4.1392,4.1471,4.1515,4.1593,4.1747,4.1909,4.2037,4.2132,4.2274,4.2453,4.2544,4.2596,4.2694,4.2802,4.2915,3.7739,3.7631,3.7649,3.7604,3.7531,3.7429,3.7392,3.7337,3.7298,3.7259,3.7259,3.7249,3.7268,3.7267,3.7257,3.7517,3.8038,3.8377,3.8597,3.8461,3.8273,3.7956,3.7331,3.6983,3.6556,3.5914,3.5684,3.5622,3.5628,3.5628,3.5628,3.5628,3.5628,3.5628,3.56,3.5566,3.5486,3.5343,3.5261,3.4994,3.4558,3.4176,3.3694,3.2991,3.2843,3.2527,3.2123,3.1982,3.184,3.1539,3.1496,3.1496,3.1496,3.1496,3.1496,3.1481,3.1482,3.138,3.1249,3.1117,3.0955,3.0821,3.0762,3.0851,3.1058,3.122,3.1481,3.1939,3.2416,3.2852,3.3055,3.4317,3.5329,3.6303,3.7359,3.8393,3.9159,3.9599,3.9897,4.035,4.0485,4.0583,4.074,4.0871,4.0894,4.0894,4.0894,4.0894,4.0894,4.0971,4.1047,4.1088,4.114,4.1157,4.1163,4.1163,4.1197,4.1243,4.1312,4.1397,4.1515,4.1648,4.1736,4.1801,4.1866,4.1991,4.2107,4.2194,4.2336,4.2486,4.2576,4.2637,4.2754,4.2851,4.2871,3.7898,3.7819,3.781,3.7793,3.7739,3.7694,3.7658,3.7658,3.7613,3.7621,3.7612,3.7612,3.7621,3.7702,3.803,3.847,3.9043,3.9287,3.9356,3.92,3.9073,3.8792,3.8111,3.7704,3.7093,3.6473,3.601,3.5689,3.5628,3.5628,3.5628,3.5628,3.5628,3.5628,3.5616,3.56,3.5509,3.5366,3.5285,3.5063,3.4542,3.4158,3.3574,3.3099,3.2872,3.2583,3.2153,3.2012,3.184,3.1568,3.1496,3.1496,3.1496,3.1496,3.1496,3.1496,3.1496,3.1438,3.1336,3.1219,3.1117,3.0984,3.0955,3.1043,3.1161,3.1292,3.1524,3.1995,3.2513,3.2899,3.2944,3.4045,3.5107,3.6056,3.7088,3.8156,3.9027,3.95,3.9884,4.0263,4.0395,4.0546,4.0733,4.0829,4.0871,4.0894,4.0883,4.0894,4.0894,4.1006,4.1117,4.1192,4.1255,4.134,4.1386,4.1397,4.1408,4.1431,4.1475,4.156,4.1637,4.1797,4.1888,4.1963,4.2026,4.2097,4.2202,4.2325,4.2435,4.2536,4.2645,4.2735,4.2814,4.289,4.29,3.8035,3.7994,3.7994,3.7995,3.7977,3.7933,3.7943,3.7907,3.789,3.789,3.7908,3.7899,3.7962,3.834,3.9021,3.9688,4.0123,4.0148,4.02,4.0083,3.9916,3.9608,3.899,3.839,3.7845,3.7336,3.6831,3.6016,3.5656,3.5628,3.5628,3.5628,3.5628,3.5628,3.5628,3.5628,3.5514,3.5573,3.5497,3.5272,3.4882,3.4397,3.3781,3.3195,3.3098,3.2808,3.2153,3.2025,3.1869,3.1655,3.1539,3.1496,3.1496,3.1496,3.1496,3.1496,3.1496,3.1453,3.138,3.1292,3.1234,3.1132,3.1146,3.122,3.1307,3.1438,3.1654,3.2067,3.2556,3.2937,3.3121,3.3929,3.4963,3.5991,3.6961,3.7962,3.8864,3.9432,3.9703,4.0024,4.0258,4.0456,4.0607,4.0757,4.0805,4.0852,4.0852,4.0883,4.0906,4.1047,4.1163,4.1267,4.138,4.1515,4.1593,4.1648,4.1677,4.1699,4.1732,4.1786,4.1841,4.1934,4.2012,4.2069,4.2132,4.2212,4.2315,4.2415,4.2496,4.2586,4.2724,4.2812,4.2871,4.2881,4.29,3.835,3.8352,3.8344,3.8303,3.8231,3.8119,3.8043,3.8002,3.7951,3.7908,3.7943,3.7899,3.8267,3.9193,4.0443,4.1052,4.1316,4.1554,4.1655,4.1507,4.1258,4.0757,4.0158,3.9832,3.895,3.8294,3.7923,3.7007,3.6169,3.5825,3.5616,3.5633,3.5695,3.5661,3.578,3.5932,3.5846,3.6197,3.6255,3.6219,3.6085,3.5648,3.49,3.4152,3.3716,3.3232,3.2311,3.208,3.1926,3.177,3.1583,3.151,3.1496,3.1496,3.1496,3.1496,3.1496,3.1496,3.1453,3.138,3.1322,3.1278,3.1278,3.1292,3.1409,3.1668,3.1925,3.2178,3.2636,3.2991,3.3189,3.3611,3.4579,3.5553,3.6537,3.7566,3.8541,3.9365,3.9642,3.9798,4.0037,4.0246,4.0431,4.0583,4.0721,4.0769,4.0817,4.0864,4.0942,4.1065,4.1249,4.1392,4.1504,4.1637,4.1732,4.1797,4.1858,4.1891,4.1934,4.1959,4.1991,4.2034,4.2086,4.2142,4.2205,4.2267,4.2346,4.2427,4.2508,4.2627,4.2754,4.2823,4.2863,4.2882,4.291,3.8496,3.839,3.839,3.8393,3.8344,3.8293,3.8261,3.8219,3.8186,3.8179,3.8171,3.8117,3.8949,4.0391,4.1315,4.181,4.2187,4.2408,4.2399,4.2315,4.198,4.1575,4.0966,4.0349,3.9627,3.9233,3.8591,3.7946,3.7047,3.6451,3.6113,3.5735,3.605,3.6332,3.6332,3.6705,3.6907,3.6977,3.6816,3.6636,3.6437,3.6069,3.5402,3.4342,3.4048,3.3353,3.2555,3.2177,3.2011,3.1841,3.1683,3.1612,3.1539,3.1496,3.1496,3.1496,3.1496,3.1496,3.1481,3.1453,3.1409,3.1409,3.1423,3.1467,3.1596,3.1811,3.2094,3.2287,3.2662,3.3002,3.3295,3.3542,3.4309,3.523,3.6209,3.7137,3.8142,3.9007,3.955,3.9681,3.9811,4.0024,4.0221,4.0399,4.0563,4.0673,4.0745,4.0829,4.093,4.1088,4.1295,4.1538,4.1648,4.1786,4.1819,4.188,4.1934,4.1977,4.2034,4.2048,4.2079,4.2121,4.2163,4.2205,4.2256,4.2308,4.2387,4.2478,4.2578,4.2678,4.2794,4.2843,4.2882,4.2892,4.291,3.8624,3.8491,3.8473,3.8465,3.8423,3.8423,3.8407,3.839,3.8382,3.8382,3.8518,3.883,4.0122,4.1625,4.2105,4.2422,4.2865,4.2747,4.257,4.2399,4.2205,4.1927,4.1464,4.0807,4.0409,4.0112,3.9571,3.8877,3.832,3.7759,3.7072,3.6219,3.6823,3.7043,3.7224,3.7471,3.7689,3.7781,3.7692,3.7498,3.7198,3.6867,3.5952,3.5056,3.4331,3.3711,3.2648,3.2315,3.2121,3.1968,3.1855,3.1769,3.1683,3.1668,3.164,3.1626,3.1597,3.1553,3.1524,3.1481,3.1496,3.151,3.1568,3.1626,3.177,3.1955,3.2164,3.241,3.2705,3.3029,3.3348,3.3607,3.4204,3.5091,3.6059,3.6908,3.7771,3.8768,3.9428,3.9563,3.9681,3.9798,3.9999,4.0201,4.0375,4.0551,4.0673,4.0769,4.093,4.11,4.1283,4.1526,4.1754,4.1852,4.1912,4.1955,4.2016,4.2062,4.2111,4.2153,4.2173,4.2205,4.2246,4.2287,4.2308,4.2407,4.2488,4.2568,4.2639,4.2727,4.2814,4.2862,4.291,4.291,4.291,3.8757,3.8684,3.8666,3.8609,3.8502,3.8502,3.8462,3.8433,3.8407,3.8407,3.8615,3.9913,4.1441,4.2837,4.2986,4.2978,4.3068,4.2929,4.2747,4.257,4.2369,4.2082,4.1746,4.1464,4.1217,4.0926,4.0464,3.9949,3.9479,3.9073,3.8431,3.79,3.7833,3.7821,3.7893,3.8089,3.8356,3.8522,3.8657,3.8708,3.8444,3.8028,3.7178,3.5824,3.5227,3.4478,3.2728,3.2467,3.2315,3.2164,3.2053,3.1954,3.1897,3.1883,3.1856,3.1784,3.177,3.1698,3.1626,3.1524,3.1496,3.1554,3.167,3.1799,3.187,3.2066,3.2287,3.2576,3.2841,3.3163,3.3464,3.3787,3.4185,3.4943,3.587,3.6797,3.7696,3.8718,3.9299,3.9428,3.9563,3.9681,3.9798,4.0003,4.0213,4.0399,4.0648,4.0769,4.0971,4.1129,4.1249,4.1453,4.1765,4.1923,4.1987,4.2041,4.2107,4.217,4.2215,4.2246,4.2267,4.2297,4.2297,4.2328,4.2348,4.2478,4.2578,4.2637,4.2688,4.2765,4.2842,4.2881,4.291,4.291,4.291,3.8784,3.8747,3.8704,3.8666,3.8635,3.8616,3.8619,3.8596,3.8596,3.8578,3.868,4.0272,4.1931,4.3091,4.3393,4.3251,4.3151,4.3059,4.289,4.2679,4.2462,4.2218,4.1984,4.1725,4.1431,4.1209,4.1047,4.0836,4.0271,3.9995,3.9822,3.9355,3.88,3.8628,3.8637,3.8847,3.9114,3.918,3.9311,3.9255,3.8942,3.8601,3.7707,3.6211,3.556,3.4624,3.3264,3.2718,3.2509,3.2344,3.222,3.2136,3.2053,3.2039,3.1996,3.1926,3.1912,3.1869,3.1769,3.164,3.1554,3.1683,3.1812,3.1954,3.201,3.2203,3.2468,3.273,3.2987,3.3293,3.3607,3.3787,3.413,3.4825,3.5696,3.6688,3.7584,3.8563,3.9219,3.9392,3.9475,3.9567,3.9685,3.9828,4.0041,4.0263,4.0527,4.0769,4.0947,4.1129,4.1238,4.1397,4.1681,4.1912,4.1994,4.2097,4.2197,4.2249,4.2297,4.2297,4.2297,4.2297,4.2308,4.2338,4.2407,4.2508,4.2598,4.2658,4.2746,4.2833,4.288,4.29,4.291,4.291,4.291,3.8844,3.8799,3.875,3.8712,3.8699,3.8699,3.8699,3.8699,3.8699,3.8702,3.8815,4.0416,4.2012,4.3128,4.3441,4.3367,4.3269,4.316,4.3012,4.2804,4.2571,4.2351,4.2132,4.1877,4.1615,4.1352,4.1146,4.0942,4.0671,4.0566,4.0304,3.9999,3.9701,3.9402,3.9432,3.9708,3.9884,3.9772,3.9616,3.9405,3.9107,3.8581,3.7769,3.6375,3.5666,3.4639,3.3582,3.2987,3.2771,3.2621,3.2484,3.2345,3.2234,3.2164,3.2151,3.2094,3.2052,3.2052,3.1939,3.184,3.1712,3.1856,3.1982,3.2122,3.2247,3.2384,3.2621,3.2976,3.3203,3.344,3.371,3.3864,3.4016,3.4644,3.5901,3.6908,3.7462,3.8266,3.8878,3.9342,3.9408,3.9461,3.9603,3.9746,4.0003,4.0213,4.0448,4.0673,4.0829,4.1024,4.1226,4.1386,4.1615,4.1797,4.1966,4.2076,4.2166,4.2267,4.2297,4.2297,4.2297,4.2297,4.2308,4.2318,4.2407,4.2528,4.2627,4.2707,4.2786,4.2899,4.291,4.291,4.291,4.291,4.291,3.8906,3.8788,3.8799,3.8765,3.8696,3.8699,3.8699,3.8699,3.8699,3.8698,3.8915,4.0392,4.1987,4.3204,4.3485,4.3446,4.3349,4.3233,4.3096,4.2909,4.2707,4.249,4.2287,4.2065,4.1791,4.1565,4.1329,4.1105,4.0888,4.0655,4.0473,4.0313,4.0035,3.9914,4.0045,4.0066,4.0024,3.9901,3.9755,3.9534,3.9179,3.8533,3.7508,3.6554,3.5635,3.4621,3.3723,3.328,3.3067,3.2895,3.2827,3.2705,3.2566,3.2539,3.2456,3.2261,3.2233,3.2178,3.2053,3.2011,3.2039,3.2067,3.2178,3.2288,3.2413,3.2578,3.2798,3.3163,3.3348,3.3529,3.3749,3.3953,3.4113,3.4662,3.5916,3.6878,3.7431,3.8282,3.899,3.9315,3.9329,3.9382,3.9537,3.972,3.9977,4.0205,4.0399,4.0571,4.0716,4.0918,4.1123,4.1318,4.1509,4.1721,4.1902,4.2016,4.2142,4.2236,4.2297,4.2297,4.2297,4.2297,4.2308,4.2336,4.2437,4.2578,4.2668,4.2757,4.2834,4.291,4.291,4.291,4.291,4.291,4.291,3.8983,3.8921,3.8844,3.8784,3.8773,3.8723,3.8699,3.8699,3.8699,3.8702,3.9035,4.0398,4.2002,4.3082,4.3456,4.3417,4.3385,4.326,4.3105,4.3012,4.2814,4.2599,4.2399,4.2215,4.1991,4.1642,4.1397,4.1232,4.1023,4.0769,4.0588,4.0441,4.0226,4.0125,4.0096,4.0083,4.002,3.991,3.9836,3.969,3.9362,3.854,3.7642,3.6659,3.5691,3.472,3.3835,3.3594,3.3359,3.3176,3.3125,3.2976,3.2854,3.2829,3.2746,3.2664,3.265,3.2636,3.2611,3.2582,3.247,3.2399,3.2385,3.2539,3.2718,3.2962,3.3163,3.3319,3.3542,3.372,3.3889,3.4104,3.4328,3.4721,3.5703,3.6647,3.7423,3.8517,3.9315,3.9315,3.9315,3.9395,3.9524,3.9668,3.9897,4.0075,4.0263,4.0436,4.0583,4.0799,4.1035,4.1203,4.1397,4.1615,4.1808,4.192,4.2048,4.2142,4.2236,4.2297,4.2297,4.2287,4.2297,4.2308,4.246,4.2609,4.2689,4.2786,4.2862,4.291,4.291,4.291,4.291,4.291,4.291,3.904,3.9004,3.8899,3.8844,3.8792,3.8719,3.8699,3.8699,3.8699,3.8699,3.8993,4.0131,4.1752,4.2949,4.3224,4.3342,4.3365,4.3331,4.3196,4.3114,4.2936,4.2707,4.2502,4.2348,4.2097,4.1769,4.1538,4.1375,4.1134,4.09,4.066,4.0412,4.0246,4.0175,4.0138,4.007,4.0058,3.9973,3.991,3.9643,3.9111,3.8323,3.7426,3.6495,3.5594,3.4706,3.4192,3.3848,3.3617,3.3477,3.3361,3.3243,3.3152,3.3112,3.3058,3.2989,3.291,3.2899,3.2856,3.2924,3.2827,3.2784,3.2744,3.2814,3.3005,3.3176,3.3361,3.3542,3.3758,3.3911,3.4066,3.4279,3.4488,3.4882,3.5761,3.6711,3.7428,3.8506,3.9315,3.9315,3.9329,3.9422,3.9524,3.9638,3.9807,3.9973,4.0125,4.03,4.0473,4.0704,4.0935,4.1117,4.1295,4.1504,4.1688,4.183,4.1931,4.2037,4.2132,4.2236,4.2267,4.2246,4.2277,4.2328,4.248,4.2619,4.2736,4.2805,4.2881,4.291,4.291,4.291,4.291,4.291,4.291,3.9052,3.9,3.8993,3.8914,3.8814,3.8742,3.8715,3.8699,3.8699,3.8699,3.8773,3.9614,4.12,4.291,4.2655,4.2818,4.3361,4.3411,4.3304,4.3178,4.3022,4.2805,4.2611,4.2412,4.2233,4.2009,4.1743,4.1493,4.1209,4.0965,4.0667,4.0441,4.0355,4.0251,4.0175,4.0121,4.0108,4.0049,3.9969,3.9564,3.89,3.797,3.7107,3.6208,3.5341,3.4697,3.4288,3.4101,3.3949,3.3822,3.3707,3.3604,3.3555,3.3503,3.3332,3.3176,3.3045,3.3032,3.3045,3.3165,3.3203,3.3187,3.3067,3.3136,3.3256,3.3385,3.3542,3.372,3.3924,3.4088,3.4238,3.4382,3.4526,3.5272,3.6141,3.6852,3.7408,3.8225,3.905,3.9315,3.9315,3.9379,3.9563,3.9677,3.9781,3.9935,4.0087,4.0238,4.0424,4.0631,4.0852,4.1029,4.1209,4.1403,4.156,4.1692,4.1812,4.1931,4.2026,4.2121,4.2153,4.2197,4.2246,4.2328,4.249,4.2629,4.2746,4.2842,4.2891,4.291,4.291,4.291,4.291,4.291,4.291,3.9087,3.9059,3.8996,3.899,3.8932,3.8822,3.8742,3.8689,3.8699,3.8699,3.8744,3.9533,4.0809,4.2255,4.231,4.279,4.3196,4.3437,4.3385,4.3269,4.3114,4.2947,4.2768,4.2591,4.2399,4.2181,4.1909,4.167,4.1408,4.1129,4.0811,4.0607,4.0473,4.0362,4.0275,4.0238,4.0171,4.0074,4.0011,3.9434,3.8718,3.7868,3.6988,3.6108,3.5287,3.474,3.4546,3.4399,3.4275,3.4151,3.4038,3.3924,3.3797,3.3694,3.3568,3.3539,3.349,3.3492,3.3492,3.3503,3.3542,3.3568,3.349,3.35,3.3591,3.3668,3.3771,3.3924,3.4088,3.425,3.4427,3.4575,3.4865,3.5572,3.6463,3.7237,3.7798,3.844,3.9186,3.9299,3.9299,3.9405,3.959,3.9707,3.9794,3.9935,4.0062,4.0201,4.0325,4.0539,4.0745,4.0912,4.1076,4.1244,4.1414,4.1549,4.1681,4.1812,4.1909,4.2005,4.2061,4.2124,4.2197,4.2338,4.249,4.2657,4.2783,4.2852,4.291,4.291,4.291,4.291,4.291,4.291,4.291,3.9101,3.9094,3.9064,3.901,3.8997,3.887,3.8807,3.8773,3.873,3.8699,3.8755,3.9184,4.0115,4.1205,4.165,4.2213,4.2965,4.3326,4.3429,4.334,4.3224,4.305,4.2881,4.2728,4.253,4.2308,4.21,4.1877,4.1582,4.1209,4.09,4.0769,4.0643,4.051,4.0399,4.0296,4.0221,4.0023,3.974,3.9255,3.8535,3.7704,3.6798,3.6042,3.5243,3.4973,3.4775,3.4655,3.4521,3.4411,3.4288,3.4238,3.4101,3.3975,3.386,3.3822,3.371,3.3671,3.3642,3.372,3.3784,3.3864,3.3963,3.3975,3.3962,3.4013,3.4038,3.4101,3.4263,3.4427,3.4628,3.4861,3.5338,3.5836,3.6758,3.7669,3.8278,3.8854,3.912,3.9279,3.9365,3.9458,3.9577,3.9677,3.982,3.9973,4.0045,4.0108,4.0226,4.0367,4.0588,4.0781,4.0935,4.1088,4.1232,4.138,4.1475,4.1615,4.1714,4.1823,4.1934,4.2082,4.2205,4.2338,4.25,4.2647,4.2774,4.2861,4.291,4.291,4.291,4.291,4.291,4.291,4.291,3.9101,3.9101,3.9101,3.9059,3.9,3.8947,3.8899,3.8896,3.878,3.873,3.8723,3.8718,3.9365,4.0428,4.1009,4.1709,4.2525,4.3132,4.3454,4.3412,4.3296,4.3142,4.2975,4.2815,4.2658,4.244,4.2207,4.1988,4.1615,4.133,4.1111,4.0923,4.0805,4.0685,4.0522,4.0424,4.0286,4.0022,3.9333,3.8623,3.7995,3.7147,3.6272,3.5659,3.5296,3.5076,3.4947,3.4816,3.4679,3.4594,3.4509,3.4509,3.4386,3.4275,3.4163,3.4214,3.4136,3.4182,3.4262,3.4423,3.4487,3.4511,3.4446,3.4723,3.4874,3.4624,3.4592,3.4727,3.4942,3.5239,3.5477,3.5733,3.615,3.6646,3.7378,3.8079,3.8593,3.9033,3.9212,3.9339,3.9422,3.9511,3.9681,3.9824,3.9884,4.002,4.0083,4.0096,4.0133,4.0238,4.0404,4.0624,4.0793,4.0923,4.1064,4.1186,4.1272,4.1374,4.1515,4.1648,4.1791,4.1984,4.2194,4.2338,4.248,4.2599,4.2735,4.2815,4.29,4.291,4.291,4.291,4.291,4.291,4.291,3.9101,3.9101,3.9101,3.9087,3.9066,3.9,3.8983,3.8983,3.8896,3.8822,3.8762,3.8793,3.9129,3.9942,4.0763,4.1525,4.2268,4.3065,4.3424,4.3464,4.3376,4.3251,4.3105,4.2947,4.2804,4.2657,4.2409,4.2072,4.1736,4.1522,4.1336,4.1093,4.0988,4.0876,4.0685,4.06,4.0429,4.0155,3.9117,3.7903,3.6829,3.6802,3.6393,3.5773,3.5372,3.5303,3.5187,3.5081,3.5006,3.4947,3.4756,3.4618,3.4497,3.4452,3.4427,3.4497,3.4899,3.5015,3.5177,3.5431,3.5678,3.5876,3.5985,3.6093,3.5995,3.5515,3.5364,3.5541,3.5735,3.6057,3.6347,3.6624,3.6939,3.7445,3.798,3.846,3.8937,3.9126,3.9335,3.9418,3.9488,3.9633,3.9798,3.9914,3.9973,4.0037,4.0087,4.0096,4.0096,4.0163,4.0213,4.0424,4.0624,4.0781,4.0912,4.1018,4.1105,4.1226,4.1374,4.1504,4.1637,4.1888,4.216,4.2308,4.246,4.2588,4.2688,4.2805,4.2872,4.29,4.291,4.291,4.291,4.291,4.291,3.9101,3.9101,3.9101,3.9101,3.9094,3.9052,3.905,3.9036,3.8971,3.8932,3.8881,3.8829,3.9007,3.9653,4.0569,4.125,4.1992,4.3029,4.3369,4.348,4.3437,4.3385,4.3233,4.3068,4.2929,4.2785,4.247,4.2124,4.1888,4.1666,4.1466,4.1296,4.1227,4.1064,4.0876,4.0817,4.068,4.0405,3.9165,3.785,3.6388,3.6358,3.6174,3.5588,3.5498,3.5441,3.5383,3.5285,3.521,3.5152,3.4982,3.5137,3.5144,3.519,3.5317,3.5588,3.5898,3.6082,3.6226,3.6501,3.6839,3.6897,3.6828,3.6673,3.6854,3.6466,3.6523,3.6673,3.6491,3.672,3.6931,3.7167,3.7511,3.7937,3.8457,3.898,3.9203,3.9339,3.9484,3.9577,3.9642,3.9746,3.9901,3.999,4.0037,4.0062,4.01,4.0113,4.0113,4.0113,4.0163,4.0226,4.0441,4.0624,4.0781,4.0864,4.0947,4.1082,4.1226,4.1453,4.1659,4.1895,4.2107,4.2236,4.2389,4.2538,4.2667,4.2765,4.2853,4.2882,4.291,4.291,4.291,4.2891,4.29,3.9101,3.9101,3.9101,3.9101,3.9101,3.9101,3.9101,3.9087,3.9024,3.9026,3.8993,3.887,3.8837,3.9318,4.0234,4.0761,4.1589,4.2882,4.3359,4.347,4.3428,4.3402,4.3341,4.3215,4.3041,4.2843,4.2562,4.2399,4.2215,4.1963,4.1736,4.1593,4.1397,4.1186,4.1094,4.1011,4.087,4.0542,3.9684,3.8714,3.7548,3.6411,3.5949,3.5701,3.5554,3.5526,3.548,3.5423,3.5354,3.5362,3.5363,3.5716,3.5926,3.6042,3.6257,3.6549,3.6827,3.692,3.6992,3.7216,3.733,3.732,3.7197,3.7311,3.7588,3.7709,3.7766,3.7729,3.7547,3.7547,3.7746,3.7899,3.8231,3.8476,3.8983,3.9342,3.9441,3.9528,3.9616,3.972,3.9798,3.9888,3.9977,4.0049,4.0075,4.01,4.0113,4.0113,4.0113,4.0113,4.0125,4.0163,4.0267,4.0453,4.0612,4.0733,4.0817,4.0947,4.1105,4.1386,4.1653,4.1873,4.2034,4.2132,4.2287,4.2478,4.2578,4.2668,4.2757,4.2825,4.2815,4.2786,4.2815,4.2815,4.2862,3.9101,3.9101,3.9101,3.9108,3.9108,3.9108,3.9101,3.9101,3.9106,3.9073,3.9078,3.9007,3.8928,3.8936,3.9934,4.0674,4.144,4.2786,4.3349,4.347,4.348,4.3455,4.3412,4.3314,4.3133,4.2929,4.2736,4.256,4.2409,4.2225,4.1963,4.1659,4.1604,4.1408,4.1192,4.1105,4.1006,4.068,4.0188,3.9274,3.861,3.7492,3.6293,3.5887,3.5588,3.5566,3.556,3.5498,3.5469,3.5556,3.5863,3.639,3.6742,3.6953,3.7089,3.7412,3.7691,3.7856,3.7959,3.8262,3.8407,3.8618,3.8624,3.8742,3.8929,3.9023,3.9074,3.9099,3.8999,3.8973,3.9077,3.9039,3.9256,3.9256,3.9553,3.9582,3.9638,3.9681,3.9716,3.9811,3.9888,3.9977,4.0049,4.01,4.01,4.0113,4.0113,4.0113,4.0113,4.0113,4.0113,4.0125,4.015,4.0201,4.0337,4.0588,4.0726,4.0834,4.0994,4.1301,4.1582,4.1858,4.1991,4.2086,4.2264,4.2465,4.2556,4.2598,4.2629,4.2707,4.2668,4.2658,4.2679,4.2718,4.2785]}]]